[[{"header":{"parameterUnit":"m.s-1","parameterCategory":1,"la1":30.6,"la2":29.2853,"lo1":-89.7004,"lo2":-87.6739,"dy":0.0162,"dx":0.0183,"nx":112,"ny":82,"refTime":"2023-09-03T12:00:00:Z","depth":0,"parameterNumber":2,"parameterNumberName":"U-component_of_WINDS"},"data":[0.0,0.0,0.0,0.0,0.0,0.0,0.0,0.0,0.0,0.0,0.0,0.0,0.0,0.0,0.0,0.0,0.0,0.0,0.0,0.0,0.0,0.0,0.0,0.0,0.0,0.0,0.0,0.0,0.0,0.0,0.0,0.0,0.0,0.0,0.0,0.0,0.0,0.0,0.0,0.0,0.0,0.0,0.0,0.0,0.0,0.0,0.0,0.0,0.0,0.0,0.0,0.0,0.0,0.0,0.0,0.0,0.0,0.0,0.0,0.0,0.0,0.0,0.0,0.0,0.0,0.0,0.0,0.0,0.0,0.0,0.0,0.0,0.0,0.0,0.0,0.0,0.0,0.0,0.0,0.0,0.0,0.0,0.0,0.0,0.0,0.0,0.0,0.0,0.0,0.0,-2.5056,-2.6354,-2.659,-2.6371,-2.5611,-2.5678,-2.5883,-2.6241,0.0,0.0,0.0,0.0,0.0,0.0,0.0,0.0,0.0,0.0,0.0,0.0,0.0,0.0,0.0,0.0,0.0,0.0,0.0,0.0,0.0,0.0,0.0,0.0,0.0,0.0,0.0,0.0,0.0,0.0,0.0,0.0,0.0,0.0,0.0,0.0,0.0,0.0,0.0,0.0,0.0,0.0,0.0,0.0,0.0,0.0,0.0,0.0,0.0,0.0,0.0,0.0,0.0,0.0,0.0,0.0,0.0,0.0,0.0,0.0,0.0,0.0,0.0,0.0,0.0,0.0,0.0,0.0,0.0,0.0,0.0,0.0,0.0,0.0,0.0,0.0,0.0,0.0,0.0,0.0,0.0,0.0,0.0,0.0,0.0,0.0,0.0,0.0,0.0,0.0,0.0,0.0,0.0,0.0,0.0,0.0,0.0,0.0,0.0,0.0,0.0,0.0,0.0,0.0,-2.5509,-2.5953,-2.6582,-2.665,-2.59,-2.6411,-2.6707,-2.6555,0.0,0.0,0.0,0.0,0.0,0.0,0.0,0.0,0.0,0.0,0.0,0.0,0.0,0.0,0.0,0.0,0.0,0.0,0.0,0.0,0.0,0.0,0.0,0.0,0.0,0.0,0.0,0.0,0.0,0.0,0.0,0.0,0.0,0.0,0.0,0.0,0.0,0.0,0.0,0.0,0.0,0.0,0.0,0.0,0.0,0.0,0.0,0.0,0.0,0.0,0.0,0.0,0.0,0.0,0.0,0.0,0.0,0.0,0.0,0.0,0.0,0.0,0.0,0.0,0.0,0.0,0.0,0.0,0.0,0.0,0.0,0.0,0.0,0.0,0.0,0.0,0.0,0.0,0.0,0.0,0.0,0.0,0.0,0.0,0.0,0.0,0.0,0.0,0.0,0.0,0.0,0.0,0.0,0.0,0.0,0.0,0.0,0.0,0.0,0.0,0.0,0.0,0.0,-2.5968,-2.6619,-2.6849,-2.7085,-2.7093,-2.6749,-2.7085,-2.7117,-2.6623,-2.5483,0.0,0.0,0.0,0.0,0.0,0.0,0.0,0.0,0.0,0.0,0.0,0.0,0.0,0.0,0.0,0.0,0.0,0.0,0.0,0.0,0.0,0.0,0.0,0.0,0.0,0.0,0.0,0.0,0.0,0.0,0.0,0.0,0.0,0.0,0.0,0.0,0.0,0.0,0.0,0.0,0.0,0.0,0.0,0.0,0.0,0.0,0.0,0.0,0.0,0.0,0.0,0.0,0.0,0.0,0.0,0.0,0.0,0.0,0.0,0.0,0.0,0.0,0.0,0.0,0.0,0.0,0.0,0.0,0.0,0.0,0.0,0.0,0.0,0.0,0.0,0.0,0.0,0.0,0.0,0.0,0.0,0.0,0.0,0.0,0.0,0.0,0.0,0.0,0.0,0.0,0.0,0.0,0.0,0.0,0.0,0.0,0.0,0.0,0.0,0.0,0.0,0.0,-2.7024,-2.7585,-2.7745,-2.763,-2.7542,-2.7542,-2.7657,-2.7507,-2.6908,-2.6396,0.0,0.0,0.0,0.0,0.0,0.0,0.0,0.0,0.0,0.0,0.0,0.0,0.0,0.0,0.0,0.0,0.0,0.0,0.0,0.0,0.0,0.0,0.0,0.0,0.0,0.0,0.0,0.0,0.0,0.0,0.0,0.0,0.0,0.0,0.0,0.0,0.0,0.0,0.0,0.0,0.0,0.0,0.0,0.0,0.0,0.0,0.0,0.0,0.0,0.0,0.0,0.0,0.0,0.0,0.0,0.0,0.0,0.0,0.0,0.0,0.0,0.0,0.0,0.0,0.0,0.0,0.0,0.0,0.0,0.0,0.0,0.0,0.0,0.0,0.0,0.0,0.0,0.0,0.0,0.0,0.0,0.0,0.0,0.0,0.0,0.0,0.0,0.0,0.0,0.0,0.0,0.0,0.0,0.0,0.0,0.0,0.0,0.0,0.0,0.0,0.0,0.0,-2.7757,-2.7954,-2.7986,-2.7968,-2.7954,-2.7954,-2.8081,-2.8035,-2.7745,-2.6772,0.0,0.0,0.0,0.0,0.0,0.0,0.0,0.0,0.0,0.0,0.0,0.0,0.0,0.0,0.0,0.0,0.0,0.0,0.0,0.0,0.0,0.0,0.0,0.0,0.0,0.0,0.0,0.0,0.0,0.0,0.0,0.0,0.0,0.0,0.0,0.0,0.0,0.0,0.0,0.0,0.0,0.0,0.0,0.0,0.0,0.0,0.0,0.0,0.0,0.0,0.0,0.0,0.0,0.0,0.0,0.0,0.0,0.0,0.0,0.0,0.0,0.0,0.0,0.0,0.0,0.0,0.0,0.0,0.0,0.0,0.0,0.0,0.0,0.0,0.0,0.0,0.0,0.0,0.0,0.0,0.0,0.0,0.0,0.0,0.0,0.0,0.0,0.0,0.0,0.0,0.0,0.0,0.0,0.0,0.0,0.0,0.0,0.0,0.0,0.0,0.0,0.0,-2.7965,-2.8122,-2.8122,-2.8122,-2.8122,-2.8122,-2.8246,-2.8174,-2.7818,0.0,0.0,0.0,0.0,0.0,0.0,0.0,0.0,0.0,0.0,0.0,0.0,0.0,0.0,0.0,0.0,0.0,0.0,0.0,0.0,0.0,0.0,0.0,0.0,0.0,0.0,0.0,0.0,0.0,0.0,0.0,0.0,0.0,0.0,0.0,0.0,0.0,0.0,0.0,0.0,0.0,0.0,0.0,0.0,0.0,0.0,0.0,0.0,0.0,0.0,0.0,0.0,0.0,0.0,0.0,0.0,0.0,0.0,0.0,0.0,0.0,0.0,0.0,0.0,0.0,0.0,0.0,0.0,0.0,0.0,0.0,0.0,0.0,0.0,0.0,0.0,0.0,0.0,0.0,0.0,0.0,0.0,0.0,0.0,0.0,0.0,0.0,0.0,0.0,0.0,0.0,0.0,0.0,0.0,0.0,0.0,0.0,0.0,0.0,0.0,0.0,0.0,-2.795,-2.8146,-2.8255,-2.8255,-2.8255,-2.8255,-2.8255,-2.838,-2.8353,-2.8073,0.0,0.0,0.0,0.0,0.0,0.0,0.0,0.0,0.0,0.0,0.0,0.0,0.0,0.0,0.0,0.0,0.0,0.0,0.0,0.0,0.0,0.0,0.0,0.0,0.0,0.0,0.0,0.0,0.0,0.0,0.0,0.0,0.0,0.0,0.0,0.0,0.0,0.0,0.0,0.0,0.0,0.0,0.0,0.0,0.0,0.0,0.0,0.0,0.0,0.0,0.0,0.0,0.0,0.0,0.0,0.0,0.0,0.0,0.0,0.0,0.0,0.0,0.0,0.0,0.0,0.0,0.0,0.0,0.0,0.0,0.0,0.0,0.0,0.0,0.0,0.0,0.0,0.0,0.0,0.0,0.0,0.0,0.0,0.0,0.0,0.0,0.0,0.0,0.0,0.0,0.0,0.0,0.0,0.0,0.0,0.0,0.0,0.0,0.0,0.0,0.0,0.0,-2.8406,-2.8393,-2.8393,-2.8393,-2.8393,-2.8393,-2.8393,-2.8523,-2.86,0.0,0.0,0.0,0.0,0.0,0.0,0.0,0.0,0.0,0.0,0.0,0.0,0.0,0.0,0.0,0.0,0.0,0.0,0.0,0.0,0.0,0.0,0.0,0.0,0.0,0.0,0.0,0.0,0.0,0.0,0.0,0.0,0.0,0.0,0.0,0.0,0.0,0.0,0.0,0.0,0.0,0.0,0.0,0.0,0.0,0.0,0.0,0.0,0.0,0.0,0.0,0.0,0.0,0.0,0.0,0.0,0.0,0.0,0.0,0.0,0.0,0.0,0.0,0.0,0.0,0.0,0.0,0.0,0.0,0.0,0.0,0.0,0.0,0.0,0.0,0.0,0.0,0.0,0.0,0.0,0.0,0.0,0.0,0.0,0.0,0.0,0.0,0.0,0.0,0.0,0.0,0.0,0.0,0.0,0.0,0.0,0.0,0.0,0.0,0.0,0.0,0.0,0.0,-2.8549,-2.8536,-2.8536,-2.8536,-2.8536,-2.8536,-2.8536,-2.8574,-2.86,-2.86,0.0,0.0,0.0,0.0,0.0,0.0,0.0,0.0,0.0,0.0,0.0,0.0,0.0,0.0,0.0,0.0,0.0,0.0,0.0,0.0,0.0,0.0,0.0,0.0,0.0,0.0,0.0,0.0,0.0,0.0,0.0,0.0,0.0,0.0,0.0,0.0,0.0,0.0,0.0,0.0,0.0,0.0,0.0,0.0,0.0,0.0,0.0,0.0,0.0,0.0,0.0,0.0,0.0,0.0,0.0,0.0,0.0,0.0,0.0,0.0,0.0,0.0,0.0,0.0,0.0,0.0,0.0,0.0,0.0,0.0,0.0,0.0,0.0,0.0,0.0,0.0,0.0,0.0,0.0,0.0,0.0,0.0,0.0,0.0,0.0,0.0,0.0,0.0,0.0,0.0,0.0,0.0,0.0,0.0,0.0,0.0,0.0,0.0,0.0,0.0,0.0,0.0,-2.8724,-2.8724,-2.8724,-2.8724,-2.865,-2.8637,-2.8712,-2.8724,-2.8743,-2.8797,0.0,0.0,0.0,0.0,0.0,0.0,0.0,0.0,0.0,0.0,0.0,0.0,0.0,0.0,0.0,0.0,0.0,0.0,0.0,0.0,0.0,0.0,0.0,0.0,0.0,0.0,0.0,0.0,0.0,0.0,0.0,0.0,0.0,0.0,0.0,0.0,0.0,0.0,0.0,0.0,0.0,0.0,0.0,0.0,0.0,0.0,0.0,0.0,0.0,0.0,0.0,0.0,0.0,0.0,0.0,0.0,0.0,0.0,0.0,0.0,0.0,0.0,0.0,0.0,0.0,0.0,0.0,0.0,0.0,0.0,0.0,0.0,0.0,0.0,0.0,0.0,0.0,0.0,0.0,0.0,0.0,0.0,0.0,0.0,0.0,0.0,0.0,0.0,0.0,0.0,0.0,0.0,0.0,0.0,0.0,0.0,0.0,0.0,0.0,0.0,0.0,0.0,-2.8905,-2.8899,-2.891,-2.8887,-2.8761,-2.8724,-2.8893,-2.891,-2.8973,-2.9086,0.0,0.0,0.0,0.0,0.0,0.0,0.0,0.0,0.0,0.0,0.0,0.0,0.0,0.0,0.0,0.0,0.0,0.0,0.0,0.0,0.0,0.0,0.0,0.0,0.0,0.0,0.0,0.0,0.0,0.0,0.0,0.0,0.0,0.0,0.0,0.0,0.0,0.0,0.0,0.0,0.0,0.0,0.0,0.0,0.0,0.0,0.0,0.0,0.0,0.0,0.0,0.0,0.0,0.0,0.0,0.0,0.0,0.0,0.0,0.0,-2.5338,-2.5031,0.0,0.0,0.0,0.0,0.0,0.0,0.0,0.0,0.0,0.0,0.0,0.0,0.0,0.0,0.0,0.0,0.0,0.0,0.0,0.0,0.0,0.0,0.0,0.0,0.0,0.0,0.0,0.0,0.0,0.0,0.0,0.0,0.0,0.0,0.0,0.0,0.0,0.0,0.0,0.0,-2.8905,-2.8978,-2.9012,-2.891,-2.8973,-2.8966,-2.8917,-2.9007,-2.9071,-2.9104,-2.9071,0.0,0.0,0.0,0.0,0.0,0.0,0.0,0.0,0.0,0.0,0.0,0.0,0.0,0.0,0.0,0.0,0.0,0.0,0.0,0.0,0.0,0.0,0.0,0.0,0.0,0.0,0.0,0.0,0.0,0.0,0.0,0.0,0.0,0.0,0.0,0.0,0.0,0.0,0.0,0.0,0.0,0.0,0.0,0.0,0.0,0.0,0.0,0.0,0.0,0.0,0.0,0.0,0.0,0.0,0.0,0.0,0.0,0.0,0.0,-2.6711,-2.6856,0.0,0.0,0.0,0.0,0.0,0.0,0.0,0.0,0.0,0.0,0.0,0.0,0.0,0.0,0.0,0.0,0.0,0.0,0.0,0.0,0.0,0.0,0.0,0.0,0.0,0.0,0.0,0.0,0.0,0.0,0.0,0.0,0.0,0.0,0.0,0.0,0.0,0.0,0.0,0.0,-2.9138,-2.9206,-2.9209,-2.916,-2.9123,-2.9104,-2.9149,-2.9188,-2.9283,-2.9384,-2.9293,0.0,0.0,0.0,0.0,0.0,0.0,0.0,0.0,0.0,0.0,0.0,0.0,0.0,0.0,0.0,0.0,0.0,0.0,0.0,0.0,0.0,0.0,0.0,0.0,0.0,0.0,0.0,0.0,0.0,0.0,0.0,0.0,0.0,0.0,0.0,0.0,0.0,0.0,0.0,0.0,0.0,0.0,0.0,0.0,0.0,0.0,0.0,0.0,0.0,0.0,0.0,0.0,0.0,-2.7066,-2.6834,-2.6152,-2.6601,-2.6815,-2.6882,-2.8112,-2.8398,-2.7995,-2.8156,0.0,0.0,0.0,0.0,0.0,0.0,0.0,0.0,0.0,0.0,0.0,0.0,0.0,0.0,0.0,0.0,0.0,0.0,0.0,0.0,0.0,0.0,-2.8019,-2.7912,-2.7924,-2.7934,-2.7775,0.0,0.0,0.0,0.0,0.0,0.0,0.0,0.0,0.0,0.0,0.0,-2.9404,-2.9463,-2.9453,-2.9412,-2.9283,-2.9262,-2.9392,-2.9433,-2.9531,-2.9701,-2.954,-2.9433,0.0,0.0,0.0,0.0,0.0,0.0,0.0,0.0,0.0,0.0,0.0,0.0,0.0,0.0,0.0,0.0,0.0,0.0,0.0,0.0,0.0,0.0,0.0,0.0,0.0,0.0,0.0,0.0,0.0,0.0,0.0,0.0,-2.7865,-2.7865,0.0,0.0,0.0,0.0,0.0,0.0,0.0,0.0,0.0,0.0,0.0,0.0,0.0,-2.6792,-2.6032,-2.6032,-2.5973,-2.5895,-2.7358,-2.7983,-2.7945,-3.0228,-3.1268,-3.1229,-3.0682,0.0,-2.7228,-2.7968,0.0,0.0,0.0,0.0,0.0,0.0,0.0,0.0,0.0,0.0,0.0,0.0,0.0,0.0,0.0,0.0,0.0,0.0,0.0,0.0,0.0,0.0,-2.9017,-2.8983,-2.9475,-2.9928,-2.9909,-2.9049,-2.8286,-2.8216,-2.8892,-2.9401,0.0,0.0,0.0,0.0,0.0,0.0,-2.9476,-2.9645,-2.9654,-2.9433,-2.954,-2.956,-2.9412,-2.956,-2.9664,-2.9701,-2.9683,-2.9579,-2.9412,-2.9361,0.0,0.0,0.0,0.0,0.0,0.0,0.0,0.0,0.0,0.0,0.0,0.0,0.0,0.0,0.0,0.0,0.0,0.0,0.0,0.0,0.0,0.0,0.0,0.0,0.0,0.0,0.0,0.0,0.0,-2.7974,-2.8208,-2.8208,-2.8208,-2.8208,0.0,0.0,0.0,0.0,0.0,0.0,0.0,0.0,0.0,-2.8423,-2.8403,-2.8462,-2.8579,-2.8579,-2.8325,-2.7837,-2.8579,-2.8663,-2.8244,-2.9395,-3.0185,-3.0643,-3.074,-3.0448,-2.9824,-2.9216,-2.9268,-2.9708,0.0,0.0,0.0,0.0,-2.9662,-2.9602,-2.9148,-2.899,-2.899,-2.899,0.0,0.0,0.0,0.0,0.0,0.0,0.0,-2.9401,-2.9313,-2.9632,-2.996,-2.9897,-3.0125,-3.035,-3.0316,-2.9867,-2.9445,-2.9363,-2.9658,-2.9855,-2.9672,-2.958,0.0,0.0,0.0,-3.0321,-3.044,-3.0892,-3.1148,-3.1044,-3.1034,-3.0836,-3.0289,-3.0311,-3.019,-2.972,-2.9701,-2.9655,-2.9569,-2.9453,-2.9341,0.0,0.0,0.0,0.0,0.0,0.0,0.0,0.0,0.0,0.0,0.0,0.0,0.0,0.0,0.0,0.0,0.0,0.0,0.0,0.0,0.0,0.0,0.0,0.0,0.0,0.0,0.0,0.0,-2.8717,-2.8873,-2.8873,-2.8873,-2.8873,0.0,0.0,0.0,0.0,0.0,0.0,-3.0492,-3.0295,-3.0061,-2.9847,-2.9827,-3.0139,-3.0782,-3.1016,-3.0918,-3.049,-3.0938,-3.0795,-3.0191,-3.064,-3.1199,-3.1801,-3.2016,-3.2487,-3.296,-3.1229,-3.0878,-3.1479,-3.1464,-3.1464,-3.1438,-3.1204,-3.1124,-3.1023,-3.0184,-2.9908,-2.9905,-2.9905,-2.9875,-2.9957,-3.0602,0.0,0.0,0.0,0.0,-3.0618,-3.0509,-3.0546,-3.0606,-3.0501,-3.0453,-3.0437,-3.0392,-3.0304,-3.0221,-3.0147,-3.0125,-3.0102,-2.9972,-3.0053,0.0,-3.0243,-3.0867,-3.1389,-3.1531,-3.2037,-3.2363,-3.2317,-3.2222,-3.189,-3.126,-3.1035,-3.0678,-3.0067,-2.986,-2.9747,-2.9719,-2.957,-2.9472,-2.9402,0.0,0.0,0.0,0.0,0.0,0.0,0.0,0.0,0.0,0.0,0.0,0.0,0.0,0.0,0.0,0.0,0.0,0.0,0.0,0.0,0.0,0.0,0.0,0.0,0.0,0.0,0.0,0.0,0.0,-3.0665,-3.0665,0.0,0.0,0.0,0.0,-3.1897,-3.1977,-3.2328,-3.3164,-3.2423,-3.1583,-3.0762,-3.0723,-3.0762,-3.0801,-3.1622,-3.2423,-3.3222,-3.4817,-3.556,-3.556,-3.7236,-3.8017,-3.7952,-3.6347,-3.5695,-3.5675,-3.3918,-3.3236,-3.3275,-3.3275,-3.3275,-3.3178,-3.2339,-3.2031,-3.1913,-3.1034,-3.0735,-3.0742,-3.0742,-3.0734,-3.0739,-3.0798,-3.0802,0.0,0.0,-3.0796,-3.0769,-3.07,-3.0694,-3.0688,-3.0694,-3.0641,-3.0591,-3.0591,-3.0492,-3.0342,-3.0226,-3.0185,-3.0183,-3.0102,0.0,-3.1221,-3.1229,-3.1963,-3.2515,-3.2523,-3.2553,-3.2505,-3.2317,-3.2289,-3.2222,-3.2058,-3.1403,-3.0968,-3.0931,-3.0273,-2.9866,-2.9799,-2.979,-2.9654,-2.9412,-2.9392,0.0,0.0,0.0,0.0,0.0,0.0,0.0,0.0,0.0,0.0,0.0,0.0,0.0,0.0,0.0,0.0,0.0,0.0,0.0,0.0,0.0,0.0,0.0,0.0,0.0,0.0,0.0,0.0,-3.1503,-3.1103,0.0,-3.231,-3.2405,-3.231,-3.2057,-3.3075,-3.3345,-3.2541,-3.3264,-3.3544,-3.3199,-3.3176,-3.3446,-3.4001,-3.4335,-3.4661,-3.5015,-3.5616,-3.5908,-3.5928,-3.6532,-3.7125,-3.7625,-3.7018,-3.7064,-3.7563,-3.6937,-3.5399,-3.339,-3.34,-3.3402,-3.3352,-3.3059,-3.2945,-3.2889,-3.2578,-3.2478,-3.2475,-3.2464,-3.2086,-3.1637,-3.1648,-3.1231,-3.0804,-3.0791,-3.0801,-3.0778,-3.0714,-3.0703,-3.0694,-3.0701,-3.1072,-3.1447,-3.1447,-3.1763,-3.2056,-3.2011,-3.1514,-3.1263,-3.1806,-3.2072,-3.2203,-3.2203,-3.2935,-3.3508,-3.3508,-3.3917,-3.4181,-3.411,-3.4008,-3.3705,-3.306,-3.2279,-3.1609,-3.1034,-3.0268,-2.9841,-2.9866,-2.9866,-2.9806,-2.9654,-2.9654,-2.9401,0.0,0.0,0.0,0.0,0.0,0.0,0.0,0.0,0.0,0.0,0.0,0.0,0.0,0.0,0.0,0.0,0.0,0.0,0.0,0.0,0.0,0.0,0.0,0.0,0.0,-3.0367,-3.0481,-3.2269,-3.1926,-3.2104,-3.3556,-3.396,-3.4022,-3.3747,-3.4742,-3.501,-3.4171,-3.4929,-3.5379,-3.539,-3.5385,-3.5775,-3.6651,-3.6942,-3.7249,-3.7585,-3.7585,-3.7585,-3.7585,-3.7585,-3.7907,-3.8481,-3.8481,-3.8663,-3.8948,-3.8948,-3.7435,-3.5128,-3.5112,-3.5116,-3.5051,-3.4467,-3.4237,-3.4167,-3.3594,-3.3398,-3.3398,-3.3392,-3.3001,-3.2536,-3.2539,-3.2146,-3.167,-3.1674,-3.1683,-3.1679,-3.1622,-3.1612,-3.1601,-3.1579,-3.1984,-3.2376,-3.2378,-3.2769,-3.3185,-3.3456,-3.2723,-3.225,-3.2801,-3.3053,-3.3153,-3.3146,-3.3853,-3.4407,-3.4407,-3.4835,-3.5127,-3.5092,-3.502,-3.469,-3.4036,-3.3223,-3.2429,-3.1596,-3.0763,-3.0202,-2.9983,-2.9913,-2.9874,-2.9808,-2.9773,-2.9655,-2.9402,0.0,0.0,0.0,0.0,0.0,0.0,0.0,0.0,0.0,0.0,0.0,0.0,0.0,0.0,0.0,0.0,0.0,0.0,0.0,0.0,0.0,0.0,0.0,-3.1763,-3.1208,-3.1398,-3.3064,-3.3278,-3.3623,-3.4531,-3.539,-3.6205,-3.702,-3.7021,-3.7364,-3.8248,-3.7491,-3.7079,-3.7219,-3.7223,-3.7592,-3.8373,-3.9228,-4.0068,-4.0907,-4.0907,-4.0907,-4.0907,-4.0907,-4.0935,-4.0996,-4.0996,-4.057,-3.9844,-3.9844,-3.9334,-3.8575,-3.8519,-3.85,-3.8305,-3.659,-3.5951,-3.571,-3.4081,-3.3495,-3.3471,-3.3476,-3.3456,-3.345,-3.3449,-3.3417,-3.3398,-3.3398,-3.3392,-3.3394,-3.3399,-3.3393,-3.3384,-3.3329,-3.3313,-3.3339,-3.3343,-3.3351,-3.3604,-3.4385,-3.3756,-3.3064,-3.3,-3.3621,-3.411,-3.4056,-3.4694,0.0,-3.5209,-3.5209,-3.5196,-3.5148,-3.5139,-3.5095,-3.4955,-3.4216,-3.3409,-3.2651,-3.1784,-3.0936,-3.0141,-2.9972,-2.9883,-2.9789,-2.9738,-2.9617,-2.9412,0.0,0.0,0.0,0.0,0.0,0.0,0.0,0.0,0.0,0.0,0.0,0.0,0.0,0.0,0.0,0.0,0.0,0.0,0.0,0.0,0.0,-3.235,-3.2914,-3.1805,-3.1934,-3.2843,-3.472,-3.4898,-3.5452,-3.6955,-3.7328,-3.7255,-3.6762,-3.7958,-3.8542,-3.8174,-3.9154,-3.9733,-3.9774,-3.9774,-3.9893,-4.0111,-4.0343,-4.0616,-4.0907,-4.0907,-4.0907,-4.0907,-4.0907,-4.0935,-4.0996,-4.0996,-4.0901,-4.0737,-4.0737,-4.0568,-4.0197,-3.8978,-3.85,-3.8441,-3.7954,-3.7393,-3.678,-3.6324,-3.5769,-3.5288,-3.529,-3.4859,-3.4346,-3.4336,-3.3901,-3.3398,-3.3397,-3.3396,-3.3394,-3.3399,-3.3393,-3.3388,-3.332,-3.3779,-3.4244,-3.4234,-3.4692,-3.5173,-3.5406,-3.5226,-3.5006,-3.4944,-3.5002,-3.5033,-3.5023,-3.5112,-3.5209,-3.5209,-3.5209,-3.5441,-3.6046,-3.6122,-3.6068,-3.5931,-3.518,-3.4105,-3.2697,-3.1773,-3.0956,-3.0195,-3.0135,-3.0034,-2.9883,-2.9816,-2.971,0.0,0.0,0.0,0.0,0.0,0.0,0.0,0.0,0.0,0.0,0.0,0.0,0.0,0.0,0.0,0.0,0.0,0.0,0.0,0.0,0.0,0.0,-3.3508,-3.4176,-3.3605,-3.3651,-3.4436,-3.6305,-3.6497,-3.6997,-3.839,-3.8875,-3.8856,-3.8277,-3.9234,-3.9682,-3.9258,-4.0153,-4.0713,-4.0797,-4.0797,-4.0796,-4.0792,-4.0792,-4.0829,-4.0862,-4.0862,-4.0862,-4.0862,-4.0862,-4.0873,-4.0921,-4.0921,-4.0948,-4.1023,-4.1023,-4.1,-4.0902,0.0,0.0,0.0,0.0,-3.8494,-3.7737,-3.773,-3.7193,-3.6497,-3.6505,-3.5916,-3.5202,-3.5207,-3.4859,-3.4448,-3.4487,-3.4492,-3.4499,-3.4484,-3.4497,-3.4474,-3.4415,-3.4786,-3.514,-3.5145,-3.5516,-3.5845,-3.5846,-3.5846,0.0,-3.5747,-3.5623,-3.5509,-3.545,-3.5345,-3.5281,-3.5281,-3.5242,-3.5392,-3.5889,-3.5965,-3.5929,-3.5859,-3.5385,0.0,0.0,0.0,-3.1348,-3.02,-3.0161,0.0,0.0,0.0,-2.9783,-2.9701,-2.9579,0.0,0.0,-2.7737,-2.7307,0.0,0.0,0.0,0.0,0.0,0.0,0.0,0.0,0.0,0.0,0.0,0.0,0.0,0.0,0.0,0.0,-3.4737,-3.559,-3.6377,-3.6051,-3.6291,-3.7759,-3.8008,-3.8361,-3.9152,-3.9961,-4.0454,-4.0488,-4.0488,-4.0559,-4.0752,-4.0614,0.0,0.0,0.0,-4.0797,-4.0797,-4.0797,-4.0797,-4.0797,-4.0797,-4.0797,-4.0797,-4.0797,-4.0788,-4.0807,-4.0807,-4.0839,-4.0907,-4.0907,-4.093,-4.0992,-4.1052,-4.1068,-4.0926,-4.0198,-3.9393,-3.8642,-3.8658,0.0,0.0,-3.7349,-3.6755,-3.6045,-3.6045,-3.5975,-3.5907,-3.5966,-3.5995,-3.5993,-3.6001,-3.5994,-3.5989,-3.5933,-3.5908,-3.5901,-3.5899,-3.5892,-3.5903,-3.5895,-3.5963,-3.6024,-3.5966,-3.58,-3.5681,-3.5666,-3.5598,-3.558,-3.5696,-3.5592,-3.5501,-3.5501,-3.5485,0.0,-3.5354,-3.5287,-3.4526,-3.2806,-3.2469,-3.1656,-3.0167,-3.011,-3.0014,-2.9842,-2.9825,-2.9773,-2.9701,-2.9692,-2.9701,-2.9683,-2.8665,-2.8199,0.0,0.0,0.0,0.0,0.0,0.0,0.0,0.0,0.0,0.0,0.0,0.0,0.0,0.0,0.0,-3.5571,-3.6984,-3.8026,-3.8197,-3.8664,-3.8916,-3.8717,-3.9261,-3.9765,-4.0043,-4.0126,-4.0221,-4.0334,-4.0342,-4.0399,-4.0559,-4.0668,-4.0752,-4.0797,-4.0797,-4.0797,-4.0797,-4.0797,-4.0797,-4.0797,-4.0797,0.0,-4.0797,-4.0797,-4.0788,-4.0807,-4.0807,-4.0839,-4.0907,-4.0907,-4.0912,-4.0926,-4.0992,-4.1041,-4.1059,-4.0859,-4.0247,-3.9552,-3.9541,-3.8973,-3.8246,-3.8255,-3.7668,-3.6941,-3.6941,-3.6462,0.0,-3.5928,-3.5952,-3.5995,-3.5993,-3.6004,-3.5991,-3.5988,-3.5939,-3.5906,-3.5901,-3.5904,-3.5908,-3.5903,-3.6424,-3.6864,-3.6856,-3.6211,-3.5915,-3.6543,-3.658,-3.6781,-3.7488,-3.7462,-3.7379,-3.7379,-3.7283,-3.6948,-3.629,-3.6235,-3.5223,-3.2852,-3.1424,-3.0527,-3.019,-3.019,-3.0147,-3.003,-2.9932,-2.9849,-2.9782,-2.9719,-2.9701,-2.9683,-2.9458,-2.9383,0.0,0.0,0.0,0.0,0.0,0.0,0.0,0.0,0.0,0.0,0.0,-3.379,0.0,0.0,-3.6443,-3.7306,-3.8159,-3.8841,-3.9248,-3.9654,-3.9781,-3.9428,-3.9761,-4.003,-4.0091,-4.0101,-4.0129,-4.0194,-4.0266,-4.0334,-4.0399,-4.0552,-4.0654,-4.0654,-4.0746,-4.0797,-4.0797,-4.0797,-4.0797,-4.0797,-4.0797,-4.0797,-4.0797,-4.0797,-4.0796,-4.08,-4.08,-4.0818,-4.0851,-4.0858,-4.0849,-4.0854,-4.0898,-4.0952,-4.1041,-4.1003,-4.0765,-4.0445,-4.0406,-3.9848,-3.9143,-3.9143,-3.8558,-3.7857,-3.7857,-3.7559,-3.711,-3.6676,-3.6569,-3.6504,-3.6093,-3.6007,-3.5992,-3.5992,-3.5967,-3.5941,-3.5941,-3.6286,-3.6588,-3.6557,-3.7225,-3.7786,-3.7753,-3.7358,-3.7199,-3.7599,-3.7561,-3.7659,-3.809,-3.8061,-3.7993,-3.7993,-3.7882,-3.7469,-3.6672,-3.5376,-3.3864,-3.2164,-3.0892,-3.0211,-3.0211,-3.0211,-3.0176,-3.0102,-3.003,-2.9924,-2.9808,-2.9783,-2.9729,-2.9701,-2.9701,-2.9701,0.0,0.0,0.0,0.0,0.0,0.0,0.0,0.0,-3.2937,-3.3107,-3.4339,-3.5438,-3.5609,-3.6727,-3.7931,-3.8784,-3.8936,-3.9153,-3.9805,-3.99,-3.99,-3.99,-3.99,-3.9911,-3.9943,-4.001,-4.0081,-4.012,-4.0212,-4.0274,-4.0309,-4.0399,-4.0462,-4.0503,-4.0661,-4.0752,-4.0797,-4.0797,-4.0797,-4.0797,-4.0797,-4.0797,-4.0797,-4.0797,-4.0797,-4.0797,-4.0797,-4.0797,-4.0797,-4.0792,-4.079,-4.079,-4.0801,-4.0864,-4.0952,-4.098,-4.1027,-4.1075,-4.1027,-4.0574,-4.0055,-4.0049,-3.9448,-3.8753,-3.8753,-3.8636,-3.835,-3.7659,-3.7336,-3.7044,-3.6406,-3.6128,-3.5998,-3.5994,-3.5992,-3.5992,-3.5992,-3.6558,-3.7084,-3.7207,-3.7901,-3.8549,-3.8656,-3.8656,-3.865,-3.8644,-3.8569,-3.8542,-3.8697,-3.8663,-3.855,-3.8382,-3.8257,-3.7697,-3.6548,-3.414,-3.2336,-3.1477,-3.0643,-3.0211,-3.0211,-3.0211,-3.0164,-3.0125,-3.0102,-3.0026,-2.9859,-2.9825,-2.9764,-2.971,-2.9711,-2.9701,-3.2037,-3.2189,-3.2132,-3.2246,-3.2322,-3.2587,0.0,0.0,-3.4832,-3.5609,-3.6481,-3.7363,-3.814,-3.8424,-3.8822,-3.9635,-3.9767,-3.9805,-3.99,-3.99,-3.99,-3.99,-3.99,-3.9946,-4.008,-3.9969,-4.002,-4.0266,-4.0176,-4.0167,-4.0281,-4.0298,-4.0383,-4.0503,-4.0518,-4.0621,-4.0797,-4.0797,-4.0797,-4.0797,-4.0797,-4.0797,-4.0797,-4.0797,-4.0797,-4.0797,-4.0797,-4.0797,-4.0797,-4.0803,-4.0803,-4.079,-4.0809,-4.0818,-4.0833,-4.0898,-4.0943,-4.1,-4.0996,-4.0983,-4.0948,-4.0898,-4.0324,-3.9649,-3.9649,-3.9104,-3.848,-3.8389,-3.7793,-3.718,-3.7082,-3.6543,-3.5992,-3.5998,-3.5992,-3.5992,-3.5992,-3.607,-3.6363,-3.7142,-3.7948,-3.8731,-3.9509,-3.9598,-3.956,-3.9552,-3.9539,-3.9786,-4.0505,-4.053,-4.0208,-3.9425,-3.9213,-3.8168,-3.5755,-3.3795,-3.2355,-3.1541,-3.0682,-3.0211,-3.0211,-3.0211,-3.0204,-3.0197,-3.0132,-3.0087,-3.0072,-2.9885,-2.9799,-2.979,-2.9729,-2.9701,-3.2303,-3.3107,-3.3847,0.0,-3.4245,-3.4832,-3.5666,-3.6102,-3.6462,-3.6832,-3.7571,-3.8273,-3.8633,-3.9077,-3.9513,-3.9843,-3.99,-3.99,-3.99,-3.99,-3.99,-3.99,-3.99,-3.9933,-3.9988,-3.9924,-3.9946,-4.007,-4.001,-4.0,-4.0051,-4.0148,-4.0203,-4.0266,-4.0342,-4.0466,-4.0621,-4.0621,-4.0674,-4.0797,-4.0797,-4.0797,-4.0797,-4.0797,-4.0797,-4.0797,-4.0797,-4.0797,-4.0797,-4.0797,-4.0797,-4.0797,-4.0808,-4.0794,-4.08,-4.0823,-4.0912,-4.0988,-4.0917,-4.0943,-4.1038,-4.1019,-4.0774,-4.0516,-4.0539,-4.0292,-3.9902,-3.9396,-3.8997,-3.8479,-3.7456,-3.6945,-3.6582,-3.6109,-3.6009,-3.6006,-3.5995,-3.6402,-3.6852,-3.7223,-3.7978,-3.8653,-3.8989,-3.9026,-3.8997,-3.8999,-3.8976,-3.9062,-3.9392,-3.9423,-3.9228,-3.8792,-3.823,-3.7249,-3.5605,-3.3878,-3.2519,-3.1674,-3.0759,-3.026,-3.026,-3.0226,-3.0211,-3.0211,-3.0176,-3.014,-3.0095,-2.9951,-2.9832,-2.9799,-2.9729,-2.9701,-3.3392,0.0,0.0,-3.5533,-3.6064,-3.6756,-3.7571,-3.7761,-3.7818,-3.8035,-3.8584,-3.902,-3.902,-3.9513,-3.99,-3.99,-3.99,-3.99,-3.99,-3.99,-3.99,-3.99,-3.99,-3.99,-3.99,-3.99,-3.99,-3.99,-3.99,-3.99,-3.99,-3.9979,-4.0051,-4.0101,-4.0194,-4.0309,-4.0439,-4.0469,-4.0574,-4.0713,-4.0765,-4.0797,-4.0797,-4.0797,-4.0797,-4.0797,-4.0797,-4.0797,-4.0797,-4.0797,-4.0797,-4.0797,-4.0797,-4.0797,-4.0803,-4.0806,-4.0863,-4.093,-4.0839,-4.0888,-4.0975,-4.0943,-4.0967,-4.0984,-4.1045,-4.1075,-4.0942,-4.0328,-3.9984,-3.944,-3.7946,-3.7378,-3.7003,-3.6191,-3.5995,-3.5993,-3.6004,-3.6505,-3.7009,-3.7243,-3.7809,-3.8294,-3.8493,-3.8309,-3.8142,-3.8141,-3.7897,-3.7872,-3.8345,-3.8391,-3.8364,-3.8262,-3.7447,-3.6524,-3.5626,-3.3975,-3.2626,-3.1758,-3.0849,-3.0327,-3.0327,-3.0279,-3.026,-3.026,-3.0246,-3.0206,-3.0157,-3.0019,-2.9924,-2.9885,-2.9783,-2.9729,-3.5865,-3.613,-3.6358,-3.7135,-3.7344,-3.759,-3.8462,-3.8652,-3.8879,-3.9654,-3.9843,-3.9862,-3.9862,-3.9881,-3.99,-3.99,-3.99,-3.99,-3.99,-3.99,-3.99,-3.99,-3.99,-3.99,-3.99,-3.99,-3.99,-3.99,-3.99,-3.99,-3.99,-3.99,-3.9967,-4.0091,-4.0101,-4.0167,-4.029,-4.0431,-4.0511,-4.0511,-4.0707,-4.0797,-4.0797,-4.0797,-4.0797,-4.0797,-4.0797,-4.0797,-4.0797,-4.0797,-4.0797,-4.0797,-4.0797,-4.0797,-4.0797,-4.0797,-4.08,-4.0812,-4.0807,-4.0844,-4.0883,-4.0828,-4.0849,-4.0917,-4.0984,-4.0996,-4.1003,-4.1042,-4.0448,-3.9583,-3.8684,-3.7833,-3.7001,-3.6184,-3.5996,-3.5995,-3.5995,-3.6026,-3.6285,-3.7145,-3.7321,-3.7614,-3.8454,-3.7835,-3.7236,-3.7236,-3.6511,-3.6556,-3.8194,-3.8392,-3.8406,-3.8382,-3.7507,-3.6565,-3.5756,-3.4033,-3.2626,-3.1758,-3.0884,-3.0402,-3.0402,-3.0397,-3.0397,-3.0397,-3.0333,-3.0304,-3.0298,-3.0164,-3.0095,-3.0087,-2.9893,-2.9799,-3.613,-3.6585,-3.7211,-3.8045,-3.8254,-3.8481,-3.9304,-3.9513,-3.9559,-3.9843,-3.99,-3.99,-3.99,-3.99,-3.99,-3.99,-3.99,-3.99,-3.99,-3.99,-3.99,-3.99,-4.0412,-4.0544,-3.9957,-3.99,-3.99,-3.99,-3.99,-3.99,-3.99,-3.99,-3.9922,-3.9967,-3.9967,-4.003,-4.0177,-4.0203,-4.0317,-4.0511,-4.0707,-4.0797,-4.0797,-4.0797,-4.0797,-4.0797,-4.0797,-4.0797,-4.0797,-4.0797,-4.0797,-4.0797,-4.0797,-4.0797,-4.0797,-4.0797,-4.0809,-4.0808,-4.0808,-4.1197,-4.1604,-4.1006,-4.1205,-4.1601,-4.1092,-4.0952,-4.0996,-4.103,-4.0857,-4.0334,-3.8887,-3.8285,-3.7691,-3.6261,-3.5921,-3.5949,-3.5996,-3.5993,-3.6085,-3.6385,-3.6441,-3.6539,-3.6813,-3.6614,-3.6391,-3.6339,-3.6086,-3.6109,-3.668,-3.6701,-3.6673,-3.6673,-3.638,-3.6056,-3.5784,-3.468,-3.3639,-3.2805,-3.1903,-3.1139,-3.0564,-3.0452,-3.0402,-3.0402,-3.0375,-3.0359,-3.0359,-3.0222,-3.0173,-3.0154,-2.9953,-2.9841,-3.6927,-3.7476,-3.8064,-3.8906,-3.9134,-3.9267,-3.9786,-3.99,-3.99,-3.99,-3.9673,-3.957,-3.9843,-3.9673,-3.957,-3.9843,-3.99,-3.99,-3.99,-4.0165,-4.0355,-4.0355,-4.1113,-4.1416,-4.0847,-4.079,-4.0677,-4.0393,-4.062,-4.079,-4.079,-4.079,-4.0658,-4.0374,-4.0355,-4.0257,-4.003,-4.009,-4.0203,-4.0431,-4.0607,-4.07,-4.07,-4.0778,-4.0797,-4.0797,-4.0797,-4.0797,-4.0797,-4.0797,-4.0797,-4.0797,-4.0797,-4.0797,-4.0797,-4.0797,-4.0797,-4.0835,-4.1126,-4.1595,-4.2013,-4.1761,-4.2071,-4.2451,-4.1944,-4.1616,-4.1397,-4.1451,-4.1264,-4.0744,-3.9334,-3.8733,-3.8135,-3.6699,-3.6128,-3.5911,-3.5953,-3.5976,-3.5996,-3.6006,-3.6003,-3.6001,-3.5994,-3.5992,-3.5989,-3.5939,-3.5926,-3.5894,-3.5901,-3.5859,-3.5841,-3.5841,-3.585,-3.5838,-3.5838,-3.5014,-3.4171,-3.3351,-3.2438,-3.1545,-3.0672,-3.0552,-3.051,-3.051,-3.0482,-3.0467,-3.0467,-3.0315,-3.0248,-3.0222,-3.0045,-2.9959,-3.8254,-3.8727,-3.8936,-3.9711,-3.99,-3.99,-3.99,-3.9862,-3.9843,-3.9843,-3.9191,-3.8879,0.0,0.0,-3.8917,-3.9767,-3.9862,-3.9843,-3.99,-4.0639,-4.1188,0.0,0.0,0.0,0.0,0.0,-4.2192,-4.1378,-4.1984,-4.2401,-4.2401,-4.2401,-4.2041,-4.1283,-4.1207,-4.079,-3.9976,-4.0049,-4.0157,-4.03,-4.0423,-4.0496,-4.0503,-4.07,-4.0784,-4.079,-4.079,-4.0797,-4.0797,-4.0797,-4.0797,-4.0797,-4.0797,-4.0797,-4.0797,-4.0797,-4.0797,-4.0913,-4.1719,-4.2028,-4.2202,-4.2976,-4.3285,-4.3369,-4.3394,-4.2811,-4.218,-4.2319,-4.1727,-4.0887,-4.0065,-3.9179,-3.8285,-3.7409,-3.6521,-3.59,-3.5901,-3.596,-3.5993,-3.5996,-3.5995,-3.5993,-3.5998,-3.5994,-3.5994,-3.5992,-3.596,-3.5901,-3.5894,-3.5892,-3.5908,-3.5908,-3.5905,-3.5905,-3.5901,-3.5072,-3.4229,-3.341,-3.2551,-3.1681,-3.081,-3.0713,-3.0694,-3.0694,-3.0637,-3.0604,-3.0604,-3.0409,-3.0322,-3.0291,-3.0159,-3.011,-3.8405,-3.9134,-3.9635,-3.9843,-3.99,-3.99,-3.99,-3.9437,-3.9012,-3.9012,-3.8329,-3.7988,0.0,0.0,0.0,-3.9654,-3.9399,0.0,-3.9824,-4.0639,0.0,-4.1188,0.0,-4.3114,-4.2469,-4.3531,-4.3929,-4.3114,-4.2647,-4.2401,-4.2401,-4.2401,-4.2306,-4.2098,-4.151,-4.1094,-4.0866,-4.0354,-4.012,-4.0139,-4.0292,-4.0359,-4.0359,-4.0503,-4.0574,-4.0581,-4.072,-4.0797,-4.0797,-4.0797,-4.0797,-4.0797,-4.0797,-4.0797,-4.0797,-4.0797,-4.0797,-4.0913,-4.1719,-4.2434,-4.2899,-4.2473,-4.3208,-4.4156,-4.3518,-4.3208,-4.3075,-4.3103,-4.2568,-4.177,-4.0922,-3.9607,-3.8285,-3.7409,-3.652,-3.5892,-3.5898,-3.5908,-3.5939,-3.5992,-3.5994,-3.5996,-3.5993,-3.5992,-3.6009,-3.5995,-3.5989,-3.596,-3.5901,-3.5902,-3.5908,-3.5908,-3.5903,-3.5908,-3.5905,-3.568,-3.5157,-3.4249,-3.3429,-3.2574,-3.1697,-3.104,-3.0694,-3.0694,-3.068,-3.0672,-3.0672,-3.0567,-3.0472,-3.037,-3.0298,-3.0194,-3.9157,-3.9606,-3.9799,-4.0092,-4.0034,-3.99,-3.99,-3.9286,-3.869,-3.869,-3.7723,-3.7249,-3.8462,-3.7704,-3.7542,0.0,0.0,0.0,-3.9786,-4.0639,-4.1321,0.0,-4.2886,0.0,-4.3512,-4.4345,-4.4706,-4.427,-4.3777,-4.3512,-4.3512,-4.3512,-4.3341,-4.2981,-4.2155,-4.1359,-4.0639,-4.0224,-4.001,-4.001,-4.0158,-4.0404,-4.0786,-4.0918,-4.1219,-4.164,-4.1772,-4.1847,-4.1874,-4.1487,-4.1332,-4.1293,-4.0951,-4.0797,-4.0797,-4.0797,-4.0797,-4.0855,-4.1313,-4.228,-4.3227,-4.2725,-4.3498,-4.4439,-4.3556,-4.306,-4.2878,-4.327,-4.2823,-4.2184,-4.2123,-4.0848,-3.9468,-3.8981,-3.7621,-3.6423,-3.6423,-3.6158,-3.5901,-3.5956,-3.5987,-3.5992,-3.5996,-3.5996,-3.5996,-3.6008,-3.6005,-3.598,-3.5942,-3.5949,-3.5942,-3.5942,-3.5914,-3.5902,-3.5906,-3.5898,-3.5502,-3.4605,-3.3751,-3.2905,-3.2046,-3.1156,-3.0694,-3.0694,-3.0694,-3.0694,-3.0694,-3.0633,-3.0558,-3.0477,-3.035,-3.026,-3.993,-3.992,-3.9615,-4.0205,-4.004,-3.9743,-3.9694,-3.9031,-3.8418,-3.8355,0.0,-3.6528,-3.8216,-3.7249,-3.7011,-3.9502,0.0,-3.8993,-3.9786,-4.0639,-4.1503,-4.2287,-4.317,-4.4023,-4.4819,-4.4895,-4.4895,-4.4895,-4.4895,-4.4895,-4.4895,-4.4895,-4.4535,-4.3739,-4.2848,-4.1643,-4.0089,-3.9957,-3.99,-3.99,-4.0153,-4.0633,-4.1386,-4.1628,-4.2197,-4.3028,-4.3044,-4.3135,-4.318,-4.2447,-4.2144,-4.2067,-4.1274,-4.0971,-4.0951,-4.0835,-4.0797,-4.0816,-4.0913,-4.1912,-4.3131,-4.3131,-4.3808,-4.4439,-4.3556,-4.2763,-4.237,-4.3291,-4.2947,-4.2491,-4.3418,-4.2332,-4.0999,-4.0984,-3.9081,-3.7253,-3.7269,-3.6634,-3.606,-3.6062,-3.6033,-3.5987,-3.5988,-3.5988,-3.5992,-3.5996,-3.5995,-3.5994,-3.6002,-3.5996,-3.5992,-3.5992,-3.5941,-3.591,-3.5908,-3.5906,-3.558,-3.4812,-3.3944,-3.3083,-3.2202,-3.1331,-3.083,-3.0694,-3.0694,-3.0694,-3.0694,-3.0641,-3.0608,-3.0595,-3.0419,-3.034,-3.9345,-3.9419,-3.9351,-3.9474,-3.9248,-3.8923,-3.865,-3.7783,0.0,0.0,-3.5716,-3.5567,-3.7304,-3.6851,-3.7011,-3.9502,-3.921,-3.8993,-3.9786,-4.0639,-4.1503,0.0,-4.317,-4.4023,-4.4819,-4.4895,0.0,-4.4895,-4.4895,-4.4895,-4.4895,-4.4895,-4.4535,-4.3739,-4.2848,-4.1927,-4.098,-4.026,-3.99,-3.9919,-4.0653,-4.1081,-4.1263,-4.2062,-4.2525,-4.2698,-4.2794,-4.2868,-4.2885,-4.2895,-4.2923,-4.2834,-4.2085,-4.1796,-4.1699,-4.1048,-4.0797,-4.0893,-4.1564,-4.197,-4.2222,-4.2222,-4.3305,-4.4439,-4.3556,-4.3189,-4.3266,-4.415,-4.3802,-4.3379,-4.425,-4.2703,-4.0931,-4.0912,-3.9474,-3.8095,-3.8095,-3.7463,-3.6901,-3.6963,-3.6392,-3.5921,-3.5924,-3.5929,-3.5936,-3.5992,-3.5993,-3.5994,-3.5995,-3.599,-3.5992,-3.5992,-3.5989,-3.5963,-3.5908,-3.5899,-3.5838,-3.5671,-3.4863,-3.399,-3.3118,-3.224,-3.1448,-3.0713,-3.0694,-3.0694,-3.0694,-3.0683,-3.0653,-3.06,-3.0554,-3.0487,-3.9099,-3.9084,-3.8869,-3.9261,-3.8843,-3.8265,-3.8,0.0,0.0,0.0,-3.5241,-3.5298,-3.6939,-3.6675,0.0,-3.9388,-3.9123,-3.8899,-3.9775,-4.0197,0.0,-4.1662,-4.2507,-4.336,-4.4194,-4.4649,-4.4858,-4.4796,-4.4802,-4.4821,-4.4895,-4.4895,-4.4535,-4.3739,-4.3303,-4.2678,-4.1832,-4.1416,-4.1188,-4.1207,-4.1624,-4.2071,-4.2526,-4.2967,-4.3455,-4.3952,-4.4025,-4.4087,-4.4125,-4.3777,-4.3611,-4.3543,-4.2736,-4.2202,-4.1856,-4.1451,-4.1113,-4.0855,-4.1235,-4.1641,-4.1932,-4.1506,-4.2222,-4.3092,-4.2241,-4.199,-4.2164,-4.3015,-4.2976,-4.2872,-4.38,-4.2782,-4.1518,-4.1523,-4.0184,-3.8802,-3.8399,-3.8026,-3.7789,-3.7826,-3.7144,-3.6576,-3.6577,-3.6209,-3.591,-3.5936,-3.5958,-3.5963,-3.5991,-3.5996,-3.5993,-3.6008,-3.5999,-3.5989,-3.5942,-3.5914,-3.5897,-3.5894,-3.5084,-3.4218,-3.3345,-3.2465,-3.1584,-3.0713,-3.0694,-3.0694,-3.0694,-3.0694,-3.068,-3.0649,-3.0617,-3.0563,-3.8578,-3.8449,-3.8152,-3.8726,-3.8096,-3.7276,-3.704,-3.6226,0.0,0.0,-3.4827,-3.5068,-3.6714,-3.6584,-3.6985,0.0,-3.9096,-3.8931,-3.9698,-3.9717,-4.0014,0.0,-4.1668,0.0,-4.3503,-4.4184,0.0,-4.4653,-4.4659,-4.4712,-4.4815,-4.4808,-4.4525,-4.39,-4.3736,-4.3331,-4.265,-4.2484,-4.2401,-4.2401,-4.2602,-4.3038,-4.3701,-4.3848,-4.4367,-4.5136,-4.5114,-4.5173,-4.5244,-4.4604,-4.4327,-4.426,-4.3407,-4.2646,-4.2016,-4.1824,-4.133,-4.0759,-4.0952,-4.1332,-4.1699,-4.1409,-4.1641,-4.1854,-4.1048,-4.0797,-4.0971,-4.1777,-4.2009,-4.2254,-4.3375,-4.2877,-4.2044,-4.1862,-4.079,-3.9608,-3.896,-3.8738,-3.8634,-3.8673,-3.802,-3.7458,-3.7487,-3.6766,-3.6172,-3.6181,-3.6029,-3.5921,-3.5961,-3.5985,-3.5971,-3.5976,-3.5992,-3.6003,-3.6,-3.595,-3.5919,-3.5908,-3.5268,-3.4399,-3.3342,-3.2645,-3.1792,-3.0733,-3.0707,-3.0704,-3.0704,-3.0704,-3.0701,-3.069,-3.0645,-3.0621,-3.7196,-3.7114,-3.7124,-3.712,-3.6274,-3.538,-3.5126,0.0,0.0,-3.3963,-3.3837,-3.441,-3.6366,-3.6495,-3.6996,-3.9177,-3.9301,-3.9231,-3.9495,-3.9539,-3.9858,-4.0729,0.0,0.0,-4.3184,-4.3391,-4.3748,-4.4453,-4.4528,-4.451,-4.4542,-4.4542,-4.4505,-4.443,-4.3836,-4.3479,-4.3404,-4.2721,-4.2401,-4.2401,-4.3208,-4.3625,-4.372,-4.4336,-4.4707,-4.4919,-4.4796,-4.4821,-4.4948,-4.5052,-4.5099,-4.5025,-4.4269,-4.3511,-4.2696,-4.192,-4.116,-4.0641,-4.1431,-4.1368,-4.1145,-4.2609,-4.2589,-4.1854,-4.1048,-4.0797,-4.0971,-4.1777,-4.2009,-4.2376,-4.4066,-4.3253,-4.1828,-4.1093,-4.0803,-4.0666,-4.0583,-3.9959,-3.9432,-3.956,-3.8875,-3.8305,-3.8377,-3.7662,-3.708,-3.7083,-3.6401,-3.5897,-3.5902,-3.591,-3.5907,-3.5908,-3.5967,-3.5995,-3.5994,-3.5993,-3.5966,-3.589,-3.5825,-3.5034,-3.3375,-3.3228,-3.2424,-3.0813,-3.0731,-3.0697,-3.0697,-3.0697,-3.0704,-3.0694,-3.0687,-3.0687,-3.5845,-3.5905,-3.5921,-3.5871,-3.5297,-3.4648,-3.4425,0.0,-3.3826,-3.3477,-3.357,-3.4077,-3.5335,-3.5956,-3.6776,-3.8242,-3.8821,0.0,-3.9458,0.0,-3.9527,-3.9971,-4.0484,0.0,0.0,0.0,-4.3605,-4.4331,-4.4266,-4.4188,-4.4188,-4.4383,-4.4501,-4.4501,-4.4237,-4.4148,-4.4208,-4.3843,-4.3699,-4.3775,-4.3561,-4.3466,-4.3447,-4.3188,-4.3395,-4.3937,-4.3963,-4.4279,-4.4783,-4.4943,-4.5014,-4.4995,-4.4703,-4.3819,-4.267,-4.2335,-4.1416,-4.0422,-4.0787,-4.1061,-4.1397,-4.2155,-4.2524,-4.2609,-4.2376,-4.1932,-4.1583,-4.1912,-4.2009,-4.2048,-4.226,-4.1796,-4.1203,-4.0874,-4.0797,-4.0803,-4.0808,-4.0533,-4.0294,-4.0359,-3.9688,-3.9131,-3.9167,-3.8432,-3.77,-3.7219,-3.6833,-3.645,-3.5964,-3.5904,-3.5892,-3.5892,-3.5956,-3.5992,-3.5995,-3.5995,-3.5996,-3.5955,-3.5924,-3.5366,-3.4191,-3.3604,-3.2761,-3.1602,-3.1045,-3.0767,-3.0767,-3.0767,-3.0734,-3.0704,-3.0704,-3.0691,-3.4755,-3.4865,-3.4865,-3.4865,-3.4408,-3.393,0.0,0.0,-3.3342,-3.3144,-3.3302,-3.3712,-3.4553,-3.5221,-3.6091,-3.7409,-3.8087,-3.8664,-3.9221,-3.9272,0.0,0.0,0.0,-4.0993,-4.1804,-4.2871,-4.3693,-4.417,-4.4067,-4.4005,-4.4005,-4.4218,-4.4354,-4.4354,-4.4416,-4.4501,-4.4578,-4.4542,-4.4556,-4.4627,-4.3743,-4.3294,-4.3275,-4.2366,-4.2441,-4.3308,-4.3342,-4.3873,-4.4712,-4.4796,-4.4858,-4.4895,-4.4895,-4.3923,-4.2533,-4.2533,-4.1551,-4.0239,-4.0239,-4.0832,-4.1662,-4.2003,-4.2701,-4.3467,-4.3813,-4.3192,-4.2338,-4.2067,-4.2183,-4.2183,-4.1371,-4.1145,-4.1087,-4.0855,-4.0797,-4.0797,-4.0797,-4.0788,-4.0809,-4.0807,-4.0334,-3.9956,-3.999,-3.9252,-3.8406,-3.7584,-3.7257,-3.6805,-3.6008,-3.5897,-3.59,-3.5908,-3.5937,-3.5979,-3.5965,-3.5965,-3.5987,-3.5991,-3.5957,-3.5564,-3.4725,-3.4043,-3.3188,-3.2119,-3.1501,-3.1063,-3.0808,-3.0798,-3.0779,-3.0734,-3.0734,-3.0719,-3.4115,-3.4099,-3.4099,-3.4099,-3.3508,-3.2918,0.0,-3.29,-3.2916,-3.29,-3.2916,-3.3245,-3.4305,-3.4293,-3.4796,-3.6877,-3.721,-3.7595,-3.8648,-3.8993,0.0,0.0,0.0,-4.0731,-4.153,-4.3039,-4.3986,-4.4005,-4.4005,-4.4005,-4.4005,-4.4005,-4.4005,-4.4005,-4.4192,-4.43,-4.43,-4.443,-4.4501,-4.4482,-4.3688,-4.3294,-4.3275,-4.2258,-4.2347,-4.3294,-4.31,-4.3647,-4.4712,-4.4712,-4.477,-4.4895,-4.4895,-4.3891,-4.2412,-4.2412,-4.1442,-4.0101,-4.0101,-4.0768,-4.174,-4.2601,-4.3425,-4.425,-4.5122,-4.4405,-4.3111,-4.2241,-4.2628,-4.3092,-4.2202,-4.199,-4.1796,-4.099,-4.0797,-4.0797,-4.0797,-4.0797,-4.0796,-4.0796,-4.0787,-4.0809,-4.0878,-4.0169,-3.9291,-3.8425,-3.7605,-3.6806,-3.5995,-3.5901,-3.5895,-3.5906,-3.5892,-3.5907,-3.59,-3.5901,-3.5934,-3.5991,-3.5991,-3.5619,-3.4739,-3.4628,-3.3808,-3.2124,-3.2089,-3.1651,-3.081,-3.0791,-3.0806,-3.0799,-3.0799,-3.0767,-3.3293,-3.3293,-3.3293,-3.3293,-3.3096,-3.29,-3.29,-3.29,-3.29,-3.29,-3.29,-3.3003,-3.3333,-3.3788,-3.4373,-3.5209,-3.6391,-3.7378,0.0,0.0,0.0,-3.8892,-3.9458,-4.0173,-4.0983,-4.2009,-4.316,-4.445,-4.4044,-4.4071,-4.4859,-4.4321,-4.4005,-4.4005,-4.4051,-4.4162,-4.43,-4.4207,-4.4237,-4.434,-4.3415,-4.2667,-4.2122,-4.1227,-4.1315,-4.2141,-4.216,-4.303,-4.4426,-4.4542,-4.4578,-4.4576,-4.4011,-4.3177,-4.2195,-4.1659,-4.0814,-3.9967,-3.9967,-4.0568,-4.1392,-4.1752,-4.2823,-4.3922,-4.3742,-4.3757,-4.3805,-4.3617,-4.3436,-4.3247,-4.2957,-4.2454,-4.1796,-4.099,-4.0797,-4.0797,-4.0797,-4.0797,-4.0803,-4.0802,-4.0808,-4.0814,-4.0831,-4.0599,-4.0126,-3.9252,-3.8447,-3.7632,-3.6825,-3.6208,-3.5853,-3.5895,-3.5898,-3.5894,-3.5904,-3.5909,-3.5914,-3.5925,-3.5924,-3.5817,-3.5522,-3.4971,-3.4429,-3.39,-3.3298,-3.2851,-3.2577,-3.2576,-3.258,-3.2565,-3.1963,-3.1678,0.0,-3.29,-3.29,-3.29,-3.29,0.0,-3.29,-3.29,-3.29,-3.29,-3.29,-3.29,-3.29,-3.3311,-3.3806,-3.4271,-3.5607,-3.6752,0.0,0.0,0.0,-3.9074,0.0,0.0,-4.0714,-4.1243,-4.2041,-4.3203,-4.2835,-4.2848,-4.3564,-4.3183,-4.2952,-4.2952,-4.3624,-4.4051,-4.4177,-4.4067,-4.4067,-4.4158,-4.2951,-4.2073,-4.1553,-4.042,-4.0531,-4.1605,-4.1688,-4.2692,0.0,-4.4387,-4.4458,-4.4444,-4.3951,-4.3104,-4.2059,-4.1563,-4.0688,-3.9747,-3.9747,-4.0533,-4.152,-4.1653,-4.287,-4.42,-4.3774,-4.3866,-4.4182,-4.46,-4.4185,-4.3551,-4.3287,-4.2579,-4.1724,-4.0978,-4.0797,-4.0797,-4.0797,-4.0797,-4.0797,-4.0797,-4.0797,-4.0797,-4.0797,-4.0797,-4.0499,-3.9625,-3.9069,-3.8334,-3.7201,-3.6584,-3.6155,-3.5892,-3.5857,-3.5875,-3.5911,-3.5903,-3.5908,-3.5908,-3.5892,-3.5906,-3.5906,-3.5414,-3.4992,-3.4662,-3.4141,-3.3737,-3.3392,-3.3398,-3.3405,-3.3383,-3.2845,-3.2582,0.0,-3.29,0.0,0.0,0.0,0.0,-3.29,-3.29,0.0,-3.29,-3.29,-3.29,-3.29,-3.29,-3.315,-3.3901,-3.4864,0.0,0.0,-3.7675,0.0,0.0,-3.9496,-3.9788,-4.0645,-4.0698,-4.0716,-4.0843,-4.0788,-4.0805,-4.0877,-4.1073,-4.1167,-4.1167,-4.2865,-4.3788,-4.3838,-4.3804,-4.3804,-4.3819,-4.2314,-4.159,-4.1553,-3.9918,-4.0067,-4.159,-4.1534,-4.2515,-4.4192,-4.4192,-4.4302,-4.4454,-4.4398,-4.3436,-4.2074,-4.1942,-4.091,-3.9577,-3.9521,-4.0566,-4.195,-4.2191,-4.341,-4.4795,-4.4852,-4.4557,-4.4346,-4.516,-4.4815,-4.4028,-4.3286,-4.2483,-4.1686,-4.0939,-4.0778,-4.0784,-4.0784,-4.079,-4.0797,-4.0797,-4.0797,-4.0797,-4.0797,-4.0797,-4.0526,-3.9713,-3.9539,-3.8938,-3.7374,-3.7075,-3.6707,-3.5961,-3.5829,-3.583,-3.5895,-3.5908,-3.5908,-3.5908,-3.5908,-3.5908,-3.5908,-3.5908,-3.5519,-3.4703,-3.4751,-3.4387,-3.3587,-3.3571,-3.3578,-3.3577,-3.3516,-3.349,-3.282,0.0,-3.29,-3.29,-3.29,-3.29,0.0,-3.29,-3.29,-3.29,0.0,-3.29,-3.29,-3.29,-3.2953,-3.315,0.0,-3.502,-3.578,0.0,0.0,-3.8923,-3.8438,-3.86,-3.9982,-3.9605,-3.9877,-4.1288,-4.0836,-4.0853,-4.1662,-4.12,-4.0904,-4.0904,-4.1321,-4.1754,-4.2166,-4.1961,-4.1961,-4.2166,-4.1776,-4.159,-4.1571,-4.055,-4.0643,-4.1571,-4.0954,-4.1619,-4.3155,-4.3155,-4.3524,-4.4057,-4.3439,-4.3013,-4.2609,-4.1389,-4.0744,-4.0403,-3.9727,-4.0178,-4.1298,-4.2545,-4.3248,-4.3708,-4.4385,-4.4756,-4.4989,-4.5199,-4.5177,-4.4758,-4.3317,-4.2808,-4.2279,-4.0776,-4.0508,-4.0566,-4.0566,-4.07,-4.0797,-4.0797,-4.0797,-4.0797,-4.0797,-4.0797,-4.0739,-4.0526,-3.9926,-3.9352,-3.8957,-3.7757,-3.6864,-3.6721,-3.613,-3.5745,-3.5826,-3.5872,-3.5905,-3.5908,-3.5908,-3.5908,-3.5908,-3.5908,-3.5791,-3.5597,-3.5607,-3.5511,-3.5306,-3.5315,-3.5345,-3.5371,-3.4706,-3.439,-3.2786,-3.29,-3.29,-3.29,-3.29,-3.29,-3.29,0.0,0.0,0.0,0.0,0.0,0.0,0.0,0.0,0.0,-3.3707,0.0,0.0,0.0,-3.7918,-3.8202,-3.788,-3.7934,-3.8754,-3.8487,-3.8687,-3.9696,-3.9373,-3.9374,-3.995,-3.9692,-3.9524,-3.9524,-3.9524,-4.0055,-4.1214,-4.1087,-4.1087,-4.123,-4.1357,-4.1157,-4.0677,-4.0481,-4.0766,-4.1385,-4.1082,-4.185,-4.3355,-4.3355,-4.3615,-4.3968,-4.3522,-4.3159,-4.2805,-4.193,-4.1185,-4.0614,-4.0488,-4.1047,-4.2018,-4.3292,-4.3746,-4.3881,-4.435,-4.4421,-4.4409,-4.4757,-4.4421,-4.373,-4.2877,-4.2441,-4.1886,-4.0598,-4.0359,-4.0407,-4.0407,-4.0481,-4.0571,-4.0571,-4.0626,-4.0661,-4.0661,-4.0746,-4.0797,-4.0797,-4.041,-3.9946,-3.9559,-3.8688,-3.7804,-3.7038,-3.6521,-3.6115,-3.578,-3.5791,-3.5823,-3.584,-3.5843,-3.5843,-3.5843,-3.5879,-3.5894,-3.5908,-3.5907,-3.5906,-3.5901,-3.5934,-3.5964,-3.5991,-3.5526,-3.5293,-3.2688,-3.2753,-3.2753,-3.2868,-3.29,-3.29,-3.29,0.0,0.0,0.0,0.0,0.0,0.0,-3.29,0.0,0.0,0.0,0.0,-3.6024,-3.7006,-3.7648,-3.7773,-3.7684,-3.7648,-3.7773,-3.7684,-3.7595,-3.7595,-3.7595,-3.7595,-3.7595,-3.7828,-3.8004,-3.813,-3.813,-3.8938,-4.0649,-4.0591,-4.0571,-4.0621,-4.0948,-4.0712,-3.9966,-4.029,-4.0754,-4.1319,-4.1431,-4.2319,-4.3691,-4.3722,-4.3831,-4.3939,-4.3971,-4.3578,-4.2965,-4.2853,-4.1943,-4.0861,-4.1553,-4.2307,-4.3098,-4.3957,-4.4325,-4.4411,-4.4411,-4.3863,-4.3376,-4.4051,-4.3235,-4.2196,-4.2332,-4.186,-4.1138,-4.0414,-4.0257,-4.0274,-4.0274,-4.0292,-4.0309,-4.0309,-4.0391,-4.0462,-4.0462,-4.0607,-4.0726,-4.0726,-4.0739,-4.0481,-3.9747,-3.9566,-3.894,-3.7444,-3.7058,-3.661,-3.5941,-3.5771,-3.5713,-3.5773,-3.5786,-3.5795,-3.5795,-3.5853,-3.5885,-3.5875,-3.5895,-3.5888,-3.5886,-3.5956,-3.5985,-3.5983,-3.5987,-3.5988,-3.2179,-3.2144,-3.2039,-3.2737,-3.29,-3.29,-3.29,0.0,0.0,0.0,0.0,0.0,0.0,-3.29,-3.29,0.0,0.0,-3.5097,0.0,-3.6649,-3.7844,-3.854,-3.8005,-3.788,-3.8558,-3.7987,-3.7595,-3.7595,-3.7595,-3.7595,-3.7595,-3.7631,-3.7971,-3.865,-3.8668,-3.9134,-4.0031,-3.9626,-3.953,-3.9698,-4.0425,-4.1045,-4.152,-4.0932,-4.1059,-4.1754,-4.1131,-4.1367,-4.2243,-4.2533,-4.3056,-4.3679,-4.3908,-4.3912,-4.3726,-4.3039,-4.263,-4.2445,-4.2575,-4.2701,-4.2973,-4.3791,-4.4067,-4.4082,-4.4082,-4.3505,-4.2891,-4.3022,-4.2553,-4.2045,-4.219,-4.1647,-4.0893,-4.0144,-4.005,-4.0139,-4.0139,-4.0221,-4.0309,-4.0309,-4.0326,-4.0334,-4.0334,-4.0351,-4.0386,-4.0386,-4.0473,-4.0494,-4.0359,-3.985,-3.9404,-3.9133,-3.7773,-3.6845,-3.674,-3.6082,-3.5701,-3.5711,-3.577,-3.5795,-3.5795,-3.5803,-3.583,-3.5815,-3.5859,-3.5866,-3.583,-3.588,-3.5916,-3.5914,-3.5929,-3.5928,-3.1822,-3.1841,-3.1787,-3.2162,-3.2403,-3.2589,-3.2589,-3.2737,0.0,0.0,0.0,0.0,0.0,0.0,-3.3043,-3.3473,0.0,-3.5364,-3.5792,-3.6845,-3.7738,-3.8112,-3.7845,-3.7755,-3.8112,-3.7827,-3.7791,-3.8219,-3.8255,-3.8415,-3.8826,-3.8843,-3.9022,-3.9377,-3.9377,-3.9556,-3.9895,-4.012,-4.0036,-3.9734,-4.0709,-4.1053,-4.0834,-4.1197,-4.1487,-4.1724,-4.1468,-4.183,-4.2595,-4.2755,-4.3044,-4.3391,-4.3512,-4.3563,-4.3488,-4.2825,-4.2949,-4.3392,-4.2946,-4.3076,-4.3503,-4.3875,-4.4005,-4.4005,-4.4005,-4.3448,-4.2797,-4.2797,-4.2048,-4.125,-4.1321,-4.0779,-4.0113,-3.9864,-3.984,-3.9897,-3.9969,-4.004,-4.0081,-4.0081,-4.0148,-4.0185,-4.0185,-4.0257,-4.0309,-4.0309,-4.0359,-4.0391,-4.0391,-4.0191,-3.9875,-3.9431,-3.8749,-3.7928,-3.698,-3.6555,-3.6168,-3.5723,-3.5732,-3.5752,-3.5756,-3.576,-3.575,-3.5795,-3.5838,-3.5838,-3.5795,-3.5834,-3.5845,-3.585,-3.585,-3.5878,-3.1452,-3.149,-3.1433,-3.1528,0.0,-3.2179,-3.2283,-3.2538,0.0,0.0,0.0,0.0,0.0,-3.29,0.0,-3.3972,-3.4722,-3.5472,-3.6292,-3.7077,-3.7595,-3.7595,-3.7773,-3.788,-3.788,-3.8041,-3.8397,-3.9022,-3.9056,-3.9288,-3.9859,-3.9895,-3.9984,-4.0182,-4.018,-4.0271,-4.0467,-4.1074,-4.0985,-4.0199,-4.1257,-4.131,-4.0485,-4.152,-4.1903,-4.1768,-4.1922,-4.2377,-4.2994,-4.3068,-4.3087,-4.3087,-4.316,-4.3214,-4.3141,-4.2748,-4.3115,-4.3719,-4.3109,-4.3344,-4.391,-4.391,-4.3958,-4.4005,-4.4005,-4.3578,-4.3002,-4.263,-4.1715,-4.0807,-4.0643,-4.0031,-3.9489,-3.9623,-3.9658,-3.9693,-3.9815,-3.9848,-3.9848,-3.9889,-3.9948,-4.0011,-4.0011,-4.0072,-4.0129,-4.0148,-4.0184,-4.0211,-4.0257,-4.0375,-4.0215,-3.96,-3.9448,-3.8788,-3.7231,-3.6947,-3.6598,-3.596,-3.5789,-3.5706,-3.5708,-3.5708,-3.5728,-3.5784,-3.5773,-3.5773,-3.5784,-3.5786,-3.5791,-3.5782,-3.5791,-3.5834,-3.1024,-3.0882,-3.0675,-3.1044,-3.1451,-3.1841,-3.2197,-3.2318,0.0,-3.2818,0.0,0.0,0.0,-3.29,-3.3168,-3.3972,-3.4722,-3.5472,-3.6292,-3.7077,-3.7595,-3.7595,-3.8255,-3.8719,-3.8719,-3.9324,-3.9752,-3.9805,-3.9805,-3.9841,-3.9895,-3.9895,-4.0253,-4.0985,-4.1002,-4.1359,-4.2129,-4.2183,-4.1805,-4.102,-4.1864,-4.2221,-4.2126,-4.2241,-4.2259,-4.2239,-4.2259,-4.2315,-4.2371,-4.2634,-4.275,-4.2769,-4.3087,-4.3214,-4.3196,-4.316,-4.3178,-4.325,-4.3195,-4.3372,-4.3631,-4.3631,-4.3795,-4.4005,-4.4005,-4.3968,-4.3596,-4.211,-4.1605,-4.1388,-4.0765,-3.9965,-3.935,-3.9471,-3.9508,-3.9544,-3.9682,-3.9717,-3.9739,-3.9878,-3.9815,-3.9739,-3.9739,-3.9628,-3.9604,-3.9721,-3.9846,-3.9963,-4.0101,-4.023,-4.0279,-4.0221,-3.9569,-3.8756,-3.7808,-3.7115,-3.6697,-3.662,-3.6039,-3.5709,-3.569,-3.5695,-3.5695,-3.572,-3.5708,-3.5708,-3.572,-3.5775,-3.5773,-3.5713,-3.5778,-3.5799,-3.0695,-3.0613,-3.0531,-3.0679,-3.0841,0.0,0.0,-3.1931,-3.2109,-3.277,-3.2705,0.0,0.0,0.0,-3.3901,-3.4668,-3.5435,-3.6238,-3.7041,-3.7416,-3.7595,-3.7595,-3.788,-3.8255,-3.8735,-3.9058,-3.9611,-4.0574,-4.0646,-4.086,-4.1359,-4.1395,-4.152,-4.1841,-4.1841,-4.1984,-4.2308,-4.2308,-4.2144,-4.1841,-4.2144,-4.2308,-4.2308,-4.2308,-4.2308,-4.2308,-4.2308,-4.2308,-4.2308,-4.2412,-4.2434,-4.2454,-4.2591,-4.2729,-4.2883,-4.2883,-4.3013,-4.3214,-4.3214,-4.3268,-4.3357,-4.3357,-4.3427,-4.3495,-4.3495,-4.3264,-4.2767,-4.1659,-4.1115,-4.0657,-3.9858,-3.9425,-3.9205,-3.935,-3.9376,-3.9414,-3.9551,-3.9587,-3.9599,-3.9635,-3.9611,-3.9587,-3.9587,-3.952,-3.9526,-3.9575,-3.9686,-3.9799,-3.9843,-4.0032,-4.0186,-4.0186,-3.9531,-3.898,-3.8646,-3.787,-3.7145,-3.6615,-3.6022,-3.5704,-3.5704,-3.5614,-3.5584,-3.5584,-3.5483,-3.5483,-3.5584,-3.5593,-3.5646,-3.5697,-3.5737,-3.5742,-3.0422,-3.0464,-3.0489,-3.0485,0.0,0.0,-3.1357,-3.1509,-3.1695,-3.2386,-3.23,-3.2319,-3.2974,0.0,-3.4283,-3.54,-3.6042,-3.6684,-3.7488,-3.7595,-3.7595,-3.7595,-3.7827,-3.8201,-3.8754,-3.9003,-3.9574,-4.0646,-4.0967,-4.1341,-4.1877,-4.2165,-4.2308,-4.2308,-4.2308,-4.2308,-4.2308,-4.2308,-4.2308,-4.2308,-4.2308,-4.2308,-4.2308,-4.2308,-4.2308,-4.2308,-4.2308,-4.2308,-4.2308,-4.2308,-4.2308,-4.2308,-4.2308,-4.2412,-4.2555,-4.2555,-4.271,-4.2919,-4.2919,-4.2975,-4.3032,-4.3032,-4.3123,-4.3214,-4.3214,-4.2772,-4.2101,-4.1311,-4.063,-3.9971,-3.9197,-3.9045,-3.9129,-3.9205,-3.9232,-3.9272,-3.9414,-3.9439,-3.9452,-3.9483,-3.9477,-3.9439,-3.9439,-3.9395,-3.9401,-3.9439,-3.9508,-3.9599,-3.9635,-3.9799,-3.9899,-3.9899,-3.9498,-3.9233,-3.9233,-3.8517,-3.7809,-3.7172,-3.6644,-3.6132,-3.5598,-3.5496,-3.5437,-3.5437,-3.5352,-3.5352,-3.5437,-3.5437,-3.547,-3.5578,-3.5578,-3.5601,-3.0253,-3.0338,-3.0468,0.0,0.0,0.0,-3.1004,-3.1103,-3.122,-3.1603,-3.1712,-3.2066,-3.3283,-3.3512,-3.4147,-3.6096,-3.6399,-3.6684,-3.7488,-3.7595,-3.7595,-3.7595,-3.829,-3.8789,-3.8808,-3.9449,-3.9877,-3.9895,-4.0646,-4.1092,-4.1092,-4.1841,-4.229,-4.229,-4.229,-4.229,-4.229,-4.229,-4.229,-4.229,-4.229,-4.229,-4.2308,-4.2308,-4.2308,-4.2308,-4.2308,-4.2308,-4.2308,-4.2308,-4.2308,-4.2308,-4.2308,-4.2308,-4.2308,-4.2308,-4.2308,-4.2308,-4.2308,-4.2474,-4.2711,-4.2711,-4.292,-4.3178,-4.3178,-4.2631,-4.1809,-4.1007,-4.0186,-3.9431,-3.8912,-3.8913,-3.9082,-3.9101,-3.9101,-3.9142,-3.9272,-3.9298,-3.9337,-3.9458,-3.9401,-3.9298,-3.9298,-3.9178,-3.9156,-3.9272,-3.9298,-3.935,-3.9471,-3.9514,-3.9514,-3.9514,-3.9514,-3.9514,-3.9514,-3.9017,-3.8641,-3.8504,-3.807,-3.7056,-3.5385,-3.5308,-3.5308,-3.5308,-3.5308,-3.5308,-3.5308,-3.5308,-3.5308,-3.5308,-3.5308,-3.5374,-3.0231,-3.0338,0.0,-3.0417,0.0,0.0,0.0,-3.0679,0.0,0.0,-3.2182,-3.3071,-3.3441,-3.4606,-3.5723,-3.631,-3.6863,-3.7345,-3.7577,-3.7595,-3.7595,-3.7595,-3.7809,-3.8183,-3.8754,-3.8985,-3.9342,-3.9859,-4.0109,-4.0271,-4.0271,-4.0485,-4.061,-4.061,-4.061,-4.061,-4.061,-4.061,-4.061,-4.061,-4.061,-4.1199,-4.2308,-4.2308,-4.2308,-4.2308,-4.2308,-4.2308,-4.2308,-4.2308,-4.2308,-4.2308,-4.2308,-4.2308,-4.2308,-4.2308,-4.2308,-4.2308,-4.2308,-4.2351,-4.2432,-4.2432,-4.2492,-4.2571,-4.2571,-4.1375,-3.9967,-3.975,-3.8416,-3.704,-3.6863,-3.6864,-3.729,-3.8753,-3.9101,-3.9115,-3.9137,-3.917,-3.9165,-3.9205,-3.9197,-3.917,-3.917,-3.9129,-3.9115,-3.9137,-3.9232,-3.935,-3.9471,-3.9514,-3.9514,-3.9514,-3.9514,-3.9514,-3.9514,-3.9342,-3.9001,-3.839,-3.8241,-3.7524,-3.6126,-3.6061,-3.5785,-3.5174,-3.507,-3.5062,-3.5163,-3.5163,-3.5203,-3.5308,-3.5308,-3.533,-3.0119,-3.0269,0.0,-3.0338,-3.0375,-3.0417,-3.0443,0.0,0.0,0.0,-3.2012,-3.3163,-3.3661,-3.5063,-3.6255,-3.6538,-3.7017,-3.7262,-3.7073,-3.7054,-3.7111,-3.73,-3.7319,-3.7588,-3.8254,-3.8326,-3.8504,-3.895,-3.9289,-3.9449,-3.9449,-3.9734,-3.9895,-3.9895,-3.9895,-3.9895,-3.9895,-3.9895,-3.9895,-3.9895,-3.9895,-4.0414,-4.1359,-4.168,-4.2004,-4.2308,-4.2308,-4.2308,-4.2308,-4.2308,-4.2308,-4.2308,-4.2308,-4.2308,-4.2308,-4.2308,-4.2308,-4.2308,-4.2308,-4.2308,-4.2308,-4.2308,-4.2073,-4.1752,-4.1431,-4.0029,-3.8492,-3.8187,-3.694,-3.5711,-3.582,-3.5836,-3.6282,-3.8079,-3.8507,-3.8614,-3.9013,-3.9101,-3.9101,-3.9101,-3.9101,-3.9101,-3.9101,-3.9101,-3.9101,-3.9101,-3.9183,-3.9245,-3.9337,-3.935,-3.935,-3.935,-3.935,-3.935,-3.935,-3.9401,-3.9195,-3.8645,-3.8727,-3.8263,-3.7112,-3.6852,-3.6321,-3.5467,-3.5429,-3.5278,-3.4982,-3.5,-3.5044,-3.5107,-3.5122,-3.5171,-2.988,-3.0098,0.0,-3.0227,-3.0274,0.0,-3.038,-3.0443,-3.0506,-3.0506,0.0,-3.2726,-3.381,-3.5,-3.6055,-3.6718,-3.6841,-3.6701,-3.6256,-3.6194,-3.6357,-3.6801,-3.686,-3.7034,-3.7466,-3.7522,-3.7558,-3.7558,-3.8216,-3.8644,-3.8663,-3.9305,-3.9681,-3.9681,-3.9681,-3.9681,-3.9661,-3.9661,-3.9661,-3.9642,-3.9642,-3.9677,-3.9767,-4.0608,-4.1395,-4.2073,-4.2073,-4.2052,-4.2052,-4.2032,-4.2032,-4.2052,-4.2052,-4.2073,-4.2073,-4.2073,-4.2073,-4.2073,-4.2073,-4.2073,-4.2073,-4.2073,-4.1538,-4.0753,-4.0019,-3.8665,-3.7238,-3.6488,-3.5667,-3.504,-3.5287,-3.5351,-3.5677,-3.7004,-3.7378,-3.7727,-3.8706,-3.8934,-3.8952,-3.9027,-3.9045,-3.9045,-3.9045,-3.9045,-3.9045,-3.9045,-3.9045,-3.9045,-3.9045,-3.9045,-3.9045,-3.9045,-3.9045,-3.9045,-3.9073,-3.9178,-3.9205,-3.9115,-3.9337,-3.9077,-3.8226,-3.7629,-3.6917,-3.6115,-3.6211,-3.5824,-3.4891,-3.4944,-3.4906,-3.4778,-3.484,-3.4936,-2.9296,-2.976,0.0,0.0,-3.021,-3.0359,-3.0269,-3.038,-3.0506,-3.0506,-3.1918,-3.3211,-3.3384,-3.4892,-3.6146,-3.6253,-3.6333,-3.6316,-3.6215,-3.6194,-3.6253,-3.6357,-3.6557,-3.6696,-3.6814,-3.7009,-3.7126,-3.7126,-3.7302,-3.7448,-3.7619,-3.7761,-3.7926,-3.8094,-3.8076,-3.802,-3.785,-3.785,-3.7792,-3.7619,-3.7619,-3.7917,-3.8534,-3.9651,-4.0233,-4.0412,-4.0255,-4.0195,-4.0175,-4.0011,-4.0032,-4.0195,-4.0195,-4.0275,-4.0431,-4.0431,-4.0431,-4.0394,-4.0235,-4.0275,-4.0374,-4.0235,-3.9797,-3.9272,-3.9074,-3.7487,-3.5685,-3.5525,-3.4454,-3.3416,-3.348,-3.3478,-3.3773,-3.4896,-3.5778,-3.6585,-3.7421,-3.7619,-3.7802,-3.8428,-3.8556,-3.8556,-3.8556,-3.8556,-3.8556,-3.8556,-3.8556,-3.8556,-3.8556,-3.8556,-3.8556,-3.8556,-3.8556,-3.8634,-3.8848,-3.8892,-3.896,-3.9087,-3.9137,-3.909,-3.8882,-3.8359,-3.7648,-3.6791,-3.6806,-3.6423,-3.5573,-3.5595,-3.5276,-3.4645,-3.4666,-3.4678,-2.9051,0.0,0.0,-2.9951,0.0,-3.0189,-3.0124,-3.0231,-3.038,-3.0443,-3.1688,-3.2853,-3.3161,-3.4487,-3.5548,-3.5642,-3.5693,-3.5632,-3.5425,-3.538,-3.547,-3.5698,-3.5847,-3.6079,-3.6454,-3.6635,-3.6696,-3.6696,-3.6523,-3.6391,-3.6352,-3.6152,-3.6108,-3.6219,-3.6219,-3.6164,-3.607,-3.6404,-3.6524,-3.6427,-3.6814,-3.7101,-3.7344,-3.8889,-3.942,-3.9098,-3.9175,-3.9213,-3.9213,-3.9087,-3.921,-3.9458,-3.956,-3.96,-3.9618,-3.972,-3.9698,-3.9598,-3.9479,-3.9537,-3.9547,-3.9193,-3.8614,-3.7963,-3.7273,-3.5935,-3.4597,-3.4204,-3.3525,-3.29,-3.29,-3.29,-3.3039,-3.3593,-3.453,-3.5524,-3.6428,-3.6936,-3.732,-3.7742,-3.8143,-3.8399,-3.8399,-3.8399,-3.8399,-3.8399,-3.8399,-3.8399,-3.8399,-3.8399,-3.8399,-3.8399,-3.8399,-3.8465,-3.8606,-3.8606,-3.8713,-3.8931,-3.8844,-3.8873,-3.9087,-3.8733,-3.8212,-3.7542,-3.7596,-3.7183,-3.633,-3.6358,-3.5938,-3.5087,-3.5143,-3.4977,-2.8709,0.0,-2.938,-2.9864,-2.9995,0.0,-2.9995,-3.0103,-3.0231,-3.0354,-3.1237,-3.2177,-3.2777,-3.3702,-3.4472,-3.4804,-3.4875,-3.4801,-3.4554,-3.4497,-3.465,-3.5028,-3.5121,-3.5369,-3.5891,-3.5996,-3.5966,-3.5849,-3.5526,-3.522,-3.4985,-3.4648,-3.4488,-3.4525,-3.4525,-3.4506,-3.4486,-3.5079,-3.5374,-3.5335,-3.5998,-3.6113,-3.5782,-3.7457,-3.8066,-3.7814,-3.8112,-3.8217,-3.8217,-3.8195,-3.8408,-3.8762,-3.893,-3.8951,-3.8907,-3.909,-3.905,-3.8886,-3.8705,-3.8673,-3.8591,-3.7994,-3.7275,-3.6428,-3.5261,-3.4422,-3.3709,-3.2998,-3.2852,-3.29,-3.2868,-3.2884,-3.29,-3.29,-3.3544,-3.4449,-3.5457,-3.6212,-3.6742,-3.7014,-3.7723,-3.8252,-3.8252,-3.8252,-3.8252,-3.8252,-3.8252,-3.8252,-3.8252,-3.8252,-3.8252,-3.8252,-3.8252,-3.8285,-3.8334,-3.8334,-3.8465,-3.8713,-3.851,-3.8569,-3.8956,-3.8833,-3.8549,-3.8157,-3.8334,-3.7991,-3.7075,-3.7137,-3.6613,-3.5583,-3.5708,-3.5304,0.0,0.0,-2.925,0.0,-2.9968,-2.9995,0.0,0.0,-3.021,-3.021,-3.0952,-3.1566,-3.1556,-3.2187,-3.2889,-3.3408,-3.3554,-3.3831,-3.4415,-3.4497,-3.4521,-3.4578,-3.4811,-3.4728,-3.4218,-3.4359,-3.4223,-3.3587,-3.3478,-3.3512,-3.3662,-3.3601,-3.3656,-3.3842,-3.3842,-3.3759,-3.3571,-3.3673,-3.3641,-3.347,-3.3571,-3.3407,-3.3034,-3.3652,-3.4754,-3.6198,-3.6009,-3.5943,-3.592,-3.5751,-3.6016,-3.6534,-3.6577,-3.6887,-3.7306,-3.7345,-3.7325,-3.7178,-3.6317,-3.6132,-3.6127,-3.5238,-3.4507,-3.3969,-3.3794,-3.3282,-3.273,-3.2456,-3.2639,-3.2868,-3.2688,-3.277,-3.29,-3.29,-3.2875,-3.3127,-3.4127,-3.4445,-3.491,-3.6253,-3.7166,-3.7703,-3.7703,-3.7703,-3.7703,-3.7703,-3.7703,-3.7703,-3.7703,-3.7703,-3.7703,-3.7703,-3.7703,-3.781,-3.8035,-3.8052,-3.817,-3.843,-3.8415,-3.843,-3.8494,-3.8462,-3.8423,-3.8361,-3.8779,-3.8598,-3.7772,-3.778,-3.6998,-3.5516,-3.5529,-3.5076,-2.779,-2.8519,-2.9227,0.0,-2.9924,-2.9946,-2.9946,-3.0033,-3.0081,-3.0081,-3.0386,-3.0773,-3.1116,-3.1391,-3.1778,-3.2407,-3.2568,-3.2729,-3.3055,-3.3087,-3.3087,-3.3087,-3.3199,-3.3217,-3.3079,-3.3183,-3.3101,-3.2785,-3.2603,-3.2416,-3.2293,-3.206,-3.1989,-3.2073,-3.2073,-3.2033,-3.1944,-3.2386,-3.2782,-3.31,-3.2862,-3.2663,-3.25,-3.2494,-3.2937,-3.3732,-3.4222,-3.4435,-3.4445,-3.4778,-3.5178,-3.5616,-3.5715,-3.5629,-3.5479,-3.5766,-3.5547,-3.5071,-3.4782,-3.4641,-3.4446,-3.3703,-3.3145,-3.2727,-3.2409,-3.2138,-3.1914,-3.1823,-3.2056,-3.2318,-3.2231,-3.2386,-3.2555,-3.2555,-3.2506,-3.256,-3.3015,-3.3439,-3.4252,-3.59,-3.6595,-3.7077,-3.7523,-3.7595,-3.7595,-3.7595,-3.7595,-3.7595,-3.7595,-3.7595,-3.7595,-3.7595,-3.7595,-3.7649,-3.7775,-3.7775,-3.788,-3.8153,-3.8035,-3.8086,-3.8382,-3.8252,-3.8252,-3.8399,-3.874,-3.875,-3.8399,-3.8526,-3.7745,-3.6179,-3.6179,-3.5473,0.0,0.0,-2.8803,-2.9357,-2.9598,-2.9687,0.0,0.0,-2.9973,-2.9973,-2.9973,-3.0152,-3.0689,-3.0697,-3.0872,-3.1584,-3.1737,-3.1801,-3.1979,-3.2012,-3.2012,-3.2012,-3.2012,-3.2008,-3.2095,-3.2101,-3.2019,-3.1861,-3.1615,-3.1343,-3.1024,-3.0733,-3.0559,-3.0559,-3.0559,-3.0559,-3.0559,-3.1166,-3.1736,-3.2269,-3.1979,-3.1845,-3.1823,-3.1583,-3.1461,-3.1533,-3.2691,-3.3184,-3.3233,-3.3791,-3.4202,-3.4518,-3.4689,-3.4398,-3.3962,-3.4372,-3.4078,-3.3481,-3.3536,-3.3407,-3.3107,-3.2426,-3.2035,-3.1756,-3.1375,-3.1283,-3.1302,-3.1264,-3.149,-3.1749,-3.1694,-3.1948,-3.2197,-3.2197,-3.2214,-3.2249,-3.2283,-3.2932,-3.3934,-3.5453,-3.6024,-3.6487,-3.7323,-3.7448,-3.7448,-3.7448,-3.7448,-3.7448,-3.7448,-3.7448,-3.7448,-3.7448,-3.7448,-3.7448,-3.7448,-3.7485,-3.7613,-3.781,-3.7685,-3.7792,-3.8186,-3.8001,-3.7984,-3.8186,-3.8446,-3.8637,-3.8698,-3.8637,-3.7905,-3.6589,-3.6385,-3.5552,0.0,-2.7565,0.0,-2.824,-2.8772,0.0,0.0,0.0,-2.9918,-2.9918,-2.9918,-2.9918,-2.9967,-2.9967,-3.0172,-3.0839,-3.0969,-3.1195,-3.1915,-3.2012,-3.2012,-3.2012,-3.2012,-3.1737,-3.104,-3.0975,-3.0723,-3.0086,-3.0027,-3.0011,-2.9989,-2.9956,-2.9946,-2.9946,-2.9946,-2.9946,-2.9946,-2.9995,-3.0027,-3.006,-3.0038,-3.0038,-3.0038,-3.0016,-3.001,-3.0075,-3.1484,-3.2084,-3.2084,-3.2116,-3.235,-3.2622,-3.2644,-3.2874,-3.3168,-3.3189,-3.3177,-3.3021,-3.2349,-3.2114,-3.1959,-3.1167,-3.0895,-3.0875,-3.0845,-3.0948,-3.1083,-3.0868,-3.1125,-3.1378,-3.1184,-3.1526,-3.1912,-3.1912,-3.202,-3.2144,-3.2266,-3.2932,-3.3758,-3.4601,-3.534,-3.6097,-3.6888,-3.7029,-3.7029,-3.7029,-3.7029,-3.7029,-3.7029,-3.7029,-3.7029,-3.7029,-3.7029,-3.7029,-3.7029,-3.7201,-3.7316,-3.7334,-3.7503,-3.7613,-3.7631,-3.7631,-3.7631,-3.7631,-3.7897,-3.817,-3.8415,-3.7679,-3.6963,-3.6288,-3.5528,-3.4837,0.0,0.0,0.0,-2.8183,-2.8709,-2.9097,-2.9097,-2.9515,-2.9896,-2.9896,-2.9896,-2.9896,-2.9896,-2.9896,-2.9977,-3.0214,-3.0247,-3.0344,-3.0626,-3.0658,-3.0658,-3.0658,-3.0658,-3.0561,-3.0285,-3.0247,-3.0172,-2.9935,-2.9896,-2.9896,-2.9896,-2.9896,-2.9896,-2.9896,-2.9896,-2.9896,-2.9896,-2.9896,-2.9896,-2.9896,-2.9896,-2.9896,-2.9896,-2.9896,-2.9896,-2.9913,-3.0431,-3.0895,-3.1325,-3.1794,-3.2066,-3.2166,-3.2166,-3.1965,-3.172,-3.1924,-3.1696,-3.1307,-3.1249,-3.1083,-3.0866,-3.0564,-3.0368,-3.0215,-3.0215,-3.0279,-3.0321,-3.0236,-3.0456,-3.067,-3.0605,-3.0888,-3.1184,-3.1184,-3.1223,-3.1278,-3.1338,-3.1993,-3.2983,-3.4257,-3.4824,-3.5497,-3.6779,-3.7007,-3.7007,-3.7007,-3.7007,-3.7007,-3.7007,-3.7007,-3.7007,-3.7007,-3.7007,-3.7007,-3.7007,-3.7066,-3.7105,-3.7105,-3.7182,-3.7203,-3.7203,-3.7203,-3.7203,-3.7203,-3.7317,-3.7363,-3.7374,-3.7262,-3.6565,-3.5322,-3.5044,-3.4504,-2.7178,0.0,0.0,0.0,-2.8183,-2.8614,-2.8779,-2.925,-2.9687,-2.9858,-2.9896,-2.9896,-2.9896,-2.9896,-2.9896,-2.9896,-2.9896,-2.9896,-2.9896,-2.9896,-2.9896,-2.9896,-2.9896,-2.9896,-2.9896,-2.9896,-2.9896,-2.9896,-2.9896,-2.9896,-2.9896,-2.9896,-2.9896,-2.9896,-2.9896,-2.9896,-2.9896,-2.9896,-2.9896,-2.9896,-2.9896,-2.9896,-2.9896,-2.9896,-2.9896,-2.9896,-2.9896,-3.0156,-3.0603,-3.1089,-3.1299,-3.1299,-3.1299,-3.1008,-3.0593,-3.0805,-3.0604,-3.0199,-3.0431,-3.0347,-3.0156,-3.0156,-3.006,-2.9896,-2.9896,-2.9896,-2.9896,-2.9896,-3.0038,-3.0156,-3.0156,-3.0393,-3.0645,-3.0767,-3.0804,-3.0804,-3.0804,-3.1336,-3.22,-3.3479,-3.4139,-3.4903,-3.6177,-3.6596,-3.6771,-3.6771,-3.6771,-3.6771,-3.6771,-3.6771,-3.6771,-3.6771,-3.6771,-3.6771,-3.6771,-3.6849,-3.6888,-3.6888,-3.6968,-3.7007,-3.7007,-3.7007,-3.7007,-3.7007,-3.7007,-3.6692,-3.6093,-3.6328,-3.5788,-3.4561,-3.4367,-3.4007,0.0,0.0,0.0,0.0,0.0,0.0,-2.8143,-2.8685,-2.9227,-2.977,-2.9896,-2.988,-2.9896,-2.9896,-2.9896,-2.9896,-2.9896,-2.9896,-2.9896,-2.9896,-2.9896,-2.9896,-2.9896,-2.9896,-2.9896,-2.9896,-2.9896,-2.9896,-2.9896,-2.9896,-2.9896,-2.9896,-2.9896,-2.9896,-2.9896,-2.9896,-2.9896,-2.9896,-2.9896,-2.9896,-2.9896,-2.9896,-2.9896,-2.9896,-2.9896,-2.9896,-2.9896,-2.9896,-2.9896,-2.9896,-2.9896,-2.9896,-2.9896,-2.9896,-2.9896,-2.9896,-2.9896,-2.9896,-2.9896,-2.9896,-2.9896,-2.9896,-2.9896,-2.9896,-2.9896,-2.9896,-2.9896,-2.9896,-2.9896,-2.9896,-2.9896,-3.0087,-3.0356,-3.0703,-3.0784,-3.0784,-3.0784,-3.1024,-3.1497,-3.2247,-3.3308,-3.4298,-3.5059,-3.5818,-3.6301,-3.6301,-3.6301,-3.6301,-3.6301,-3.6301,-3.6301,-3.6301,-3.6301,-3.6301,-3.6301,-3.6544,-3.6681,-3.6681,-3.6869,-3.6987,-3.6987,-3.6987,-3.6987,-3.6987,-3.697,-3.6197,-3.4688,-3.4817,-3.4587,-3.4019,-3.344,-3.3342,-2.6806,0.0,0.0,0.0,0.0,0.0,-2.769,-2.8143,-2.8662,-2.9205,-2.9319,-2.9448,-2.9836,-2.9896,-2.9896,-2.9896,-2.9896,-2.9896,-2.9896,-2.9896,-2.9896,-2.9896,-2.9896,-2.9896,-2.9896,-2.9896,-2.9896,-2.9896,-2.9896,-2.9896,-2.9896,-2.9896,-2.9896,-2.9896,-2.9896,-2.9896,-2.9896,-2.9896,-2.9896,-2.9896,-2.9896,-2.9896,-2.9896,-2.9896,-2.9896,-2.9896,-2.9896,-2.9896,-2.9896,-2.9896,-2.9896,-2.9896,-2.9896,-2.9896,-2.9896,-2.9896,-2.9896,-2.9896,-2.9896,-2.9896,-2.9896,-2.9896,-2.9896,-2.9896,-2.9896,-2.9896,-2.9896,-2.9896,-2.9896,-2.9896,-2.9896,-2.9968,-3.0038,-3.0124,-3.0146,-3.0146,-3.0146,-3.0368,-3.0879,-3.19,-3.2765,-3.3634,-3.4673,-3.5446,-3.6006,-3.6259,-3.6301,-3.6301,-3.6301,-3.6301,-3.6301,-3.6301,-3.6301,-3.6301,-3.6301,-3.6381,-3.6423,-3.6423,-3.6447,-3.6489,-3.6489,-3.6489,-3.6489,-3.6489,-3.5972,-3.5243,-3.4252,-3.4596,-3.4076,-3.2788,-3.2793,-3.2912,0.0,0.0,0.0,0.0,0.0,0.0,-2.7464,-2.7725,-2.8119,-2.8662,-2.8772,-2.8865,-2.9182,-2.9227,-2.9296,-2.9515,-2.9576,-2.9643,-2.9874,-2.9896,-2.9896,-2.9896,-2.9896,-2.9896,-2.9896,-2.9896,-2.9896,-2.9896,-2.9896,-2.9896,-2.9896,-2.9896,-2.9896,-2.9896,-2.9896,-2.9896,-2.9896,-2.9896,-2.9896,-2.9896,-2.9896,-2.9896,-2.9896,-2.9896,-2.9896,-2.9896,-2.9896,-2.9896,-2.9896,-2.9896,-2.9896,-2.9896,-2.9896,-2.9896,-2.9896,-2.9896,-2.9896,-2.9896,-2.9896,-2.9896,-2.9896,-2.9896,-2.9896,-2.9896,-2.9896,-2.9896,-2.9896,-2.9896,-2.9896,-2.9896,-2.9896,-2.9896,-2.9896,-2.9896,-2.9896,-2.9896,-2.9896,-3.0017,-3.0373,-3.1145,-3.2231,-3.3218,-3.3871,-3.4856,-3.5611,-3.581,-3.5854,-3.5854,-3.5854,-3.5854,-3.5854,-3.5854,-3.5985,-3.6088,-3.6088,-3.6216,-3.6301,-3.6301,-3.6301,-3.6301,-3.6301,-3.6301,-3.6301,-3.6301,-3.5576,-3.4663,-3.3593,-3.392,-3.3475,-3.2301,-3.242,-3.2555,0.0,0.0,0.0,0.0,-2.6806,0.0,-2.7327,-2.7414,-2.7565,-2.8094,-2.8216,-2.8216,-2.8288,-2.8288,-2.8472,-2.8935,-2.9051,-2.9273,-2.9814,-2.9896,-2.9896,-2.9896,-2.9896,-2.9896,-2.9896,-2.9896,-2.9896,-2.9896,-2.9896,-2.9896,-2.9896,-2.9896,-2.9896,-2.9896,-2.9896,-2.9896,-2.9896,-2.9896,-2.9896,-2.9896,-2.9896,-2.9896,-2.9896,-2.9896,-2.9896,-2.9896,-2.9896,-2.9896,-2.9896,-2.9896,-2.9896,-2.9896,-2.9896,-2.9896,-2.9896,-2.9896,-2.9896,-2.9896,-2.9896,-2.9896,-2.9896,-2.9896,-2.9896,-2.9896,-2.9896,-2.9896,-2.9896,-2.9896,-2.9896,-2.9896,-2.9896,-2.9896,-2.9896,-2.9896,-2.9896,-2.9896,-2.9896,-2.9896,-2.9968,-3.0204,-3.1696,-3.2911,-3.2954,-3.4169,-3.5155,-3.5201,-3.5201,-3.5201,-3.5201,-3.5201,-3.5201,-3.5201,-3.5521,-3.5722,-3.5722,-3.6023,-3.6195,-3.6237,-3.6237,-3.6259,-3.6301,-3.6301,-3.6301,-3.6301,-3.549,-3.4318,-3.2783,-3.2954,-3.2771,-3.2249,-3.2266,-3.2266,0.0,0.0,0.0,0.0,-2.6806,0.0,-2.6922,-2.6948,-2.7074,-2.7565,-2.7665,-2.7775,-2.8216,-2.8288,-2.8312,-2.8448,-2.8803,-2.9273,-2.9814,-2.9896,-2.9896,-2.9896,-2.9896,-2.9896,-2.9896,-2.9896,-2.9896,-2.9896,-2.9896,-2.9896,-2.9896,-2.9896,-2.9896,-2.9896,-2.9896,-2.9896,-2.9896,-2.9896,-2.9896,-2.9896,-2.9896,-2.9896,-2.9896,-2.9896,-2.9896,-2.9896,-2.9896,-2.9896,-2.9896,-2.9896,-2.9896,-2.9896,-2.9896,-2.9896,-2.9896,-2.9896,-2.9896,-2.9896,-2.9896,-2.9896,-2.9896,-2.9896,-2.9896,-2.9896,-2.9896,-2.9896,-2.9896,-2.9896,-2.9896,-2.9896,-2.9896,-2.9896,-2.9896,-2.9896,-2.9896,-2.9896,-2.9896,-2.9896,-2.9918,-2.9968,-3.1189,-3.2266,-3.2568,-3.3819,-3.489,-3.5155,-3.5201,-3.5201,-3.5201,-3.5201,-3.5201,-3.5201,-3.527,-3.5316,-3.5316,-3.5385,-3.5566,-3.5893,-3.5915,-3.6023,-3.6301,-3.6301,-3.6301,-3.6301,-3.499,-3.3561,-3.2007,-3.2044,-3.2012,-3.1893,-3.2073,-3.2144,0.0,0.0,0.0,-2.6806,-2.6712,0.0,0.0,-2.6645,-2.6709,-2.6941,-2.7086,-2.7229,-2.7494,-2.7545,-2.763,-2.7849,-2.8134,-2.8496,-2.9028,-2.956,-2.9896,-2.9896,-2.9896,-2.9896,-2.9896,-2.9896,-2.9734,-2.9378,-2.9686,-2.9734,-2.9362,-2.9686,-2.9896,-2.9896,-2.9896,-2.9896,-2.9896,-2.9896,-2.9896,-2.9896,-2.9896,-2.9896,-2.9896,-2.9896,-2.9896,-2.9896,-2.9896,-2.9896,-2.9896,-2.9896,-2.9896,-2.9896,-2.9896,-2.9896,-2.9896,-2.9896,-2.9896,-2.9896,-2.9896,-2.9896,-2.9896,-2.9896,-2.9896,-2.9896,-2.9896,-2.9896,-2.9896,-2.9896,-2.9896,-2.9896,-2.9896,-2.9896,-2.9896,-2.9896,-2.9896,-2.9896,-2.9896,-2.9896,-2.9896,-2.9896,-3.0733,-3.1621,-3.2171,-3.3157,-3.4063,-3.456,-3.4658,-3.4658,-3.4658,-3.4658,-3.4658,-3.4658,-3.4842,-3.4961,-3.4961,-3.5108,-3.5293,-3.5498,-3.5498,-3.5588,-3.5727,-3.5766,-3.5474,-3.4915,-3.4375,-3.3259,-3.1542,-3.1542,-3.1634,-3.18,-3.1893,-3.1947,0.0,-2.6738,-2.6738,-2.6779,-2.6645,-2.651,0.0,0.0,0.0,-2.6484,-2.6645,-2.6738,-2.6779,-2.6779,-2.6837,-2.7098,-2.7324,-2.7555,-2.7902,-2.8887,-2.9598,-2.9598,-2.977,-2.9858,-2.977,-2.9707,-2.9443,-2.8822,-2.9216,-2.9216,-2.8611,-2.9297,-2.9686,-2.9686,-2.9815,-2.9836,-2.9748,-2.9748,-2.9687,-2.9598,-2.9598,-2.9598,-2.9598,-2.9598,-2.9598,-2.9598,-2.9598,-2.9643,-2.9748,-2.9748,-2.9792,-2.9836,-2.9896,-2.9836,-2.9732,-2.9792,-2.9792,-2.9732,-2.9814,-2.9858,-2.9896,-2.9896,-2.9896,-2.988,-2.9836,-2.9761,-2.9686,-2.9626,-2.9648,-2.9686,-2.9686,-2.9783,-2.9896,-2.9896,-2.9896,-2.9896,-2.9896,-2.9896,-2.9896,-2.9896,-3.0328,-3.0969,-3.185,-3.2611,-3.3323,-3.4003,-3.4101,-3.4101,-3.4101,-3.4101,-3.4101,-3.4101,-3.4399,-3.457,-3.457,-3.4842,-3.5015,-3.5085,-3.5108,-3.5131,-3.5201,-3.5201,-3.4634,-3.3414,-3.3721,-3.3006,-3.1201,-3.1201,-3.1334,-3.1615,-3.1671,-3.1709,-2.6498,-2.6537,-2.6578,-2.6753,-2.6645,-2.651,-2.651,0.0,-2.6353,-2.6498,0.0,-2.6578,-2.6779,0.0,0.0,-2.589,-2.6663,-2.7165,-2.6682,-2.7688,-2.8496,-2.8496,-2.9319,-2.971,-2.9227,-2.902,-2.8892,-2.8811,-2.8271,-2.7915,-2.7834,-2.8514,-2.8924,-2.8924,-2.9556,-2.9665,-2.9205,-2.9182,-2.8958,-2.8496,-2.8496,-2.8496,-2.8496,-2.8496,-2.8496,-2.8496,-2.8496,-2.8756,-2.9182,-2.9182,-2.9319,-2.9576,-2.9814,-2.9621,-2.9227,-2.947,-2.9387,-2.9227,-2.947,-2.9687,-2.9896,-2.9896,-2.9896,-2.9874,-2.9621,-2.9253,-2.8882,-2.8651,-2.8737,-2.8924,-2.8924,-2.941,-2.9896,-2.9896,-2.9896,-2.9896,-2.9896,-2.9896,-2.9896,-2.9896,-2.9961,-3.0447,-3.1769,-3.2611,-3.3323,-3.4003,-3.4101,-3.4101,-3.4101,-3.4101,-3.4101,-3.4101,-3.4151,-3.4176,-3.4176,-3.4184,-3.4374,-3.4739,-3.4763,-3.489,-3.5201,-3.5201,-3.4521,-3.3079,-3.3105,-3.2383,-3.0865,-3.0865,-3.0885,-3.0925,-3.1218,-3.1353,-2.7059,-2.6813,-2.651,-2.6604,-2.6513,-2.6392,-2.6484,-2.6406,-2.6313,-2.6379,0.0,0.0,0.0,0.0,0.0,0.0,-2.6454,-2.6761,-2.6484,-2.7195,-2.7858,-2.824,-2.8622,-2.8896,-2.8974,-2.8615,-2.834,-2.817,-2.766,-2.7265,-2.7138,-2.7563,-2.7961,-2.8317,-2.8414,-2.8496,-2.8622,-2.8638,-2.8519,-2.8288,-2.8288,-2.8288,-2.8288,-2.8288,-2.8288,-2.8288,-2.8288,-2.8384,-2.8528,-2.8528,-2.8528,-2.8591,-2.8685,-2.8748,-2.8772,-2.8881,-2.8701,-2.8362,-2.814,-2.8338,-2.8656,-2.849,-2.8378,-2.8249,-2.814,-2.7976,-2.7801,-2.7828,-2.7912,-2.803,-2.8281,-2.8682,-2.9062,-2.9178,-2.9312,-2.9434,-2.9434,-2.9434,-2.9434,-2.9434,-2.9434,-2.9754,-3.0783,-3.1436,-3.2077,-3.2773,-3.3242,-3.3518,-3.3518,-3.3858,-3.4101,-3.4101,-3.4101,-3.4101,-3.4101,-3.4101,-3.4176,-3.4349,-3.4349,-3.4407,-3.4561,-3.4381,-3.3786,-3.2718,-3.2527,-3.1796,-3.0502,-3.0502,-3.0435,-3.03,-3.0784,-3.1004,-2.7421,-2.6975,-2.6431,-2.6484,-2.6392,-2.634,-2.6418,-2.6312,-2.6206,-2.6286,-2.6286,0.0,0.0,0.0,-2.6203,-2.6032,0.0,-2.632,-2.6175,-2.6643,-2.7236,-2.775,-2.7834,-2.8018,-2.8365,-2.7887,-2.7462,-2.7242,-2.663,-2.6271,-2.6197,-2.646,-2.6812,-2.7234,-2.7341,-2.7541,-2.7819,-2.7954,-2.7947,-2.7799,-2.7775,-2.7765,-2.775,-2.7799,-2.7799,-2.7799,-2.7799,-2.7834,-2.7883,-2.7834,-2.7824,-2.7775,-2.7775,-2.7864,-2.7963,-2.8158,-2.7987,-2.761,-2.7082,-2.7057,-2.7266,-2.7082,-2.6918,-2.6804,-2.6842,-2.6759,-2.6687,-2.6757,-2.6825,-2.6963,-2.7337,-2.7733,-2.8115,-2.8553,-2.8787,-2.8982,-2.9075,-2.9098,-2.9098,-2.9098,-2.9098,-2.9272,-2.9801,-3.036,-3.0962,-3.167,-3.2305,-3.2652,-3.2603,-3.3137,-3.3493,-3.3419,-3.3419,-3.3443,-3.3518,-3.3468,-3.3443,-3.3518,-3.3712,-3.3744,-3.3534,-3.3476,-3.3013,-3.2089,-3.1819,-3.1196,-3.0199,-3.0199,-3.0087,-2.9902,-3.0414,-3.0645,-2.7213,-2.6811,-2.6326,-2.6457,-2.6392,-2.6313,-2.6313,-2.6084,-2.5975,-2.626,-2.6206,-2.6138,-2.6286,-2.6206,0.0,0.0,0.0,0.0,0.0,-2.5875,-2.6379,-2.6537,-2.7016,-2.728,-2.7162,-2.6551,-2.6143,-2.6061,-2.4891,-2.4421,-2.493,-2.5207,-2.5382,-2.5398,-2.6687,-2.7147,-2.6669,-2.7111,-2.7067,-2.6563,-2.6433,-2.6353,-2.6353,-2.6498,-2.6563,-2.6563,-2.6563,-2.6849,-2.7323,-2.7185,-2.7287,-2.7515,-2.7515,-2.7108,-2.6628,-2.7287,-2.7363,-2.7085,-2.6718,-2.6354,-2.6069,-2.6039,-2.6039,-2.6077,-2.619,-2.5923,-2.5505,-2.5231,-2.5361,-2.5623,-2.5887,-2.6496,-2.7293,-2.8269,-2.8511,-2.8622,-2.9029,-2.9098,-2.9098,-2.9098,-2.9098,-2.9114,-2.913,-2.9745,-3.0449,-3.1114,-3.1477,-3.1566,-3.1306,-3.1718,-3.1966,-3.171,-3.1686,-3.1783,-3.2053,-3.183,-3.1783,-3.2053,-3.274,-3.2805,-3.2109,-3.2748,-3.244,-3.0992,-3.0943,-3.0593,-2.9902,-2.9902,-2.9902,-2.9918,-3.0199,-3.0314,-2.7769,-2.6987,-2.6179,-2.6218,-2.6192,-2.6206,-2.6286,-2.6165,-2.6056,-2.6138,-2.6056,-2.5975,-2.6029,-2.6002,0.0,0.0,0.0,0.0,0.0,-2.601,-2.6138,-2.6096,-2.6733,-2.6959,-2.6416,-2.5914,-2.5576,-2.541,-2.4387,-2.3979,-2.4472,-2.4298,-2.4375,-2.4806,-2.4916,-2.5261,-2.5929,-2.5995,-2.6159,-2.6379,-2.634,-2.6313,-2.6313,-2.6353,-2.6379,-2.6379,-2.6379,-2.6418,-2.651,-2.6472,-2.6431,-2.6457,-2.6457,-2.6297,-2.615,-2.6654,-2.6602,-2.6234,-2.5662,-2.4746,-2.3887,-2.4282,-2.4319,-2.4209,-2.4283,-2.4162,-2.4048,-2.4092,-2.4163,-2.442,-2.5178,-2.5696,-2.624,-2.7085,-2.7439,-2.7615,-2.7755,-2.778,-2.778,-2.778,-2.778,-2.778,-2.778,-2.7986,-2.8513,-2.9627,-3.0283,-3.0648,-3.0536,-3.1077,-3.151,-3.1582,-3.1437,-3.151,-3.1948,-3.1925,-3.1901,-3.1988,-3.2238,-3.2271,-3.2012,-3.1785,-3.1406,-3.092,-3.0457,-3.0139,-2.9896,-2.9896,-2.9896,-2.9896,-2.9995,-3.0038,-2.801,-2.7074,-2.6084,-2.6084,-2.6084,-2.6111,-2.6206,-2.6111,-2.6029,-2.6084,-2.5975,-2.5893,-2.5893,-2.5893,-2.5893,0.0,0.0,0.0,0.0,-2.6029,-2.6002,-2.5921,-2.6404,-2.6486,-2.5861,-2.5306,-2.4982,-2.4925,-2.3881,-2.348,-2.4015,-2.361,-2.3555,-2.3977,-2.3807,-2.4206,-2.5232,-2.5283,-2.5633,-2.6233,-2.6179,-2.6165,-2.6165,-2.6206,-2.6233,-2.6233,-2.6233,-2.6179,-2.6084,-2.6056,-2.5975,-2.5893,-2.5893,-2.5893,-2.5921,-2.6204,-2.5982,-2.5496,-2.4833,-2.3837,-2.2873,-2.3052,-2.3016,-2.2926,-2.3061,-2.3083,-2.3105,-2.3246,-2.329,-2.3437,-2.4196,-2.4679,-2.5214,-2.6115,-2.6599,-2.6916,-2.7071,-2.7097,-2.7097,-2.7097,-2.7097,-2.7097,-2.7097,-2.7097,-2.7454,-2.847,-2.9098,-2.9475,-2.9555,-3.0084,-3.0473,-3.0569,-3.0409,-3.0449,-3.0799,-3.0909,-3.1003,-3.1096,-3.1267,-3.1323,-3.1251,-3.0949,-3.0813,-3.0904,-3.0253,-3.001,-3.0269,-3.001,-2.9836,-2.977,-2.9874,-2.9836]},{"header":{"parameterUnit":"m.s-1","parameterCategory":1,"la1":30.6,"la2":29.2853,"lo1":-89.7004,"lo2":-87.6739,"dy":0.0162,"dx":0.0183,"nx":112,"ny":82,"refTime":"2023-09-03T12:00:00:Z","depth":0,"parameterNumber":3,"parameterNumberName":"V-component_of_WINDS"},"data":[0.0,0.0,0.0,0.0,0.0,0.0,0.0,0.0,0.0,0.0,0.0,0.0,0.0,0.0,0.0,0.0,0.0,0.0,0.0,0.0,0.0,0.0,0.0,0.0,0.0,0.0,0.0,0.0,0.0,0.0,0.0,0.0,0.0,0.0,0.0,0.0,0.0,0.0,0.0,0.0,0.0,0.0,0.0,0.0,0.0,0.0,0.0,0.0,0.0,0.0,0.0,0.0,0.0,0.0,0.0,0.0,0.0,0.0,0.0,0.0,0.0,0.0,0.0,0.0,0.0,0.0,0.0,0.0,0.0,0.0,0.0,0.0,0.0,0.0,0.0,0.0,0.0,0.0,0.0,0.0,0.0,0.0,0.0,0.0,0.0,0.0,0.0,0.0,0.0,0.0,-1.4686,-1.5408,-1.5546,-1.5379,-1.4936,-1.4938,-1.536,-1.6239,0.0,0.0,0.0,0.0,0.0,0.0,0.0,0.0,0.0,0.0,0.0,0.0,0.0,0.0,0.0,0.0,0.0,0.0,0.0,0.0,0.0,0.0,0.0,0.0,0.0,0.0,0.0,0.0,0.0,0.0,0.0,0.0,0.0,0.0,0.0,0.0,0.0,0.0,0.0,0.0,0.0,0.0,0.0,0.0,0.0,0.0,0.0,0.0,0.0,0.0,0.0,0.0,0.0,0.0,0.0,0.0,0.0,0.0,0.0,0.0,0.0,0.0,0.0,0.0,0.0,0.0,0.0,0.0,0.0,0.0,0.0,0.0,0.0,0.0,0.0,0.0,0.0,0.0,0.0,0.0,0.0,0.0,0.0,0.0,0.0,0.0,0.0,0.0,0.0,0.0,0.0,0.0,0.0,0.0,0.0,0.0,0.0,0.0,0.0,0.0,0.0,0.0,0.0,0.0,-1.4802,-1.4535,-1.4811,-1.4849,-1.443,-1.4716,-1.5187,-1.5759,0.0,0.0,0.0,0.0,0.0,0.0,0.0,0.0,0.0,0.0,0.0,0.0,0.0,0.0,0.0,0.0,0.0,0.0,0.0,0.0,0.0,0.0,0.0,0.0,0.0,0.0,0.0,0.0,0.0,0.0,0.0,0.0,0.0,0.0,0.0,0.0,0.0,0.0,0.0,0.0,0.0,0.0,0.0,0.0,0.0,0.0,0.0,0.0,0.0,0.0,0.0,0.0,0.0,0.0,0.0,0.0,0.0,0.0,0.0,0.0,0.0,0.0,0.0,0.0,0.0,0.0,0.0,0.0,0.0,0.0,0.0,0.0,0.0,0.0,0.0,0.0,0.0,0.0,0.0,0.0,0.0,0.0,0.0,0.0,0.0,0.0,0.0,0.0,0.0,0.0,0.0,0.0,0.0,0.0,0.0,0.0,0.0,0.0,0.0,0.0,0.0,0.0,0.0,-1.4468,-1.4378,-1.3902,-1.425,-1.4444,-1.426,-1.425,-1.4647,-1.5643,-1.4454,0.0,0.0,0.0,0.0,0.0,0.0,0.0,0.0,0.0,0.0,0.0,0.0,0.0,0.0,0.0,0.0,0.0,0.0,0.0,0.0,0.0,0.0,0.0,0.0,0.0,0.0,0.0,0.0,0.0,0.0,0.0,0.0,0.0,0.0,0.0,0.0,0.0,0.0,0.0,0.0,0.0,0.0,0.0,0.0,0.0,0.0,0.0,0.0,0.0,0.0,0.0,0.0,0.0,0.0,0.0,0.0,0.0,0.0,0.0,0.0,0.0,0.0,0.0,0.0,0.0,0.0,0.0,0.0,0.0,0.0,0.0,0.0,0.0,0.0,0.0,0.0,0.0,0.0,0.0,0.0,0.0,0.0,0.0,0.0,0.0,0.0,0.0,0.0,0.0,0.0,0.0,0.0,0.0,0.0,0.0,0.0,0.0,0.0,0.0,0.0,0.0,0.0,-1.403,-1.3791,-1.342,-1.37,-1.392,-1.392,-1.3601,-1.3902,-1.5069,-1.4257,0.0,0.0,0.0,0.0,0.0,0.0,0.0,0.0,0.0,0.0,0.0,0.0,0.0,0.0,0.0,0.0,0.0,0.0,0.0,0.0,0.0,0.0,0.0,0.0,0.0,0.0,0.0,0.0,0.0,0.0,0.0,0.0,0.0,0.0,0.0,0.0,0.0,0.0,0.0,0.0,0.0,0.0,0.0,0.0,0.0,0.0,0.0,0.0,0.0,0.0,0.0,0.0,0.0,0.0,0.0,0.0,0.0,0.0,0.0,0.0,0.0,0.0,0.0,0.0,0.0,0.0,0.0,0.0,0.0,0.0,0.0,0.0,0.0,0.0,0.0,0.0,0.0,0.0,0.0,0.0,0.0,0.0,0.0,0.0,0.0,0.0,0.0,0.0,0.0,0.0,0.0,0.0,0.0,0.0,0.0,0.0,0.0,0.0,0.0,0.0,0.0,0.0,-1.3351,-1.3072,-1.305,-1.3042,-1.3072,-1.3072,-1.2797,-1.285,-1.342,-1.3494,0.0,0.0,0.0,0.0,0.0,0.0,0.0,0.0,0.0,0.0,0.0,0.0,0.0,0.0,0.0,0.0,0.0,0.0,0.0,0.0,0.0,0.0,0.0,0.0,0.0,0.0,0.0,0.0,0.0,0.0,0.0,0.0,0.0,0.0,0.0,0.0,0.0,0.0,0.0,0.0,0.0,0.0,0.0,0.0,0.0,0.0,0.0,0.0,0.0,0.0,0.0,0.0,0.0,0.0,0.0,0.0,0.0,0.0,0.0,0.0,0.0,0.0,0.0,0.0,0.0,0.0,0.0,0.0,0.0,0.0,0.0,0.0,0.0,0.0,0.0,0.0,0.0,0.0,0.0,0.0,0.0,0.0,0.0,0.0,0.0,0.0,0.0,0.0,0.0,0.0,0.0,0.0,0.0,0.0,0.0,0.0,0.0,0.0,0.0,0.0,0.0,0.0,-1.3003,-1.2705,-1.2705,-1.2705,-1.2705,-1.2705,-1.2428,-1.2544,-1.3268,0.0,0.0,0.0,0.0,0.0,0.0,0.0,0.0,0.0,0.0,0.0,0.0,0.0,0.0,0.0,0.0,0.0,0.0,0.0,0.0,0.0,0.0,0.0,0.0,0.0,0.0,0.0,0.0,0.0,0.0,0.0,0.0,0.0,0.0,0.0,0.0,0.0,0.0,0.0,0.0,0.0,0.0,0.0,0.0,0.0,0.0,0.0,0.0,0.0,0.0,0.0,0.0,0.0,0.0,0.0,0.0,0.0,0.0,0.0,0.0,0.0,0.0,0.0,0.0,0.0,0.0,0.0,0.0,0.0,0.0,0.0,0.0,0.0,0.0,0.0,0.0,0.0,0.0,0.0,0.0,0.0,0.0,0.0,0.0,0.0,0.0,0.0,0.0,0.0,0.0,0.0,0.0,0.0,0.0,0.0,0.0,0.0,0.0,0.0,0.0,0.0,0.0,-1.2848,-1.2605,-1.2359,-1.2359,-1.2359,-1.2359,-1.2359,-1.212,-1.2182,-1.272,0.0,0.0,0.0,0.0,0.0,0.0,0.0,0.0,0.0,0.0,0.0,0.0,0.0,0.0,0.0,0.0,0.0,0.0,0.0,0.0,0.0,0.0,0.0,0.0,0.0,0.0,0.0,0.0,0.0,0.0,0.0,0.0,0.0,0.0,0.0,0.0,0.0,0.0,0.0,0.0,0.0,0.0,0.0,0.0,0.0,0.0,0.0,0.0,0.0,0.0,0.0,0.0,0.0,0.0,0.0,0.0,0.0,0.0,0.0,0.0,0.0,0.0,0.0,0.0,0.0,0.0,0.0,0.0,0.0,0.0,0.0,0.0,0.0,0.0,0.0,0.0,0.0,0.0,0.0,0.0,0.0,0.0,0.0,0.0,0.0,0.0,0.0,0.0,0.0,0.0,0.0,0.0,0.0,0.0,0.0,0.0,0.0,0.0,0.0,0.0,0.0,0.0,-1.2058,-1.2089,-1.2089,-1.2089,-1.2089,-1.2089,-1.2089,-1.1778,-1.1591,0.0,0.0,0.0,0.0,0.0,0.0,0.0,0.0,0.0,0.0,0.0,0.0,0.0,0.0,0.0,0.0,0.0,0.0,0.0,0.0,0.0,0.0,0.0,0.0,0.0,0.0,0.0,0.0,0.0,0.0,0.0,0.0,0.0,0.0,0.0,0.0,0.0,0.0,0.0,0.0,0.0,0.0,0.0,0.0,0.0,0.0,0.0,0.0,0.0,0.0,0.0,0.0,0.0,0.0,0.0,0.0,0.0,0.0,0.0,0.0,0.0,0.0,0.0,0.0,0.0,0.0,0.0,0.0,0.0,0.0,0.0,0.0,0.0,0.0,0.0,0.0,0.0,0.0,0.0,0.0,0.0,0.0,0.0,0.0,0.0,0.0,0.0,0.0,0.0,0.0,0.0,0.0,0.0,0.0,0.0,0.0,0.0,0.0,0.0,0.0,0.0,0.0,0.0,-1.1716,-1.1747,-1.1747,-1.1747,-1.1747,-1.1747,-1.1747,-1.1654,-1.1591,-1.1591,0.0,0.0,0.0,0.0,0.0,0.0,0.0,0.0,0.0,0.0,0.0,0.0,0.0,0.0,0.0,0.0,0.0,0.0,0.0,0.0,0.0,0.0,0.0,0.0,0.0,0.0,0.0,0.0,0.0,0.0,0.0,0.0,0.0,0.0,0.0,0.0,0.0,0.0,0.0,0.0,0.0,0.0,0.0,0.0,0.0,0.0,0.0,0.0,0.0,0.0,0.0,0.0,0.0,0.0,0.0,0.0,0.0,0.0,0.0,0.0,0.0,0.0,0.0,0.0,0.0,0.0,0.0,0.0,0.0,0.0,0.0,0.0,0.0,0.0,0.0,0.0,0.0,0.0,0.0,0.0,0.0,0.0,0.0,0.0,0.0,0.0,0.0,0.0,0.0,0.0,0.0,0.0,0.0,0.0,0.0,0.0,0.0,0.0,0.0,0.0,0.0,0.0,-1.1279,-1.1279,-1.1279,-1.1279,-1.1466,-1.1498,-1.131,-1.1279,-1.1178,-1.0982,0.0,0.0,0.0,0.0,0.0,0.0,0.0,0.0,0.0,0.0,0.0,0.0,0.0,0.0,0.0,0.0,0.0,0.0,0.0,0.0,0.0,0.0,0.0,0.0,0.0,0.0,0.0,0.0,0.0,0.0,0.0,0.0,0.0,0.0,0.0,0.0,0.0,0.0,0.0,0.0,0.0,0.0,0.0,0.0,0.0,0.0,0.0,0.0,0.0,0.0,0.0,0.0,0.0,0.0,0.0,0.0,0.0,0.0,0.0,0.0,0.0,0.0,0.0,0.0,0.0,0.0,0.0,0.0,0.0,0.0,0.0,0.0,0.0,0.0,0.0,0.0,0.0,0.0,0.0,0.0,0.0,0.0,0.0,0.0,0.0,0.0,0.0,0.0,0.0,0.0,0.0,0.0,0.0,0.0,0.0,0.0,0.0,0.0,0.0,0.0,0.0,0.0,-1.0807,-1.0769,-1.0737,-1.08,-1.1185,-1.1279,-1.0839,-1.0737,-1.051,-1.0015,0.0,0.0,0.0,0.0,0.0,0.0,0.0,0.0,0.0,0.0,0.0,0.0,0.0,0.0,0.0,0.0,0.0,0.0,0.0,0.0,0.0,0.0,0.0,0.0,0.0,0.0,0.0,0.0,0.0,0.0,0.0,0.0,0.0,0.0,0.0,0.0,0.0,0.0,0.0,0.0,0.0,0.0,0.0,0.0,0.0,0.0,0.0,0.0,0.0,0.0,0.0,0.0,0.0,0.0,0.0,0.0,0.0,0.0,0.0,0.0,-0.1911,-0.208,0.0,0.0,0.0,0.0,0.0,0.0,0.0,0.0,0.0,0.0,0.0,0.0,0.0,0.0,0.0,0.0,0.0,0.0,0.0,0.0,0.0,0.0,0.0,0.0,0.0,0.0,0.0,0.0,0.0,0.0,0.0,0.0,0.0,0.0,0.0,0.0,0.0,0.0,0.0,0.0,-1.0807,-1.044,-1.0345,-1.0737,-1.051,-1.0471,-1.0776,-1.0415,-1.0117,-1.0021,-1.0117,0.0,0.0,0.0,0.0,0.0,0.0,0.0,0.0,0.0,0.0,0.0,0.0,0.0,0.0,0.0,0.0,0.0,0.0,0.0,0.0,0.0,0.0,0.0,0.0,0.0,0.0,0.0,0.0,0.0,0.0,0.0,0.0,0.0,0.0,0.0,0.0,0.0,0.0,0.0,0.0,0.0,0.0,0.0,0.0,0.0,0.0,0.0,0.0,0.0,0.0,0.0,0.0,0.0,0.0,0.0,0.0,0.0,0.0,0.0,-0.1575,-0.176,0.0,0.0,0.0,0.0,0.0,0.0,0.0,0.0,0.0,0.0,0.0,0.0,0.0,0.0,0.0,0.0,0.0,0.0,0.0,0.0,0.0,0.0,0.0,0.0,0.0,0.0,0.0,0.0,0.0,0.0,0.0,0.0,0.0,0.0,0.0,0.0,0.0,0.0,0.0,0.0,-1.0104,-0.9843,-0.9773,-1.004,-1.0028,-1.0021,-1.0072,-0.9837,-0.955,-0.93,-0.9518,0.0,0.0,0.0,0.0,0.0,0.0,0.0,0.0,0.0,0.0,0.0,0.0,0.0,0.0,0.0,0.0,0.0,0.0,0.0,0.0,0.0,0.0,0.0,0.0,0.0,0.0,0.0,0.0,0.0,0.0,0.0,0.0,0.0,0.0,0.0,0.0,0.0,0.0,0.0,0.0,0.0,0.0,0.0,0.0,0.0,0.0,0.0,0.0,0.0,0.0,0.0,0.0,0.0,0.0502,0.0322,-0.0057,-0.0029,-0.0293,-0.0821,-0.135,-0.1488,-0.1345,-0.163,0.0,0.0,0.0,0.0,0.0,0.0,0.0,0.0,0.0,0.0,0.0,0.0,0.0,0.0,0.0,0.0,0.0,0.0,0.0,0.0,0.0,0.0,-0.5193,-0.5837,-0.6063,-0.6289,-0.6957,0.0,0.0,0.0,0.0,0.0,0.0,0.0,0.0,0.0,0.0,0.0,-0.9236,-0.9113,-0.9145,-0.9274,-0.955,-0.9614,-0.9338,-0.921,-0.8958,-0.8517,-0.8926,-0.921,0.0,0.0,0.0,0.0,0.0,0.0,0.0,0.0,0.0,0.0,0.0,0.0,0.0,0.0,0.0,0.0,0.0,0.0,0.0,0.0,0.0,0.0,0.0,0.0,0.0,0.0,0.0,0.0,0.0,0.0,0.0,0.0,0.0578,0.0578,0.0,0.0,0.0,0.0,0.0,0.0,0.0,0.0,0.0,0.0,0.0,0.0,0.0,0.0497,0.0426,0.0426,0.0425,0.0424,0.0537,0.055,0.0488,0.0627,0.0307,-0.0307,-0.0335,0.0,-0.0981,-0.1068,0.0,0.0,0.0,0.0,0.0,0.0,0.0,0.0,0.0,0.0,0.0,0.0,0.0,0.0,0.0,0.0,0.0,0.0,0.0,0.0,0.0,0.0,-0.4693,-0.4785,-0.5264,-0.5716,-0.5814,-0.684,-0.7778,-0.7958,-0.8148,-0.857,0.0,0.0,0.0,0.0,0.0,0.0,-0.8801,-0.8431,-0.8468,-0.921,-0.8926,-0.8861,-0.9274,-0.8861,-0.8576,-0.8517,-0.8582,-0.8797,-0.9274,-0.9434,0.0,0.0,0.0,0.0,0.0,0.0,0.0,0.0,0.0,0.0,0.0,0.0,0.0,0.0,0.0,0.0,0.0,0.0,0.0,0.0,0.0,0.0,0.0,0.0,0.0,0.0,0.0,0.0,0.0,0.1374,0.1386,0.1386,0.1386,0.1386,0.0,0.0,0.0,0.0,0.0,0.0,0.0,0.0,0.0,0.1396,0.1395,0.1398,0.1404,0.1404,0.1392,0.1368,0.1404,0.1283,0.0986,0.1059,0.079,0.0301,0.0335,0.0233,0.0033,-0.0382,-0.0734,-0.1037,0.0,0.0,0.0,0.0,-0.123,-0.126,-0.1368,-0.1392,-0.1392,-0.1392,0.0,0.0,0.0,0.0,0.0,0.0,0.0,-0.3969,-0.4446,-0.4428,-0.4344,-0.4635,-0.494,-0.5249,-0.555,-0.6314,-0.7035,-0.7287,-0.7395,-0.7652,-0.8264,-0.8587,0.0,0.0,0.0,-0.848,-0.8192,-0.8241,-0.8492,-0.8865,-0.8899,-0.8951,-0.908,-0.8871,-0.8657,-0.8522,-0.8517,-0.8608,-0.8829,-0.9145,-0.9498,0.0,0.0,0.0,0.0,0.0,0.0,0.0,0.0,0.0,0.0,0.0,0.0,0.0,0.0,0.0,0.0,0.0,0.0,0.0,0.0,0.0,0.0,0.0,0.0,0.0,0.0,0.0,0.0,0.204,0.2051,0.2051,0.2051,0.2051,0.0,0.0,0.0,0.0,0.0,0.0,0.2132,0.2152,0.2135,0.212,0.2118,0.2141,0.2186,0.2203,0.2196,0.2165,0.2197,0.1985,0.1615,0.1639,0.1396,0.0972,0.0978,0.0922,0.0755,0.0238,-0.0236,-0.0584,-0.0206,-0.0275,-0.0652,-0.0647,-0.0747,-0.088,-0.0823,-0.0914,-0.1012,-0.1012,-0.1272,-0.1603,-0.1604,0.0,0.0,0.0,0.0,-0.3353,-0.4084,-0.3954,-0.3792,-0.4287,-0.4483,-0.4719,-0.512,-0.5617,-0.6148,-0.6683,-0.6782,-0.6881,-0.7265,-0.7667,0.0,-0.747,-0.7875,-0.8118,-0.7715,-0.8025,-0.8407,-0.8584,-0.886,-0.9032,-0.8964,-0.8826,-0.8652,-0.8444,-0.8316,-0.8284,-0.8382,-0.8759,-0.9081,-0.9306,0.0,0.0,0.0,0.0,0.0,0.0,0.0,0.0,0.0,0.0,0.0,0.0,0.0,0.0,0.0,0.0,0.0,0.0,0.0,0.0,0.0,0.0,0.0,0.0,0.0,0.0,0.0,0.0,0.0,0.2178,0.2178,0.0,0.0,0.0,0.0,0.2196,0.2166,0.219,0.2283,0.2232,0.2208,0.2185,0.2182,0.2185,0.2188,0.2211,0.2232,0.2287,0.2435,0.2448,0.2448,0.2563,0.2284,0.1657,0.1706,0.1402,0.0778,0.0703,0.0653,0.0617,0.0653,0.0617,0.0615,0.0529,0.0175,-0.0244,-0.0305,-0.0671,-0.1107,-0.1107,-0.1308,-0.1611,-0.1614,-0.1884,0.0,0.0,-0.2255,-0.2354,-0.272,-0.2787,-0.2854,-0.3192,-0.3661,-0.4061,-0.4061,-0.4489,-0.518,-0.6218,-0.6416,-0.6519,-0.6881,0.0,-0.7244,-0.721,-0.7416,-0.7544,-0.7509,-0.7553,-0.7841,-0.8508,-0.8614,-0.8785,-0.9155,-0.8672,-0.8334,-0.8324,-0.7829,-0.7689,-0.8019,-0.8052,-0.8468,-0.9274,-0.9338,0.0,0.0,0.0,0.0,0.0,0.0,0.0,0.0,0.0,0.0,0.0,0.0,0.0,0.0,0.0,0.0,0.0,0.0,0.0,0.0,0.0,0.0,0.0,0.0,0.0,0.0,0.0,0.0,0.2237,0.2345,0.0,0.2685,0.2728,0.2685,0.2664,0.2676,0.2734,0.274,0.2764,0.2935,0.327,0.3304,0.3147,0.2863,0.2853,0.269,0.241,0.2491,0.2511,0.2512,0.2555,0.2474,0.2301,0.2305,0.2186,0.201,0.2017,0.1468,0.0729,0.1093,0.1021,0.0691,0.0685,0.0539,0.0323,-0.0107,-0.0354,-0.0602,-0.1027,-0.1226,-0.1208,-0.0863,-0.1091,-0.148,-0.1344,-0.1547,-0.195,-0.2552,-0.2686,-0.2787,-0.3125,-0.3678,-0.414,-0.414,-0.457,-0.5113,-0.5501,-0.5841,-0.6112,-0.629,-0.6744,-0.7065,-0.7065,-0.7189,-0.7314,-0.7314,-0.7636,-0.797,-0.8268,-0.8519,-0.8756,-0.9052,-0.8725,-0.8433,-0.8316,-0.8004,-0.7787,-0.7689,-0.7689,-0.7917,-0.8468,-0.8468,-0.8779,0.0,0.0,0.0,0.0,0.0,0.0,0.0,0.0,0.0,0.0,0.0,0.0,0.0,0.0,0.0,0.0,0.0,0.0,0.0,0.0,0.0,0.0,0.0,0.0,0.0,0.3125,0.2969,0.2717,0.2828,0.3021,0.3231,0.3307,0.3276,0.3287,0.3537,0.3603,0.3366,0.3633,0.3836,0.3915,0.3953,0.38,0.3489,0.3516,0.3382,0.3123,0.3123,0.3123,0.3123,0.3123,0.3025,0.2944,0.2944,0.2873,0.2723,0.2723,0.2208,0.1419,0.1763,0.1687,0.1377,0.1317,0.1196,0.0932,0.0073,-0.0073,0.0,-0.0656,-0.0684,-0.0426,-0.0071,-0.0351,-0.076,-0.0622,-0.1003,-0.1591,-0.2211,-0.2349,-0.2487,-0.2971,-0.3432,-0.3796,-0.394,-0.4278,-0.4553,-0.459,-0.5146,-0.5723,-0.5968,-0.6425,-0.682,-0.7045,-0.7196,-0.7313,-0.7313,-0.7643,-0.7949,-0.8102,-0.8327,-0.8609,-0.8882,-0.867,-0.8387,-0.8098,-0.7884,-0.7635,-0.7302,-0.7423,-0.7657,-0.7987,-0.8117,-0.8538,-0.9306,0.0,0.0,0.0,0.0,0.0,0.0,0.0,0.0,0.0,0.0,0.0,0.0,0.0,0.0,0.0,0.0,0.0,0.0,0.0,0.0,0.0,0.0,0.0,0.4429,0.3694,0.3404,0.3621,0.3644,0.3719,0.3858,0.3915,0.4005,0.4095,0.4751,0.4836,0.4189,0.4769,0.4758,0.4076,0.4036,0.4076,0.4118,0.421,0.4255,0.43,0.43,0.43,0.43,0.43,0.4032,0.3587,0.3587,0.3282,0.2786,0.2786,0.2794,0.274,0.2694,0.2692,0.2679,0.2559,0.2159,0.152,0.0297,0.0219,0.0584,0.0,0.0219,0.0693,0.073,0.0292,-0.0182,-0.0182,-0.0656,-0.1276,-0.1604,-0.1714,-0.1896,-0.2696,-0.2878,-0.3027,-0.3394,-0.3505,-0.3532,-0.3576,-0.4407,-0.5237,-0.5856,-0.6155,-0.6515,-0.7084,-0.7374,0.0,-0.7484,-0.7484,-0.7642,-0.8034,-0.8072,-0.8264,-0.8675,-0.8491,-0.8175,-0.7651,-0.7411,-0.7178,-0.6889,-0.7265,-0.7624,-0.7982,-0.8317,-0.8738,-0.9274,0.0,0.0,0.0,0.0,0.0,0.0,0.0,0.0,0.0,0.0,0.0,0.0,0.0,0.0,0.0,0.0,0.0,0.0,0.0,0.0,0.0,0.6655,0.6323,0.5429,0.5487,0.5386,0.4571,0.4711,0.4982,0.5235,0.5246,0.5485,0.5987,0.58,0.5588,0.5407,0.5155,0.5099,0.5236,0.5236,0.5075,0.4747,0.4775,0.4628,0.43,0.43,0.43,0.43,0.43,0.4032,0.3587,0.3587,0.3309,0.2893,0.2893,0.3059,0.3296,0.2854,0.2692,0.2688,0.2654,0.2246,0.1646,0.1308,0.0937,0.0616,0.0423,0.0532,0.0787,0.1162,0.0592,-0.0109,0.0255,-0.0401,-0.1276,-0.1604,-0.1714,-0.1823,-0.2293,-0.2696,-0.2996,-0.3108,-0.3455,-0.3736,-0.376,-0.3975,-0.4337,-0.495,-0.5857,-0.6572,-0.6729,-0.7184,-0.7484,-0.7484,-0.7484,-0.7614,-0.7868,-0.7884,-0.8037,-0.8461,-0.8243,-0.7952,-0.7624,-0.7372,-0.7005,-0.6556,-0.6646,-0.7003,-0.7624,-0.7954,-0.8344,0.0,0.0,0.0,0.0,0.0,0.0,0.0,0.0,0.0,0.0,0.0,0.0,0.0,0.0,0.0,0.0,0.0,0.0,0.0,0.0,0.0,0.0,0.7582,0.7459,0.7143,0.6923,0.6577,0.5994,0.6148,0.6357,0.6553,0.6375,0.6372,0.6749,0.6478,0.6152,0.5823,0.5777,0.5722,0.5688,0.5688,0.5552,0.528,0.528,0.5149,0.4882,0.4882,0.4882,0.4882,0.4882,0.4612,0.4166,0.4166,0.3898,0.3499,0.3499,0.3542,0.3534,0.0,0.0,0.0,0.0,0.2481,0.206,0.1812,0.1583,0.1394,0.1155,0.1254,0.1498,0.1807,0.1293,0.0564,0.0602,-0.0075,-0.0941,-0.1393,-0.1544,-0.1618,-0.1992,-0.2318,-0.2573,-0.2766,-0.3029,-0.3294,-0.3491,-0.3491,0.0,-0.4231,-0.5165,-0.5902,-0.6131,-0.671,-0.7138,-0.7138,-0.733,-0.7563,-0.7669,-0.7686,-0.776,-0.7991,-0.8047,0.0,0.0,0.0,-0.7129,-0.6626,-0.6618,0.0,0.0,0.0,-0.8155,-0.8517,-0.8797,0.0,0.0,-0.9247,-0.9303,0.0,0.0,0.0,0.0,0.0,0.0,0.0,0.0,0.0,0.0,0.0,0.0,0.0,0.0,0.0,0.0,0.8661,0.8874,0.9028,0.8116,0.7466,0.7596,0.7646,0.7674,0.7699,0.7316,0.6997,0.6912,0.6912,0.6605,0.5863,0.6387,0.0,0.0,0.0,0.5688,0.5688,0.5688,0.5688,0.5688,0.5688,0.5688,0.5688,0.5688,0.546,0.501,0.501,0.4743,0.43,0.43,0.4076,0.3631,0.3141,0.3187,0.3491,0.3031,0.2798,0.2617,0.2026,0.0,0.0,0.1998,0.2127,0.252,0.252,0.2082,0.1489,0.0863,0.0236,-0.0432,-0.1021,-0.1257,-0.1375,-0.1765,-0.1882,-0.1999,-0.2353,-0.247,-0.2589,-0.2943,-0.3067,-0.327,-0.3661,-0.4277,-0.4896,-0.541,-0.6077,-0.6514,-0.6535,-0.708,-0.7425,-0.7425,-0.7502,0.0,-0.7555,-0.7863,-0.7773,-0.7048,-0.731,-0.7272,-0.6861,-0.6848,-0.7171,-0.7857,-0.7922,-0.8117,-0.8447,-0.8479,-0.8517,-0.8511,-0.9176,-0.9469,0.0,0.0,0.0,0.0,0.0,0.0,0.0,0.0,0.0,0.0,0.0,0.0,0.0,0.0,0.0,0.8869,0.9178,0.9437,0.9479,0.9461,0.9164,0.8451,0.8524,0.8407,0.7829,0.8209,0.8229,0.7658,0.7614,0.7305,0.6605,0.6169,0.5863,0.5688,0.5688,0.5688,0.5688,0.5688,0.5688,0.5688,0.5688,0.0,0.5688,0.5688,0.546,0.501,0.501,0.4743,0.43,0.43,0.4255,0.4121,0.3631,0.3275,0.3051,0.335,0.3167,0.2766,0.2635,0.264,0.2674,0.2549,0.2551,0.2583,0.2583,0.211,0.0,0.1451,0.0588,-0.0314,-0.0471,-0.0904,-0.1335,-0.1414,-0.1648,-0.1921,-0.1999,-0.2275,-0.2511,-0.2589,-0.2947,-0.3306,-0.3387,-0.4126,-0.4768,-0.4933,-0.5508,-0.599,-0.6021,-0.6648,-0.7097,-0.7097,-0.7585,-0.7854,-0.7755,-0.7826,-0.7607,-0.702,-0.6787,-0.6593,-0.6486,-0.6486,-0.6683,-0.7106,-0.7428,-0.7754,-0.8084,-0.8382,-0.8517,-0.8511,-0.8656,-0.8703,0.0,0.0,0.0,0.0,0.0,0.0,0.0,0.0,0.0,0.0,0.0,0.8425,0.0,0.0,0.9086,0.9258,0.947,0.9639,0.9786,0.9933,0.9826,0.9375,0.9408,0.9288,0.8934,0.889,0.8759,0.836,0.8009,0.7658,0.7305,0.665,0.6257,0.6257,0.5908,0.5688,0.5688,0.5688,0.5688,0.5688,0.5688,0.5688,0.5688,0.5688,0.5552,0.5371,0.5371,0.5238,0.4971,0.4746,0.4654,0.461,0.4389,0.3853,0.3275,0.3497,0.3298,0.2873,0.3136,0.3005,0.2737,0.2737,0.2696,0.2647,0.2647,0.2421,0.2067,0.1762,0.0958,0.0119,-0.0197,-0.0786,-0.1296,-0.1296,-0.1452,-0.1608,-0.1608,-0.1743,-0.1958,-0.2156,-0.244,-0.2808,-0.322,-0.3679,-0.4074,-0.4367,-0.4987,-0.5418,-0.5438,-0.6028,-0.6443,-0.6443,-0.7064,-0.7453,-0.7253,-0.7358,-0.7237,-0.6873,-0.6566,-0.6387,-0.6387,-0.6387,-0.6552,-0.6881,-0.7106,-0.7461,-0.7987,-0.8155,-0.8349,-0.8517,-0.8517,-0.8517,0.0,0.0,0.0,0.0,0.0,0.0,0.0,0.0,0.8212,0.8255,0.8562,0.8836,0.8878,0.9157,0.9413,0.9625,0.9663,0.9762,0.9971,0.9994,0.9994,0.9994,0.9994,0.9951,0.982,0.9375,0.8978,0.8711,0.8273,0.7965,0.779,0.7305,0.6953,0.6823,0.6213,0.5863,0.5688,0.5688,0.5688,0.5688,0.5688,0.5688,0.5688,0.5688,0.5688,0.5688,0.5688,0.5688,0.5688,0.528,0.5144,0.5144,0.5055,0.452,0.3853,0.3765,0.3454,0.3097,0.3454,0.3238,0.2845,0.2932,0.2845,0.271,0.271,0.2702,0.2598,0.2056,0.1426,0.0727,0.0079,-0.0591,-0.1139,-0.1257,-0.1296,-0.1296,-0.1296,-0.1317,-0.1376,-0.1706,-0.1903,-0.2231,-0.2957,-0.3212,-0.3509,-0.3976,-0.448,-0.486,-0.488,-0.5434,-0.5804,-0.5736,-0.6402,-0.6774,-0.665,-0.6868,-0.691,-0.6726,-0.6513,-0.6387,-0.6387,-0.6387,-0.6515,-0.6782,-0.6881,-0.7209,-0.7792,-0.7922,-0.8149,-0.8414,-0.8484,-0.8517,0.8025,0.8063,0.8049,0.8077,0.8096,0.8163,0.0,0.0,0.8685,0.8878,0.9096,0.9272,0.9465,0.9536,0.9635,0.9928,0.9961,0.9971,0.9994,0.9994,0.9994,0.9994,0.9994,0.9728,0.9069,0.955,0.9331,0.8009,0.8448,0.8492,0.783,0.7742,0.7394,0.6823,0.6735,0.6343,0.5688,0.5688,0.5688,0.5688,0.5688,0.5688,0.5688,0.5688,0.5688,0.5688,0.5688,0.5688,0.5688,0.5644,0.5644,0.5597,0.5146,0.4921,0.4788,0.4389,0.3942,0.3542,0.3587,0.327,0.2953,0.3353,0.3174,0.2773,0.2773,0.2734,0.2691,0.26,0.2105,0.142,0.0769,0.008,-0.055,-0.1139,-0.1296,-0.1296,-0.1296,-0.1299,-0.131,-0.1378,-0.174,-0.2115,-0.22,-0.2943,-0.3635,-0.4113,-0.4243,-0.4313,-0.4391,-0.5021,-0.5383,-0.519,-0.586,-0.6344,-0.6425,-0.6799,-0.6914,-0.6704,-0.6522,-0.6387,-0.6387,-0.6387,-0.642,-0.6453,-0.6749,-0.6946,-0.7012,-0.7694,-0.8019,-0.8052,-0.8349,-0.8517,0.8091,0.8255,0.8439,0.0,0.8538,0.8685,0.8892,0.9001,0.9091,0.9141,0.9324,0.9498,0.9587,0.9743,0.9852,0.998,0.9994,0.9994,0.9994,0.9994,0.9994,0.9994,0.9994,0.9864,0.9554,0.9816,0.9728,0.9113,0.9375,0.9419,0.9109,0.8671,0.8317,0.8009,0.7614,0.7044,0.6343,0.6343,0.6124,0.5688,0.5688,0.5688,0.5688,0.5688,0.5688,0.5688,0.5688,0.5688,0.5688,0.5688,0.5688,0.5688,0.5463,0.5416,0.5371,0.4877,0.4255,0.3676,0.421,0.3942,0.332,0.3544,0.3433,0.3233,0.2924,0.2818,0.279,0.2755,0.2257,0.168,0.1349,0.0766,0.012,-0.0551,-0.0707,-0.0825,-0.1218,-0.1311,-0.1287,-0.13,-0.1492,-0.173,-0.2043,-0.243,-0.2855,-0.3326,-0.3796,-0.4106,-0.414,-0.4405,-0.473,-0.5064,-0.5288,-0.5525,-0.5918,-0.5936,-0.588,-0.5728,-0.584,-0.5951,-0.5951,-0.6218,-0.6387,-0.6387,-0.6552,-0.6716,-0.6913,-0.7433,-0.7819,-0.8019,-0.8349,-0.8517,0.8325,0.0,0.0,0.8859,0.8992,0.9122,0.9324,0.9371,0.9385,0.9483,0.962,0.9729,0.9729,0.9852,0.9994,0.9994,0.9994,0.9994,0.9994,0.9994,0.9994,0.9994,0.9994,0.9994,0.9994,0.9994,0.9994,0.9994,0.9994,0.9994,0.9994,0.9506,0.9109,0.889,0.836,0.779,0.7085,0.6908,0.6517,0.5994,0.5774,0.5688,0.5688,0.5688,0.5688,0.5688,0.5688,0.5688,0.5688,0.5688,0.5688,0.5688,0.5688,0.5688,0.5644,0.5327,0.4701,0.4076,0.4743,0.4478,0.381,0.3942,0.39,0.3721,0.323,0.3097,0.3042,0.2864,0.2446,0.2024,0.1781,0.1346,0.0807,0.0118,-0.0196,-0.0432,-0.0904,-0.1155,-0.1292,-0.1301,-0.132,-0.1421,-0.1807,-0.1966,-0.2166,-0.25,-0.3149,-0.3647,-0.3819,-0.395,-0.4202,-0.474,-0.4805,-0.493,-0.5285,-0.5229,-0.5131,-0.4994,-0.5231,-0.5382,-0.5382,-0.5749,-0.5951,-0.5951,-0.6119,-0.6317,-0.6548,-0.7068,-0.7461,-0.7694,-0.8155,-0.8349,0.8901,0.8966,0.9023,0.9216,0.9268,0.9329,0.9545,0.9592,0.9649,0.9933,0.998,0.9985,0.9985,0.999,0.9994,0.9994,0.9994,0.9994,0.9994,0.9994,0.9994,0.9994,0.9994,0.9994,0.9994,0.9994,0.9994,0.9994,0.9994,0.9994,0.9994,0.9994,0.9641,0.8934,0.889,0.8492,0.7786,0.7129,0.6779,0.6779,0.6038,0.5688,0.5688,0.5688,0.5688,0.5688,0.5688,0.5688,0.5688,0.5688,0.5688,0.5688,0.5688,0.5688,0.5688,0.5688,0.5371,0.4966,0.501,0.4699,0.4342,0.4832,0.4654,0.421,0.3721,0.3587,0.3497,0.3005,0.2828,0.2594,0.19,0.1693,0.1494,0.075,0.0118,-0.0314,-0.0314,-0.0825,-0.1307,-0.1297,-0.1303,-0.1313,-0.1301,-0.1652,-0.1911,-0.1911,-0.2273,-0.2757,-0.3342,-0.3739,-0.3994,-0.4034,-0.4481,-0.4773,-0.4628,-0.4972,-0.5131,-0.4994,-0.4892,-0.4815,-0.4815,-0.4848,-0.4848,-0.4848,-0.5348,-0.5617,-0.565,-0.6515,-0.6913,-0.6946,-0.7661,-0.8019,0.8966,0.9079,0.9235,0.9442,0.9493,0.955,0.98,0.9852,0.9909,0.998,0.9994,0.9994,0.9994,0.9994,0.9994,0.9994,0.9994,0.9994,0.9994,0.9994,0.9994,0.9994,1.0123,1.0156,1.0009,0.9994,0.9994,0.9994,0.9994,0.9994,0.9994,0.9994,0.9907,0.9641,0.9641,0.9288,0.854,0.8317,0.7746,0.6779,0.6038,0.5688,0.5688,0.5688,0.5688,0.5688,0.5688,0.5688,0.5688,0.5688,0.5688,0.5688,0.5688,0.5688,0.5688,0.5688,0.5599,0.5463,0.5463,0.5195,0.4924,0.499,0.4968,0.4786,0.4228,0.3853,0.3587,0.3409,0.3126,0.2776,0.2464,0.2384,0.2181,0.1425,0.1097,0.0745,-0.0118,-0.0471,-0.0787,-0.1231,-0.1312,-0.1316,-0.1286,-0.1399,-0.1589,-0.1865,-0.2484,-0.2961,-0.3169,-0.3574,-0.3854,-0.3854,-0.4024,-0.4108,-0.4077,-0.4105,-0.4093,-0.3992,-0.4271,-0.4376,-0.4261,-0.4619,-0.4815,-0.4815,-0.4981,-0.508,-0.508,-0.5943,-0.6379,-0.6375,-0.726,-0.7787,0.9164,0.9301,0.9446,0.97,0.9757,0.979,0.9966,0.9994,0.9994,0.9994,0.9937,0.9866,0.998,0.9937,0.9866,0.998,0.9994,0.9994,0.9994,1.0061,1.0108,1.0108,1.0298,1.0374,1.0232,1.0217,1.0189,1.0118,1.0175,1.0217,1.0217,1.0217,1.0184,1.0113,1.0108,0.9851,0.9288,0.9026,0.8317,0.7129,0.6432,0.6083,0.6083,0.5822,0.5688,0.5688,0.5688,0.5688,0.5688,0.5688,0.5688,0.5688,0.5688,0.5688,0.5688,0.5688,0.5688,0.5694,0.5734,0.5615,0.5438,0.5405,0.5445,0.54,0.4872,0.4466,0.4123,0.3763,0.3429,0.3072,0.2794,0.2709,0.2583,0.2084,0.1775,0.1372,0.0549,0.0196,-0.0157,-0.0825,-0.0943,-0.1021,-0.1257,-0.1296,-0.1375,-0.1648,-0.2237,-0.2707,-0.2865,-0.3137,-0.3333,-0.3333,-0.3452,-0.3569,-0.3569,-0.3564,-0.3554,-0.3505,-0.3768,-0.3838,-0.3732,-0.4056,-0.422,-0.422,-0.442,-0.4519,-0.4519,-0.5448,-0.5914,-0.5943,-0.6868,-0.74,0.9493,0.9611,0.9663,0.9947,0.9994,0.9994,0.9994,0.9985,0.998,0.998,0.9771,0.9649,0.0,0.0,0.9658,0.9961,0.9985,0.998,0.9994,1.018,1.0317,0.0,0.0,0.0,0.0,0.0,1.0569,1.0365,1.0516,1.0621,1.0621,1.0621,1.0531,1.0341,1.0322,1.0217,1.0013,0.9292,0.8536,0.7834,0.7173,0.6868,0.6823,0.6083,0.5777,0.5733,0.5733,0.5688,0.5688,0.5688,0.5688,0.5688,0.5688,0.5688,0.5688,0.5688,0.5688,0.5704,0.5863,0.5907,0.5931,0.604,0.6083,0.6047,0.5569,0.5351,0.5039,0.4121,0.3742,0.3487,0.2977,0.2783,0.2677,0.2616,0.2114,0.1646,0.1607,0.1099,0.0471,-0.0118,-0.0236,-0.0471,-0.1139,-0.1257,-0.1257,-0.1296,-0.1609,-0.1999,-0.2431,-0.247,-0.2511,-0.2511,-0.2826,-0.3062,-0.3102,-0.3377,-0.356,-0.3511,-0.3457,-0.333,-0.3204,-0.3194,-0.3192,-0.3192,-0.3694,-0.3961,-0.3961,-0.502,-0.5517,-0.558,-0.6445,-0.6848,0.9531,0.9757,0.9928,0.998,0.9994,0.9994,0.9994,0.9833,0.9682,0.9682,0.9512,0.9428,0.0,0.0,0.0,0.9933,0.9823,0.0,0.9975,1.018,0.0,1.0317,0.0,1.0749,1.0589,1.0853,1.0953,1.0749,1.0683,1.0621,1.0621,1.0621,1.0597,1.0545,1.0398,1.0293,1.0236,0.9363,0.8803,0.8623,0.7878,0.7526,0.7526,0.6823,0.6517,0.6473,0.5949,0.5688,0.5688,0.5688,0.5688,0.5688,0.5688,0.5688,0.5688,0.5688,0.5688,0.5704,0.5863,0.5964,0.6029,0.5969,0.6072,0.6206,0.5971,0.564,0.5289,0.5054,0.438,0.37,0.3535,0.3074,0.2677,0.2616,0.2434,0.2156,0.1685,0.145,0.1137,0.051,0.0353,0.0157,-0.0432,-0.055,-0.0707,-0.1218,-0.1375,-0.1609,-0.1999,-0.2314,-0.2511,-0.2511,-0.2589,-0.2787,-0.3062,-0.3161,-0.3308,-0.3562,-0.3514,-0.3424,-0.3366,-0.3262,-0.3192,-0.3192,-0.3326,-0.3393,-0.3393,-0.4092,-0.4622,-0.5014,-0.565,-0.628,1.0675,1.0659,1.0618,1.0883,1.0493,0.9994,0.9994,0.9795,0.9602,0.9602,0.9362,0.9244,0.9545,0.9357,0.936,0.0,0.0,0.0,0.9966,1.018,1.035,0.0,1.0693,0.0,1.0849,1.1057,1.1146,1.1038,1.0915,1.0849,1.0849,1.0849,1.0806,1.0716,1.0559,1.036,1.018,0.9657,0.9375,0.9375,0.8627,0.8312,0.8391,0.7722,0.7268,0.7015,0.6569,0.6207,0.5885,0.5831,0.5809,0.5803,0.571,0.5688,0.5688,0.5688,0.5688,0.5696,0.5806,0.5942,0.6075,0.6005,0.6113,0.6295,0.6121,0.586,0.5597,0.5457,0.4926,0.4294,0.3917,0.3484,0.3106,0.3068,0.292,0.2707,0.2427,0.2291,0.1999,0.1216,0.0785,0.051,0.0157,0.0079,-0.0118,-0.0746,-0.0864,-0.106,-0.1569,-0.1845,-0.1962,-0.1962,-0.2118,-0.2314,-0.255,-0.2904,-0.3184,-0.3332,-0.3436,-0.3458,-0.3404,-0.3275,-0.3192,-0.3192,-0.3192,-0.3192,-0.3192,-0.3727,-0.4159,-0.4453,-0.5249,-0.5848,1.2018,1.1777,1.15,1.2052,1.1292,1.0371,1.0173,1.0003,0.9801,0.9652,0.0,0.915,0.9484,0.9244,0.9228,0.9895,0.0,0.9677,0.9966,1.018,1.0348,1.0592,1.0764,1.0976,1.1175,1.1194,1.1194,1.1194,1.1194,1.1194,1.1194,1.1194,1.1104,1.0905,1.0683,1.0431,1.0042,1.0009,0.9994,0.9994,0.9362,0.9194,0.9317,0.8659,0.8107,0.7587,0.7493,0.7073,0.6405,0.6154,0.6064,0.6053,0.5801,0.5712,0.571,0.5694,0.5688,0.5691,0.5704,0.589,0.6062,0.6062,0.6157,0.6295,0.6121,0.601,0.586,0.5603,0.5368,0.5076,0.4324,0.3983,0.3767,0.3721,0.3505,0.3341,0.3384,0.3245,0.2838,0.1929,0.1258,0.0825,0.0746,0.0746,0.051,-0.0079,-0.0196,-0.0393,-0.0982,-0.1178,-0.1296,-0.1296,-0.1608,-0.1843,-0.1882,-0.255,-0.2957,-0.3007,-0.3268,-0.3441,-0.342,-0.3293,-0.3206,-0.3192,-0.3192,-0.3192,-0.3192,-0.3661,-0.3928,-0.4028,-0.4954,-0.5418,1.1655,1.1817,1.1703,1.1974,1.2375,1.2366,1.1037,1.1013,0.0,0.0,0.9403,0.9281,0.9344,0.9145,0.9228,0.9895,0.9776,0.9677,0.9966,1.018,1.0348,0.0,1.0764,1.0976,1.1175,1.1194,0.0,1.1194,1.1194,1.1194,1.1194,1.1194,1.1104,1.0905,1.0683,1.0502,1.0265,1.0085,0.9994,0.9999,1.0042,1.01,1.0097,0.9518,0.9233,0.9076,0.8512,0.8236,0.8045,0.7323,0.7038,0.6976,0.6196,0.5874,0.586,0.5723,0.5688,0.5702,0.5841,0.5899,0.5934,0.5934,0.6086,0.6295,0.6121,0.607,0.6081,0.6107,0.5767,0.5374,0.5335,0.4771,0.4257,0.4255,0.4105,0.3962,0.3962,0.3607,0.3107,0.2544,0.2306,0.2,0.1529,0.1412,0.1216,0.055,0.0432,0.0393,0.0275,-0.0667,-0.1296,-0.1296,-0.1375,-0.1531,-0.1882,-0.2038,-0.2388,-0.3042,-0.3088,-0.3198,-0.3481,-0.3424,-0.3305,-0.3194,-0.3192,-0.3192,-0.3192,-0.3293,-0.356,-0.3995,-0.4192,-0.4522,1.351,1.3553,1.3336,1.3758,1.3233,1.2433,1.1981,0.0,0.0,0.0,0.9815,0.9458,0.9898,0.9442,0.0,1.0186,1.0118,0.9969,1.0009,1.0255,0.0,1.0436,1.0598,1.0811,1.1019,1.1132,1.134,1.1585,1.1639,1.1487,1.1194,1.1194,1.1104,1.0905,1.0797,1.0641,1.0478,1.0374,1.0317,1.0322,1.0426,1.049,1.0603,1.0365,1.0082,0.9744,0.9408,0.902,0.8627,0.8163,0.7984,0.7923,0.7439,0.6968,0.6536,0.6472,0.6098,0.5696,0.5795,0.5852,0.5893,0.5833,0.5934,0.6056,0.5937,0.5901,0.5926,0.6045,0.5897,0.5644,0.5475,0.5111,0.4822,0.4777,0.4623,0.4507,0.4417,0.3871,0.3265,0.306,0.276,0.2477,0.2157,0.2096,0.1843,0.1216,0.1138,0.0981,0.0628,0.0079,-0.0432,-0.0746,-0.11,-0.1375,-0.1569,-0.1764,-0.2078,-0.2431,-0.28,-0.3069,-0.3174,-0.3341,-0.332,-0.3194,-0.3192,-0.3192,-0.3192,-0.3192,-0.3326,-0.3594,-0.3861,-0.4125,1.5148,1.5049,1.4789,1.5304,1.4054,1.2744,1.289,1.1945,0.0,0.0,1.0606,1.0138,1.0701,1.0232,0.9953,0.0,1.075,1.0614,1.0313,1.0549,1.0722,0.0,1.0728,0.0,1.12,1.1375,0.0,1.2122,1.2175,1.198,1.159,1.1536,1.1463,1.1302,1.1158,1.1005,1.0832,1.0691,1.0621,1.0621,1.0622,1.0731,1.0896,1.1034,1.0805,1.0265,1.0364,1.0015,0.9308,0.9024,0.8918,0.8854,0.8634,0.8048,0.7361,0.7328,0.6731,0.5955,0.5983,0.5947,0.586,0.582,0.5852,0.5882,0.5723,0.5688,0.5712,0.5871,0.5904,0.5844,0.5566,0.5455,0.5349,0.5233,0.5144,0.4995,0.4827,0.42,0.3677,0.3468,0.3076,0.2743,0.2621,0.2571,0.2371,0.1896,0.1809,0.1608,0.1059,0.0903,0.0628,0.0157,-0.051,-0.0943,-0.1061,-0.1373,-0.1647,-0.1882,-0.2428,-0.2783,-0.2771,-0.3107,-0.3201,-0.2993,-0.3058,-0.3092,-0.3092,-0.3092,-0.3125,-0.3226,-0.3627,-0.3828,1.4605,1.476,1.4577,1.4903,1.5164,1.4972,1.3571,0.0,0.0,1.2446,1.2107,1.189,1.151,1.1814,1.1976,1.1326,1.1735,1.1901,1.1278,1.1198,1.1288,1.1439,0.0,0.0,1.223,1.2289,1.239,1.2694,1.2716,1.271,1.2667,1.2667,1.2657,1.2635,1.2002,1.1599,1.1579,1.0949,1.0621,1.0621,1.0773,1.0877,1.0901,1.1569,1.1614,1.1096,1.1585,1.1487,1.0895,1.0194,0.9895,0.9776,0.8906,0.8408,0.8203,0.8101,0.7489,0.671,0.684,0.6367,0.5737,0.5988,0.5986,0.5882,0.5723,0.5688,0.5712,0.5871,0.5904,0.5956,0.6144,0.6031,0.5786,0.5684,0.5644,0.5489,0.5073,0.4862,0.4493,0.3635,0.3401,0.3183,0.2768,0.2634,0.2552,0.2512,0.2466,0.2392,0.2314,0.1843,0.1489,0.145,0.0824,0.0196,-0.0353,-0.0432,-0.0863,-0.1842,-0.1956,-0.2104,-0.2334,-0.2725,-0.273,-0.229,-0.2587,-0.2753,-0.2753,-0.2753,-0.2889,-0.3192,-0.3259,-0.3259,1.5077,1.5287,1.5248,1.5365,1.5119,1.4797,1.4524,0.0,1.341,1.3229,1.2718,1.2361,1.2556,1.2557,1.2394,1.2058,1.2427,0.0,1.1408,0.0,1.1661,1.1462,1.1513,0.0,0.0,0.0,1.2606,1.3184,1.3534,1.3721,1.3721,1.3147,1.2813,1.2813,1.2528,1.2192,1.1897,1.1902,1.176,1.1474,1.1672,1.1799,1.1794,1.1926,1.1984,1.1927,1.1831,1.1709,1.1634,1.0998,1.0703,1.0699,1.032,0.9714,0.9021,0.8999,0.8332,0.7401,0.7467,0.7379,0.716,0.6771,0.6688,0.6653,0.6097,0.5893,0.5844,0.589,0.5904,0.5909,0.5939,0.5874,0.5745,0.5699,0.5688,0.5644,0.5463,0.5156,0.4858,0.4465,0.4128,0.3811,0.3642,0.3531,0.3381,0.3052,0.298,0.2869,0.2554,0.2275,0.2156,0.2156,0.1216,0.051,0.0275,0.0236,0.0079,-0.0353,-0.098,-0.1312,-0.1381,-0.2129,-0.2435,-0.221,-0.2341,-0.2388,-0.2388,-0.2388,-0.2554,-0.2889,-0.2889,-0.3023,1.5383,1.5569,1.5569,1.5569,1.4961,1.449,0.0,0.0,1.3513,1.3941,1.3455,1.311,1.348,1.3432,1.3225,1.3018,1.3208,1.3031,1.2132,1.21,0.0,0.0,0.0,1.2143,1.2432,1.275,1.3202,1.3715,1.4106,1.4298,1.4298,1.3624,1.3244,1.3244,1.3104,1.2813,1.2467,1.2667,1.2619,1.2219,1.2337,1.2414,1.2409,1.2248,1.227,1.2367,1.2173,1.2013,1.198,1.1585,1.134,1.1194,1.1194,1.0646,0.982,0.982,0.9116,0.8141,0.8141,0.8168,0.8098,0.7548,0.7529,0.7567,0.7037,0.6455,0.595,0.5912,0.5928,0.5928,0.5814,0.5737,0.5729,0.5696,0.5688,0.5688,0.5688,0.546,0.5146,0.501,0.4685,0.4376,0.4247,0.4169,0.3994,0.3578,0.3505,0.3301,0.2755,0.2668,0.2628,0.2511,0.1687,0.1099,0.0903,0.0903,0.0825,0.0628,-0.0078,-0.0427,-0.0341,-0.1152,-0.1522,-0.1367,-0.1616,-0.1764,-0.1783,-0.1951,-0.222,-0.2554,-0.2554,-0.2721,1.5189,1.5226,1.5226,1.5226,1.4919,1.4613,0.0,1.4605,1.4569,1.4605,1.4569,1.4499,1.4253,1.4733,1.4949,1.4294,1.4191,1.4056,1.3733,1.3094,0.0,0.0,0.0,1.3185,1.3444,1.3984,1.4292,1.4298,1.4298,1.4298,1.4298,1.4298,1.4298,1.4298,1.3775,1.3491,1.3491,1.3055,1.2813,1.2807,1.2527,1.2414,1.2409,1.2618,1.2594,1.2414,1.2869,1.267,1.198,1.198,1.1683,1.1194,1.1194,1.0943,1.0575,1.0575,0.9854,0.889,0.889,0.8573,0.8208,0.8281,0.8441,0.8601,0.872,0.753,0.6059,0.5937,0.5991,0.6056,0.5931,0.5901,0.5874,0.5715,0.5688,0.5688,0.5688,0.5688,0.5552,0.5099,0.5008,0.483,0.4387,0.4222,0.4173,0.3996,0.3952,0.3706,0.3149,0.3102,0.2943,0.255,0.247,0.2235,0.1646,0.1607,0.1294,0.0628,0.0589,0.0622,0.0682,0.0302,0.0221,0.0561,-0.028,-0.076,-0.0807,-0.1344,-0.1817,-0.2221,-0.2221,-0.2388,1.4779,1.4779,1.4779,1.4779,1.4692,1.4605,1.4605,1.4605,1.4605,1.4605,1.4605,1.4565,1.4494,1.4867,1.4991,1.4315,1.4197,1.4022,0.0,0.0,0.0,1.3392,1.4021,1.4572,1.4917,1.5238,1.5443,1.5305,1.5166,1.4906,1.4576,1.4401,1.4298,1.4298,1.4154,1.3871,1.3491,1.3727,1.363,1.3292,1.3377,1.3351,1.313,1.3048,1.3027,1.3135,1.294,1.2899,1.3001,1.2667,1.2467,1.2257,1.2102,1.167,1.1109,1.0919,1.0365,0.9641,0.9641,0.9646,0.9556,0.9018,0.9053,0.9236,0.8651,0.8159,0.7675,0.7152,0.654,0.6078,0.6037,0.5966,0.5874,0.5715,0.5688,0.5688,0.5688,0.5688,0.5644,0.5508,0.5463,0.5419,0.5285,0.5255,0.5105,0.4689,0.4508,0.4246,0.3708,0.3606,0.3413,0.2943,0.2904,0.2707,0.2275,0.2196,0.2118,0.1922,0.1529,0.129,0.1318,0.0801,0.0563,0.0666,0.04,0.0251,0.0213,-0.0355,-0.1067,-0.1849,-0.2095,-0.225,0.0,1.4605,1.4605,1.4605,1.4605,0.0,1.4605,1.4605,1.4605,1.4605,1.4605,1.4605,1.4605,1.4787,1.4875,1.4636,1.4477,1.4292,0.0,0.0,0.0,1.4222,0.0,0.0,1.5527,1.5729,1.5771,1.5671,1.5538,1.5331,1.5,1.4606,1.4372,1.4372,1.4332,1.4154,1.3823,1.4106,1.4106,1.3817,1.3749,1.367,1.3501,1.3133,1.3169,1.3468,1.3144,1.3205,0.0,1.3201,1.2958,1.2797,1.2603,1.2156,1.1614,1.1429,1.0998,1.0511,1.0511,1.0671,1.0834,1.0144,1.0095,1.0154,0.9554,0.9024,0.8538,0.8115,0.7543,0.6946,0.6614,0.6459,0.6236,0.5805,0.5688,0.5688,0.5688,0.5688,0.5688,0.5688,0.5688,0.5688,0.5688,0.5688,0.5557,0.5173,0.5057,0.4792,0.4238,0.4128,0.392,0.3417,0.3374,0.3178,0.2747,0.2589,0.2511,0.2511,0.2156,0.1921,0.1921,0.1585,0.1375,0.1324,0.1155,0.092,0.0656,-0.0182,-0.0911,-0.1531,-0.1721,-0.1886,0.0,1.4605,0.0,0.0,0.0,0.0,1.4605,1.4605,0.0,1.4605,1.4605,1.4605,1.4605,1.4605,1.4716,1.5094,1.4889,0.0,0.0,1.4936,0.0,0.0,1.5211,1.5323,1.5653,1.5623,1.563,1.5627,1.5606,1.5562,1.5538,1.4899,1.4578,1.4578,1.4447,1.4333,1.4244,1.4285,1.4285,1.4238,1.3749,1.3513,1.3501,1.297,1.3019,1.3513,1.3495,1.3507,1.3511,1.3511,1.3281,1.2905,1.2888,1.2558,1.2064,1.2027,1.1731,1.1348,1.1332,1.1584,1.193,1.1502,1.1328,1.1272,1.1287,1.0082,0.872,0.8829,0.8762,0.8409,0.7584,0.73,0.6976,0.6073,0.5822,0.5777,0.5777,0.5733,0.5688,0.5688,0.5688,0.5688,0.5688,0.5688,0.565,0.5537,0.5513,0.5299,0.4755,0.4634,0.4426,0.3899,0.3845,0.3647,0.318,0.2787,0.2511,0.2511,0.2511,0.2511,0.2511,0.2511,0.2484,0.2389,0.1935,0.1351,0.066,-0.0439,-0.1026,-0.1063,-0.1134,-0.1316,1.4784,0.0,1.4605,1.4605,1.4605,1.4605,0.0,1.4605,1.4605,1.4605,0.0,1.4605,1.4605,1.4605,1.4629,1.4716,0.0,1.4416,1.4775,0.0,0.0,1.6672,1.6514,1.6584,1.7177,1.7016,1.6824,1.6734,1.6551,1.6247,1.5836,1.5455,1.5243,1.5243,1.5244,1.4735,1.3701,1.4193,1.4193,1.3701,1.3574,1.3513,1.3507,1.3175,1.3206,1.3507,1.3258,1.3423,1.3814,1.3814,1.388,1.3944,1.3696,1.3356,1.2875,1.2457,1.2021,1.1585,1.1392,1.1521,1.1793,1.2049,1.2146,1.2173,1.2361,1.1107,0.9665,0.971,0.9243,0.8649,0.8175,0.8031,0.7884,0.7419,0.6915,0.6561,0.6561,0.6083,0.5688,0.5688,0.5688,0.5688,0.5688,0.5688,0.568,0.565,0.5567,0.5443,0.5302,0.5139,0.4894,0.4468,0.4316,0.4073,0.3686,0.3217,0.2826,0.2511,0.2511,0.2511,0.2511,0.2511,0.2503,0.2489,0.2334,0.1978,0.1349,0.1079,0.0694,0.0154,-0.0303,-0.0563,1.4812,1.4605,1.4605,1.4605,1.4605,1.4605,1.4605,0.0,0.0,0.0,0.0,0.0,0.0,0.0,0.0,0.0,1.4613,0.0,0.0,0.0,1.6389,1.6959,1.6816,1.684,1.7254,1.7135,1.6972,1.6901,1.6763,1.6561,1.6293,1.5836,1.5569,1.5569,1.5569,1.5226,1.4443,1.4802,1.4802,1.4398,1.4089,1.4071,1.4205,1.3447,1.3393,1.3948,1.3497,1.3598,1.4087,1.4087,1.4171,1.4286,1.4141,1.3867,1.3496,1.322,1.2788,1.232,1.233,1.2305,1.2396,1.2772,1.2751,1.2635,1.277,1.2007,1.1124,1.1263,1.0665,0.9845,0.9359,0.8973,0.8569,0.7938,0.7526,0.7261,0.7261,0.6956,0.6653,0.6653,0.6435,0.6213,0.6213,0.5908,0.5688,0.5688,0.5634,0.557,0.5516,0.5394,0.5229,0.4917,0.4808,0.4594,0.4116,0.3841,0.3528,0.3136,0.3096,0.3096,0.3096,0.2902,0.2707,0.2511,0.2235,0.1921,0.1607,0.1294,0.0942,0.0589,0.0271,0.0115,1.5026,1.4883,1.4883,1.4677,1.4605,1.4605,1.4605,0.0,0.0,0.0,0.0,0.0,0.0,1.4605,0.0,0.0,0.0,0.0,1.6039,1.6476,1.6713,1.6768,1.6729,1.6713,1.6768,1.6729,1.6689,1.6689,1.6689,1.6689,1.6689,1.6154,1.5888,1.594,1.594,1.593,1.5859,1.5683,1.5574,1.5441,1.4955,1.4919,1.5241,1.407,1.3983,1.4733,1.4114,1.4109,1.4566,1.447,1.4453,1.4436,1.434,1.4159,1.396,1.3924,1.3628,1.3227,1.3501,1.339,1.3279,1.3544,1.334,1.305,1.305,1.2837,1.2694,1.2892,1.2194,1.1257,1.0653,0.9953,0.9261,0.836,0.8053,0.7965,0.7965,0.7878,0.779,0.779,0.7349,0.6953,0.6953,0.6432,0.6041,0.6041,0.5952,0.5824,0.5719,0.5605,0.5429,0.5262,0.5208,0.5023,0.4572,0.4511,0.4345,0.3997,0.388,0.3802,0.3802,0.3413,0.3061,0.2705,0.2117,0.1881,0.192,0.1216,0.0903,0.0982,0.0825,0.0746,1.6,1.607,1.6237,1.4919,1.4605,1.4605,1.4605,0.0,0.0,0.0,0.0,0.0,0.0,1.4605,1.4605,0.0,0.0,1.5672,0.0,1.6317,1.6849,1.7159,1.6921,1.6816,1.7167,1.6913,1.6689,1.6689,1.6689,1.6689,1.6689,1.6607,1.6708,1.7057,1.7064,1.7168,1.7458,1.6616,1.5871,1.5338,1.5518,1.5756,1.6042,1.5559,1.5607,1.5923,1.5583,1.5621,1.5846,1.5166,1.5036,1.5146,1.4532,1.4268,1.4208,1.3984,1.3851,1.3791,1.3833,1.3823,1.3807,1.407,1.4106,1.4058,1.4058,1.3874,1.3678,1.372,1.2858,1.1808,1.1354,1.0965,1.0528,0.9823,0.92,0.8715,0.8715,0.8229,0.779,0.779,0.7702,0.7658,0.7658,0.757,0.7485,0.7485,0.7,0.664,0.6618,0.5956,0.5494,0.5456,0.5309,0.5178,0.5082,0.4991,0.4898,0.482,0.4194,0.3802,0.3802,0.3724,0.3647,0.3606,0.3137,0.3059,0.345,0.2627,0.2393,0.2708,0.1844,0.1451,1.6698,1.662,1.6724,1.6035,1.5542,1.524,1.524,1.4919,0.0,0.0,0.0,0.0,0.0,0.0,1.4668,1.4903,0.0,1.5745,1.5936,1.6404,1.6753,1.6969,1.68,1.6761,1.6969,1.6792,1.6776,1.7016,1.7032,1.7104,1.7286,1.7294,1.7374,1.7583,1.7583,1.7663,1.7814,1.7497,1.7149,1.6662,1.6603,1.6743,1.7018,1.6332,1.629,1.6699,1.623,1.6162,1.6404,1.6039,1.5933,1.6008,1.5676,1.5534,1.5453,1.4746,1.4319,1.4099,1.3954,1.3996,1.4135,1.4256,1.4298,1.4298,1.4298,1.4117,1.3906,1.3906,1.3106,1.217,1.1995,1.1549,1.103,1.0449,1.0072,0.9763,0.955,0.9244,0.8978,0.8978,0.8671,0.8404,0.8404,0.8053,0.779,0.779,0.7526,0.7349,0.7349,0.6681,0.6182,0.6113,0.5661,0.533,0.5197,0.5137,0.5083,0.5021,0.4665,0.435,0.4153,0.4114,0.4034,0.3802,0.3569,0.3569,0.3802,0.3411,0.3294,0.3452,0.3018,0.2666,1.7345,1.7276,1.7379,1.7207,0.0,1.6,1.5833,1.5303,0.0,0.0,0.0,0.0,0.0,1.4605,0.0,1.5125,1.5459,1.5839,1.6158,1.6508,1.6689,1.6689,1.6768,1.6816,1.6816,1.6887,1.7096,1.7374,1.744,1.7544,1.7798,1.7814,1.7854,1.789,1.7942,1.793,1.8017,1.8287,1.8247,1.7898,1.7672,1.7748,1.8025,1.7198,1.709,1.7568,1.7044,1.6907,1.7099,1.6911,1.6864,1.6864,1.6676,1.6588,1.6506,1.5665,1.5162,1.4787,1.4581,1.4555,1.4586,1.4586,1.4442,1.4298,1.4298,1.4159,1.3972,1.3851,1.3253,1.2622,1.2426,1.1953,1.137,1.0895,1.0766,1.0636,1.025,1.012,1.012,1.0038,0.9637,0.9283,0.9283,0.893,0.8575,0.8488,0.8313,0.8181,0.8053,0.7438,0.7001,0.6893,0.638,0.5927,0.5772,0.5563,0.5388,0.5294,0.511,0.4859,0.4543,0.4543,0.4387,0.4077,0.3997,0.3997,0.4077,0.388,0.3841,0.3919,0.3841,0.3608,1.8138,1.8418,1.8798,1.8104,1.7389,1.662,1.5965,1.5762,0.0,1.474,0.0,0.0,0.0,1.4605,1.4724,1.5125,1.5459,1.5839,1.6158,1.6508,1.6689,1.6689,1.7032,1.7239,1.7239,1.756,1.7751,1.7775,1.7775,1.779,1.7814,1.7814,1.7922,1.8247,1.8255,1.8414,1.8702,1.8726,1.8613,1.8263,1.853,1.8688,1.8756,1.8642,1.865,1.8696,1.865,1.8619,1.8589,1.7878,1.7598,1.7552,1.6864,1.6588,1.6581,1.6513,1.6466,1.644,1.6419,1.5947,1.5343,1.5343,1.4867,1.4298,1.4298,1.4286,1.4165,1.3682,1.3468,1.3248,1.256,1.2171,1.1843,1.1365,1.1235,1.1106,1.0679,1.0549,1.0463,1.0081,1.025,1.0463,1.0463,1.0804,1.089,1.0458,0.9889,0.9318,0.889,0.8185,0.7738,0.7727,0.7602,0.7489,0.7349,0.6586,0.6141,0.6128,0.5426,0.4979,0.4976,0.4937,0.4937,0.4901,0.4543,0.4543,0.4901,0.4155,0.3997,0.4345,0.3958,0.3763,1.8764,1.8898,1.9031,1.8754,1.8486,0.0,0.0,1.649,1.614,1.4848,1.4991,0.0,0.0,0.0,1.5094,1.5435,1.5777,1.6134,1.6444,1.661,1.6689,1.6689,1.6816,1.7032,1.7297,1.739,1.7636,1.8065,1.8097,1.8192,1.8414,1.843,1.8486,1.8629,1.8629,1.8692,1.8781,1.8781,1.8764,1.8629,1.8764,1.8781,1.8781,1.8781,1.8781,1.8781,1.8781,1.8781,1.8781,1.8496,1.8396,1.835,1.8079,1.7699,1.7271,1.7271,1.6998,1.6588,1.6588,1.6393,1.6157,1.6157,1.5967,1.5724,1.5724,1.5267,1.4674,1.4294,1.3707,1.3161,1.2711,1.2525,1.2314,1.1843,1.1757,1.1628,1.1154,1.1025,1.0982,1.0852,1.0939,1.1025,1.1025,1.1192,1.1241,1.1068,1.0587,1.0154,0.998,0.9104,0.8496,0.8496,0.7998,0.7665,0.7643,0.7233,0.6968,0.6827,0.5665,0.5018,0.5018,0.5362,0.5556,0.5556,0.5819,0.5819,0.5556,0.524,0.501,0.4779,0.4626,0.4428,1.9241,1.9175,1.9098,1.9142,0.0,0.0,1.7516,1.7242,1.6897,1.5578,1.5754,1.5938,1.5245,0.0,1.5624,1.5808,1.6047,1.6333,1.6642,1.6689,1.6689,1.6689,1.6792,1.7008,1.7254,1.7416,1.7671,1.8097,1.824,1.8406,1.8645,1.8718,1.8781,1.8781,1.8781,1.8781,1.8781,1.8781,1.8781,1.8781,1.8781,1.8781,1.8781,1.8781,1.8781,1.8781,1.8781,1.8781,1.8781,1.8781,1.8781,1.8781,1.8781,1.8496,1.8064,1.8064,1.7746,1.7286,1.7286,1.7145,1.6951,1.6951,1.677,1.6588,1.6588,1.5992,1.5271,1.4985,1.4338,1.3617,1.3163,1.2875,1.2619,1.2314,1.2229,1.21,1.1628,1.1542,1.1499,1.1322,1.1413,1.1542,1.1542,1.1623,1.1671,1.1542,1.1235,1.0982,1.0852,1.0154,0.9671,0.9671,0.9164,0.8833,0.8833,0.8363,0.8123,0.8113,0.6668,0.5723,0.5598,0.598,0.6209,0.6209,0.6672,0.6672,0.6209,0.6209,0.6015,0.5595,0.5595,0.5321,1.9506,1.9374,1.9131,0.0,0.0,0.0,1.8172,1.8003,1.7799,1.707,1.6906,1.6781,1.6368,1.63,1.6287,1.6213,1.6206,1.6333,1.6642,1.6689,1.6689,1.6689,1.7048,1.7321,1.7278,1.7615,1.7806,1.7814,1.8097,1.8295,1.8295,1.8629,1.8773,1.8773,1.8773,1.8773,1.8773,1.8773,1.8773,1.8773,1.8773,1.8773,1.8781,1.8781,1.8781,1.8781,1.8781,1.8781,1.8781,1.8781,1.8781,1.8781,1.8781,1.8781,1.8781,1.8781,1.8781,1.8781,1.8781,1.8303,1.7692,1.7692,1.7232,1.6629,1.6629,1.6311,1.5944,1.569,1.5376,1.489,1.3923,1.3209,1.2699,1.2705,1.2705,1.2577,1.21,1.2015,1.1886,1.1408,1.1671,1.2015,1.2015,1.24,1.2534,1.21,1.2015,1.1843,1.1365,1.1284,1.1284,1.1284,1.1284,1.1284,1.1284,1.0136,0.9634,1.0092,0.8484,0.7329,0.6918,0.6903,0.6903,0.6903,0.6903,0.6903,0.6903,0.6903,0.6903,0.6903,0.6903,0.6556,1.9539,1.9374,0.0,1.9285,0.0,0.0,0.0,1.8754,0.0,0.0,1.7021,1.6444,1.631,1.6275,1.6233,1.6214,1.6412,1.6578,1.6681,1.6689,1.6689,1.6689,1.6833,1.7,1.7254,1.7408,1.7568,1.7798,1.791,1.793,1.793,1.8025,1.8081,1.8081,1.8081,1.8081,1.8081,1.8081,1.8081,1.8081,1.8081,1.8343,1.8781,1.8781,1.8781,1.8781,1.8781,1.8781,1.8781,1.8781,1.8781,1.8781,1.8781,1.8781,1.8781,1.8781,1.8781,1.8781,1.8781,1.8635,1.845,1.845,1.8311,1.8125,1.8125,1.7244,1.6198,1.611,1.5132,1.4033,1.3783,1.3554,1.3297,1.2826,1.2705,1.2662,1.2528,1.2491,1.2443,1.2314,1.2406,1.2491,1.2491,1.2619,1.2662,1.2528,1.2229,1.1843,1.1365,1.1284,1.1284,1.1284,1.1284,1.1284,1.1284,1.0957,1.0724,1.0737,1.0247,0.9269,0.7679,0.7706,0.7688,0.7557,0.7936,0.7974,0.7514,0.7514,0.7322,0.6903,0.6903,0.6788,1.9747,1.9517,0.0,1.9374,1.9351,1.9285,1.9208,0.0,0.0,0.0,1.7745,1.7126,1.6967,1.6771,1.6714,1.6893,1.7065,1.7326,1.7683,1.7723,1.7602,1.7245,1.7204,1.7179,1.7082,1.7064,1.7143,1.7342,1.7493,1.7615,1.7615,1.7743,1.7814,1.7814,1.7814,1.7814,1.7814,1.7814,1.7814,1.7814,1.7814,1.7993,1.8414,1.8557,1.8647,1.8781,1.8781,1.8781,1.8781,1.8781,1.8781,1.8781,1.8781,1.8781,1.8781,1.8781,1.8781,1.8781,1.8781,1.8781,1.8781,1.8781,1.8732,1.8589,1.8446,1.7509,1.6438,1.6308,1.5395,1.4428,1.4155,1.4116,1.3882,1.3112,1.2884,1.2873,1.2723,1.2705,1.2705,1.2705,1.2705,1.2705,1.2705,1.2705,1.2705,1.2705,1.2448,1.2186,1.1886,1.1843,1.1843,1.1843,1.1843,1.1843,1.1843,1.1671,1.161,1.1677,1.1334,1.0611,0.9468,0.906,0.8762,0.8556,0.871,0.8673,0.8399,0.8241,0.805,0.7863,0.7706,0.7476,2.0107,1.978,0.0,1.9583,1.9473,0.0,1.9308,1.9208,1.9108,1.9108,0.0,1.8469,1.8119,1.7737,1.7634,1.8057,1.8118,1.8399,1.9177,1.9295,1.9027,1.8198,1.8078,1.7764,1.6976,1.6853,1.682,1.682,1.7165,1.7357,1.7315,1.7602,1.7719,1.7719,1.7719,1.7719,1.7762,1.7762,1.7762,1.7805,1.7805,1.7821,1.7861,1.8133,1.843,1.8732,1.8732,1.8778,1.8778,1.8824,1.8824,1.8778,1.8778,1.8732,1.8732,1.8732,1.8732,1.8732,1.8732,1.8732,1.8732,1.8732,1.8494,1.8144,1.787,1.7215,1.6531,1.6246,1.588,1.5464,1.4842,1.4688,1.446,1.3514,1.3282,1.3175,1.2904,1.2838,1.2845,1.2869,1.2875,1.2875,1.2875,1.2875,1.2875,1.2875,1.2875,1.2875,1.2875,1.2875,1.2875,1.2875,1.2875,1.2875,1.279,1.24,1.2314,1.2662,1.1886,1.1529,1.1778,1.0701,0.9978,0.9804,0.9365,0.9223,0.939,0.9037,0.9027,0.9359,0.897,0.8508,2.0848,2.0215,0.0,0.0,1.9572,1.9341,1.9517,1.9308,1.9108,1.9108,1.9083,1.9078,1.9129,1.8994,1.8967,1.9225,1.9116,1.9107,1.9256,1.9295,1.9225,1.9027,1.8727,1.8496,1.8304,1.7951,1.7708,1.7708,1.7792,1.7712,1.7392,1.7458,1.7334,1.6961,1.6953,1.7127,1.7499,1.7499,1.7623,1.7944,1.7944,1.8136,1.8431,1.807,1.7966,1.8045,1.8345,1.8477,1.8521,1.8871,1.8827,1.8477,1.8477,1.8301,1.8001,1.8001,1.8001,1.8037,1.8389,1.8301,1.8081,1.8389,1.8032,1.7485,1.7448,1.669,1.5888,1.5817,1.534,1.479,1.4645,1.46,1.451,1.4099,1.3779,1.3633,1.3852,1.3878,1.3946,1.4225,1.4272,1.4272,1.4272,1.4272,1.4272,1.4272,1.4272,1.4272,1.4272,1.4272,1.4272,1.4272,1.4272,1.4062,1.3519,1.3392,1.313,1.2747,1.2528,1.2419,1.2493,1.1408,1.0706,1.0506,1.038,1.0229,1.0075,0.9997,0.9907,0.9771,0.9695,0.9576,2.1155,0.0,0.0,1.9966,0.0,1.9605,1.9704,1.9539,1.9308,1.9208,1.9087,1.9111,1.9436,1.9363,1.9503,2.0217,2.0246,2.0314,2.0711,2.0788,2.0634,2.0197,1.9972,1.959,1.8926,1.8616,1.8496,1.8496,1.8011,1.7749,1.7828,1.7389,1.6982,1.6745,1.6745,1.6863,1.7108,1.7315,1.7519,1.7718,1.7906,1.8296,1.8772,1.8549,1.875,1.9281,1.9213,1.9179,1.9179,1.9435,1.923,1.8715,1.85,1.8413,1.8422,1.8154,1.8248,1.8465,1.8672,1.8594,1.8389,1.8224,1.7801,1.7251,1.6692,1.6046,1.5404,1.5229,1.4882,1.4605,1.4605,1.4605,1.4581,1.4433,1.417,1.3948,1.3938,1.4086,1.4232,1.4441,1.4594,1.4692,1.4692,1.4692,1.4692,1.4692,1.4692,1.4692,1.4692,1.4692,1.4692,1.4692,1.4692,1.4573,1.4195,1.4195,1.3899,1.3215,1.347,1.3385,1.2747,1.2445,1.1957,1.121,1.0958,1.0838,1.0761,1.0597,1.0433,1.0352,1.016,1.003,2.1585,0.0,2.0764,2.0096,1.99,0.0,1.99,1.9736,1.9539,1.9384,1.9189,1.9143,1.9549,1.9556,1.9902,2.1068,2.1214,2.1483,2.2279,2.2402,2.2128,2.1413,2.126,2.073,1.9487,1.9291,1.9224,1.9111,1.8297,1.7994,1.8406,1.7654,1.7148,1.7073,1.7073,1.711,1.7194,1.7538,1.7733,1.781,1.8145,1.8649,1.9277,1.924,1.9763,2.0692,2.0264,2.0107,2.0107,2.0149,1.9782,1.9168,1.8778,1.8735,1.8871,1.8488,1.8574,1.8914,1.893,1.8862,1.8718,1.802,1.753,1.7035,1.6069,1.5506,1.5141,1.4864,1.4713,1.4605,1.4677,1.4641,1.4605,1.4605,1.4498,1.4313,1.4012,1.4173,1.4427,1.4534,1.4812,1.5068,1.5068,1.5068,1.5068,1.5068,1.5068,1.5068,1.5068,1.5068,1.5068,1.5068,1.5068,1.4985,1.4859,1.4859,1.4573,1.3899,1.4398,1.4181,1.3082,1.3561,1.3368,1.226,1.1628,1.1344,1.1468,1.1133,1.0976,1.1006,1.0662,1.0374,0.0,0.0,2.0912,0.0,1.9976,1.99,0.0,0.0,1.9572,1.9572,1.9718,1.9917,2.0152,2.0505,2.1003,2.1748,2.1738,2.1813,2.2349,2.2402,2.2365,2.2241,2.1911,2.149,2.0866,2.0442,2.0058,1.9637,1.9475,1.9299,1.8997,1.8866,1.8608,1.8184,1.8184,1.8378,1.88,1.8858,1.9033,1.9372,1.9431,1.9826,2.0442,1.9872,1.9763,2.0065,2.0321,2.0439,2.0478,2.085,2.0429,1.9528,1.9448,1.8896,1.8145,1.8063,1.8104,1.8183,1.8206,1.7965,1.762,1.7569,1.7064,1.6431,1.6255,1.5741,1.5262,1.5568,1.5133,1.4677,1.5026,1.4848,1.4605,1.4605,1.4852,1.5053,1.5016,1.5022,1.5225,1.581,1.6209,1.6443,1.6443,1.6443,1.6443,1.6443,1.6443,1.6443,1.6443,1.6443,1.6443,1.6443,1.6443,1.6196,1.5609,1.5567,1.5276,1.4608,1.465,1.4608,1.444,1.4524,1.4461,1.4295,1.3117,1.2355,1.2182,1.2093,1.1843,1.1412,1.1373,1.1186,2.2756,2.1834,2.0944,0.0,2.0042,2.0009,2.0009,1.9878,1.9769,1.9769,1.9875,2.0032,2.04,2.0728,2.1133,2.1705,2.171,2.1714,2.193,2.1952,2.1952,2.1952,2.1818,2.1468,2.0922,2.0684,2.0483,2.0288,1.9687,1.9429,1.9596,1.9074,1.8655,1.8471,1.8471,1.8541,1.877,1.8982,1.931,1.9693,2.0088,2.041,2.0705,2.0751,2.0782,2.0874,2.0971,2.0998,2.1056,2.1521,2.1242,2.0459,2.0207,1.9801,1.9263,1.8767,1.8554,1.8452,1.8203,1.8178,1.8171,1.7779,1.7623,1.7493,1.7051,1.6685,1.6481,1.6655,1.6245,1.5762,1.5939,1.5621,1.5267,1.5267,1.5417,1.553,1.5527,1.5682,1.5972,1.6455,1.6485,1.6459,1.6657,1.6689,1.6689,1.6689,1.6689,1.6689,1.6689,1.6689,1.6689,1.6689,1.6689,1.6566,1.6278,1.6278,1.5982,1.5318,1.5609,1.5484,1.4734,1.5068,1.5068,1.4692,1.3766,1.3201,1.3082,1.2704,1.2264,1.1712,1.1712,1.1483,0.0,0.0,2.1459,2.0796,2.0485,2.0356,0.0,0.0,1.9933,1.9933,1.9933,2.0052,2.0409,2.0608,2.0872,2.1354,2.1407,2.145,2.157,2.1592,2.1592,2.1592,2.1592,2.1387,2.0793,2.0748,2.0695,2.0543,1.9803,1.9538,2.0003,1.9297,1.8911,1.8911,1.8911,1.8911,1.8911,1.9192,1.9496,1.9823,2.0324,2.0533,2.0567,2.1004,2.1221,2.1219,2.1382,2.1447,2.1479,2.1839,2.1632,2.1049,2.0689,2.0414,2.0155,1.9447,1.9133,1.9039,1.8541,1.8613,1.8827,1.8206,1.8263,1.8473,1.7842,1.7609,1.7575,1.7643,1.7276,1.6837,1.6941,1.6499,1.6009,1.6009,1.5974,1.5903,1.5833,1.6062,1.6414,1.6768,1.6655,1.6628,1.696,1.7017,1.7017,1.7017,1.7017,1.7017,1.7017,1.7017,1.7017,1.7017,1.7017,1.7017,1.7017,1.6935,1.6648,1.6147,1.6484,1.6237,1.5235,1.5692,1.5733,1.5235,1.4566,1.411,1.3942,1.3351,1.2775,1.2154,1.2086,1.168,0.0,2.3027,0.0,2.2163,2.1534,0.0,0.0,0.0,2.0085,2.0085,2.0085,2.0085,2.0118,2.0118,2.0303,2.085,2.0938,2.1091,2.1527,2.1592,2.1592,2.1592,2.1592,2.1407,2.0937,2.0893,2.0674,2.0151,2.0063,2.0053,2.0085,2.0064,2.0009,2.0009,2.0009,2.0009,2.0009,2.0042,2.0063,2.0085,2.0118,2.0118,2.0118,2.0151,2.0194,2.0238,2.1187,2.159,2.159,2.1612,2.126,2.0732,2.0697,2.0293,1.9733,1.9696,1.964,1.9597,1.9198,1.9059,1.9014,1.8588,1.8472,1.8506,1.8442,1.823,1.8037,1.8365,1.7925,1.7438,1.7823,1.7251,1.6568,1.6568,1.6403,1.6202,1.5868,1.6062,1.6419,1.6829,1.7141,1.746,1.7842,1.791,1.791,1.791,1.791,1.791,1.791,1.791,1.791,1.791,1.791,1.791,1.791,1.7595,1.7351,1.731,1.6943,1.6648,1.6607,1.6607,1.6607,1.6607,1.594,1.5276,1.465,1.4275,1.3682,1.285,1.2538,1.191,0.0,0.0,0.0,2.2267,2.1585,2.1092,2.1092,2.0571,2.0118,2.0118,2.0118,2.0118,2.0118,2.0118,2.0172,2.038,2.0402,2.0467,2.0609,2.063,2.063,2.063,2.063,2.0565,2.038,2.0402,2.0303,2.0096,2.0118,2.0118,2.0118,2.0118,2.0118,2.0118,2.0118,2.0118,2.0118,2.0118,2.0118,2.0118,2.0118,2.0118,2.0118,2.0118,2.0118,2.0129,2.0478,2.0839,2.1179,2.1496,2.1476,2.129,2.129,2.0957,2.0403,2.0045,1.971,1.9373,1.8869,1.8954,1.9194,1.9052,1.9253,1.9528,1.9528,1.9429,1.9363,1.9495,1.9077,1.8657,1.88,1.8331,1.7823,1.7823,1.7755,1.7696,1.755,1.6877,1.6489,1.7173,1.7173,1.7265,1.7889,1.8,1.8,1.8,1.8,1.8,1.8,1.8,1.8,1.8,1.8,1.8,1.8,1.7878,1.7797,1.7797,1.7635,1.7546,1.7546,1.7546,1.7546,1.7546,1.7302,1.644,1.5005,1.449,1.3853,1.3163,1.3015,1.2729,2.3573,0.0,0.0,0.0,2.2267,2.171,2.1491,2.0912,2.0356,2.014,2.0118,2.0118,2.0118,2.0118,2.0118,2.0118,2.0118,2.0118,2.0118,2.0118,2.0118,2.0118,2.0118,2.0118,2.0118,2.0118,2.0118,2.0118,2.0118,2.0118,2.0118,2.0118,2.0118,2.0118,2.0118,2.0118,2.0118,2.0118,2.0118,2.0118,2.0118,2.0118,2.0118,2.0118,2.0118,2.0118,2.0118,2.0292,2.0642,2.097,2.1112,2.1112,2.1112,2.0915,2.0587,2.0197,1.9827,1.9518,1.9154,1.9287,1.9584,1.9584,1.9802,2.0118,2.0118,2.0118,2.0118,2.0118,1.9835,1.9584,1.9584,1.9177,1.8734,1.8533,1.8509,1.8509,1.8509,1.7594,1.6986,1.7661,1.7535,1.7497,1.8136,1.8346,1.8434,1.8434,1.8434,1.8434,1.8434,1.8434,1.8434,1.8434,1.8434,1.8434,1.8434,1.8322,1.8241,1.8241,1.808,1.8,1.8,1.8,1.8,1.8,1.8,1.7256,1.5787,1.5187,1.455,1.3832,1.3581,1.3267,0.0,0.0,0.0,0.0,0.0,0.0,2.2286,2.1616,2.0944,2.027,2.0118,2.0107,2.0118,2.0118,2.0118,2.0118,2.0118,2.0118,2.0118,2.0118,2.0118,2.0118,2.0118,2.0118,2.0118,2.0118,2.0118,2.0118,2.0118,2.0118,2.0118,2.0118,2.0118,2.0118,2.0118,2.0118,2.0118,2.0118,2.0118,2.0118,2.0118,2.0118,2.0118,2.0118,2.0118,2.0118,2.0118,2.0118,2.0118,2.0118,2.0118,2.0118,2.0118,2.0118,2.0118,2.0118,2.0118,2.0118,2.0118,2.0118,2.0118,2.0118,2.0118,2.0118,2.0118,2.0118,2.0118,2.0118,2.0118,2.0118,2.0118,1.9726,1.9199,1.8677,1.8543,1.8543,1.8543,1.8138,1.7865,1.8245,1.8226,1.8284,1.8641,1.9045,1.9301,1.9301,1.9301,1.9301,1.9301,1.9301,1.9301,1.9301,1.9301,1.9301,1.9301,1.8922,1.874,1.874,1.8282,1.804,1.804,1.804,1.804,1.804,1.8031,1.7655,1.6918,1.6514,1.5853,1.4924,1.4194,1.3513,2.4083,0.0,0.0,0.0,0.0,0.0,2.2877,2.2286,2.1647,2.0976,2.0816,2.0667,2.0172,2.0118,2.0118,2.0118,2.0118,2.0118,2.0118,2.0118,2.0118,2.0118,2.0118,2.0118,2.0118,2.0118,2.0118,2.0118,2.0118,2.0118,2.0118,2.0118,2.0118,2.0118,2.0118,2.0118,2.0118,2.0118,2.0118,2.0118,2.0118,2.0118,2.0118,2.0118,2.0118,2.0118,2.0118,2.0118,2.0118,2.0118,2.0118,2.0118,2.0118,2.0118,2.0118,2.0118,2.0118,2.0118,2.0118,2.0118,2.0118,2.0118,2.0118,2.0118,2.0118,2.0118,2.0118,2.0118,2.0118,2.0118,2.0118,1.9976,1.9835,1.9704,1.9671,1.9671,1.9671,1.9253,1.8876,1.8884,1.9108,1.9321,1.9269,1.9648,1.9805,1.9381,1.9301,1.9301,1.9301,1.9301,1.9301,1.9301,1.9301,1.9301,1.9301,1.9192,1.9112,1.9112,1.9024,1.8944,1.8944,1.8944,1.8944,1.8944,1.8626,1.8249,1.7783,1.7061,1.6345,1.5551,1.5031,1.4482,0.0,0.0,0.0,0.0,0.0,0.0,2.3148,2.2804,2.2317,2.1647,2.1534,2.1408,2.1008,2.0944,2.0848,2.0571,2.0518,2.0421,2.0151,2.0118,2.0118,2.0118,2.0118,2.0118,2.0118,2.0118,2.0118,2.0118,2.0118,2.0118,2.0118,2.0118,2.0118,2.0118,2.0118,2.0118,2.0118,2.0118,2.0118,2.0118,2.0118,2.0118,2.0118,2.0118,2.0118,2.0118,2.0118,2.0118,2.0118,2.0118,2.0118,2.0118,2.0118,2.0118,2.0118,2.0118,2.0118,2.0118,2.0118,2.0118,2.0118,2.0118,2.0118,2.0118,2.0118,2.0118,2.0118,2.0118,2.0118,2.0118,2.0118,2.0118,2.0118,2.0118,2.0118,2.0118,2.0118,1.9868,1.9536,1.9226,1.951,1.9763,1.9654,2.0175,2.0508,2.0157,2.0079,2.0079,2.0079,2.0079,2.0079,2.0079,1.9844,1.9696,1.9696,1.946,1.9301,1.9301,1.9301,1.9301,1.9301,1.9301,1.9301,1.9301,1.8916,1.843,1.7862,1.719,1.6508,1.5798,1.5551,1.5267,0.0,0.0,0.0,0.0,2.4083,0.0,2.3339,2.3207,2.3027,2.2347,2.2194,2.2194,2.2101,2.2101,2.1896,2.1313,2.1155,2.088,2.0205,2.0118,2.0118,2.0118,2.0118,2.0118,2.0118,2.0118,2.0118,2.0118,2.0118,2.0118,2.0118,2.0118,2.0118,2.0118,2.0118,2.0118,2.0118,2.0118,2.0118,2.0118,2.0118,2.0118,2.0118,2.0118,2.0118,2.0118,2.0118,2.0118,2.0118,2.0118,2.0118,2.0118,2.0118,2.0118,2.0118,2.0118,2.0118,2.0118,2.0118,2.0118,2.0118,2.0118,2.0118,2.0118,2.0118,2.0118,2.0118,2.0118,2.0118,2.0118,2.0118,2.0118,2.0118,2.0118,2.0118,2.0118,2.0118,2.0118,1.9976,1.9474,1.971,1.9971,1.9899,2.0683,2.128,2.1203,2.1203,2.1203,2.1203,2.1203,2.1203,2.1203,2.0663,2.0313,2.0313,1.9814,1.9499,1.942,1.942,1.9381,1.9301,1.9301,1.9301,1.9301,1.8871,1.8247,1.7431,1.7063,1.6563,1.5903,1.5868,1.5868,0.0,0.0,0.0,0.0,2.4083,0.0,2.3923,2.3894,2.3691,2.3027,2.2907,2.2743,2.2194,2.2101,2.207,2.1928,2.1459,2.088,2.0205,2.0118,2.0118,2.0118,2.0118,2.0118,2.0118,2.0118,2.0118,2.0118,2.0118,2.0118,2.0118,2.0118,2.0118,2.0118,2.0118,2.0118,2.0118,2.0118,2.0118,2.0118,2.0118,2.0118,2.0118,2.0118,2.0118,2.0118,2.0118,2.0118,2.0118,2.0118,2.0118,2.0118,2.0118,2.0118,2.0118,2.0118,2.0118,2.0118,2.0118,2.0118,2.0118,2.0118,2.0118,2.0118,2.0118,2.0118,2.0118,2.0118,2.0118,2.0118,2.0118,2.0118,2.0118,2.0118,2.0118,2.0118,2.0118,2.0118,2.0085,1.9976,2.0644,2.1104,2.0598,2.1287,2.1749,2.128,2.1203,2.1203,2.1203,2.1203,2.1203,2.1203,2.1088,2.1011,2.1011,2.0895,2.0586,2.005,2.001,1.9814,1.9301,1.9301,1.9301,1.9301,1.8605,1.7798,1.7018,1.6948,1.6842,1.6691,1.6342,1.6202,0.0,0.0,0.0,2.4083,2.4157,0.0,0.0,2.4203,2.4102,2.3783,2.3649,2.3514,2.3173,2.3113,2.298,2.2652,2.2329,2.1865,2.1187,2.0506,2.0118,2.0118,2.0118,2.0118,2.0118,2.0118,2.0009,1.9769,1.9976,2.0009,1.9758,1.9976,2.0118,2.0118,2.0118,2.0118,2.0118,2.0118,2.0118,2.0118,2.0118,2.0118,2.0118,2.0118,2.0118,2.0118,2.0118,2.0118,2.0118,2.0118,2.0118,2.0118,2.0118,2.0118,2.0118,2.0118,2.0118,2.0118,2.0118,2.0118,2.0118,2.0118,2.0118,2.0118,2.0118,2.0118,2.0118,2.0118,2.0118,2.0118,2.0118,2.0118,2.0118,2.0118,2.0118,2.0118,2.0118,2.0118,2.0118,2.0118,2.0729,2.1228,2.1142,2.1739,2.2174,2.2124,2.208,2.208,2.208,2.208,2.208,2.208,2.1825,2.1634,2.1634,2.1357,2.1049,2.0702,2.0702,2.0547,2.0265,2.0235,1.9918,1.9155,1.8471,1.7824,1.7304,1.7304,1.7176,1.6908,1.6691,1.6586,0.0,2.4128,2.4128,2.4112,2.4203,2.4292,0.0,0.0,0.0,2.4321,2.4203,2.4128,2.4112,2.4112,2.3901,2.3246,2.3132,2.2917,2.2244,2.1181,2.0485,2.0485,2.027,2.014,2.027,2.0085,1.9813,1.9441,1.966,1.966,1.9299,1.9715,1.9976,1.9976,2.0063,2.0172,2.0302,2.0302,2.0356,2.0485,2.0485,2.0485,2.0485,2.0485,2.0485,2.0485,2.0485,2.0421,2.0302,2.0302,2.0237,2.0172,2.0118,2.0172,2.0291,2.0237,2.0237,2.0291,2.0205,2.014,2.0118,2.0118,2.0118,2.0107,2.0172,2.0074,1.9976,2.003,1.9998,1.9976,1.9976,2.0042,2.0118,2.0118,2.0118,2.0118,2.0118,2.0118,2.0118,2.0118,2.0456,2.0938,2.1483,2.1996,2.2477,2.2936,2.3001,2.3001,2.3001,2.3001,2.3001,2.3001,2.2553,2.2289,2.2289,2.1825,2.151,2.1395,2.1357,2.1318,2.1203,2.1203,2.0554,1.9195,1.8692,1.8248,1.7833,1.7833,1.7638,1.721,1.7107,1.7038,2.4334,2.4263,2.4247,2.4141,2.4203,2.4292,2.4292,0.0,2.452,2.4334,0.0,2.4247,2.4112,0.0,0.0,2.3465,2.3331,2.3048,2.2439,2.2074,2.1865,2.1865,2.0816,2.0324,2.0944,2.0085,1.9442,1.9387,1.9069,1.8829,1.8774,1.9233,1.9464,1.9464,1.9889,2.0388,2.0976,2.1008,2.1282,2.1865,2.1865,2.1865,2.1865,2.1865,2.1865,2.1865,2.1865,2.1522,2.1008,2.1008,2.0816,2.0518,2.0205,2.0453,2.0944,2.0635,2.072,2.0944,2.0635,2.0356,2.0118,2.0118,2.0118,2.0151,2.0453,2.0058,1.9527,1.983,1.9704,1.9464,1.9464,1.9791,2.0118,2.0118,2.0118,2.0118,2.0118,2.0118,2.0118,2.0118,2.0162,2.0489,2.1428,2.1996,2.2477,2.2936,2.3001,2.3001,2.3001,2.3001,2.3001,2.3001,2.2927,2.2889,2.2889,2.2841,2.259,2.2025,2.1987,2.1749,2.1203,2.1203,2.0742,1.9729,1.9647,1.9218,1.8408,1.8408,1.8375,1.8307,1.7842,1.7604,2.4849,2.4569,2.4292,2.4218,2.4347,2.445,2.4321,2.4463,2.4591,2.4492,0.0,0.0,0.0,0.0,0.0,0.0,2.3977,2.3781,2.3534,2.3073,2.261,2.2163,2.1667,2.1333,2.1293,2.0458,1.966,1.9045,1.9099,1.8914,1.8305,1.9033,1.9624,1.9966,2.0503,2.1086,2.1667,2.1678,2.1834,2.2101,2.2101,2.2101,2.2101,2.2101,2.2101,2.2101,2.2101,2.1978,2.1791,2.1791,2.1791,2.1741,2.1616,2.1565,2.1534,2.142,2.1628,2.1911,2.1398,2.0873,2.0299,1.9718,1.9641,1.9826,1.998,1.9772,1.9512,1.944,1.9318,1.9354,1.9848,1.999,2.0161,2.0812,2.086,2.0754,2.0754,2.0754,2.0754,2.0754,2.0754,2.0979,2.1655,2.1605,2.1636,2.2106,2.2422,2.2608,2.2608,2.2837,2.3001,2.3001,2.3001,2.3001,2.3001,2.3001,2.2889,2.2628,2.2628,2.2505,2.2231,2.1641,2.1009,2.0395,1.9738,1.9247,1.8967,1.8967,1.911,1.9396,1.8543,1.8172,2.5292,2.4826,2.4379,2.4321,2.445,2.4563,2.4421,2.4536,2.4706,2.462,2.462,0.0,0.0,0.0,2.4595,2.4435,0.0,2.4383,2.4195,2.3884,2.3416,2.2774,2.264,2.2286,2.1521,2.0824,1.9953,1.8811,1.9171,1.9,1.8089,1.9005,1.975,2.0198,2.0932,2.1566,2.2128,2.2335,2.2531,2.2713,2.2743,2.2786,2.2774,2.2713,2.2713,2.2713,2.2713,2.264,2.2579,2.264,2.2683,2.2743,2.2743,2.2665,2.2543,2.2298,2.2512,2.276,2.2078,2.133,2.0546,1.9812,1.9737,1.9925,1.9907,1.9756,1.9523,1.9395,1.9267,1.941,2.0321,2.0475,2.0615,2.1467,2.1545,2.1348,2.1221,2.119,2.119,2.119,2.119,2.1316,2.1652,2.1407,2.1329,2.1817,2.2099,2.2284,2.2355,2.2509,2.2644,2.2754,2.2754,2.2718,2.2608,2.2681,2.2718,2.2608,2.2739,2.2761,2.2619,2.2,2.1388,2.0839,2.0028,1.9588,1.9518,1.9518,1.9726,2.0074,1.9144,1.8734,2.5488,2.5002,2.4549,2.435,2.445,2.4591,2.4591,2.4806,2.492,2.4649,2.4706,2.475,2.462,2.4706,0.0,0.0,0.0,0.0,0.0,2.4288,2.4492,2.4263,2.364,2.279,2.1606,2.1025,2.0151,1.8891,1.9056,1.8866,1.8154,1.9124,1.9698,1.9709,2.0756,2.1593,2.218,2.29,2.3581,2.4234,2.4434,2.452,2.452,2.4334,2.4234,2.4234,2.4234,2.3859,2.3284,2.3475,2.3357,2.3088,2.3088,2.3564,2.4134,2.3357,2.3267,2.3441,2.2518,2.158,2.0783,2.0759,2.0759,2.0742,2.0693,2.0117,1.9571,1.9891,1.9725,1.9706,2.073,2.1313,2.1661,2.1839,2.1877,2.1765,2.1285,2.119,2.119,2.119,2.119,2.1201,2.1213,2.1562,2.2021,2.2502,2.2297,2.2205,2.2537,2.2055,2.1765,2.2101,2.2135,2.1997,2.1671,2.1928,2.1997,2.1671,2.2084,2.2127,2.1658,2.2037,2.183,2.0904,2.0871,2.0587,2.0074,2.0074,2.0074,2.0085,1.9518,1.9266,2.6123,2.5443,2.4734,2.4664,2.4692,2.4706,2.462,2.4721,2.4835,2.475,2.4835,2.492,2.4863,2.4892,0.0,0.0,0.0,0.0,0.0,2.4629,2.475,2.4765,2.4018,2.3229,2.2512,2.1744,2.0804,1.963,1.9572,1.9331,1.8735,1.9371,1.9959,2.0358,2.114,2.2056,2.3041,2.3406,2.3866,2.4492,2.4563,2.4591,2.4591,2.452,2.4492,2.4492,2.4492,2.4421,2.4292,2.4363,2.4379,2.435,2.435,2.4523,2.4708,2.4105,2.4163,2.4304,2.2754,2.1607,2.0719,2.0285,2.0271,2.0404,2.0376,2.0185,1.9956,1.9904,1.9786,1.9996,2.1314,2.1609,2.1872,2.3082,2.3177,2.2967,2.2829,2.2798,2.2798,2.2798,2.2798,2.2798,2.2798,2.2917,2.2731,2.1823,2.1851,2.2013,2.2135,2.2219,2.2217,2.2114,2.232,2.2217,2.1651,2.1686,2.1721,2.1627,2.1745,2.1767,2.1592,2.1439,2.1233,2.0905,2.0544,2.0282,2.0118,2.0118,2.0118,2.0118,1.99,1.9835,2.6522,2.5692,2.4806,2.4806,2.4806,2.4778,2.4706,2.4778,2.4863,2.4806,2.492,2.5005,2.5005,2.5005,2.5005,0.0,0.0,0.0,0.0,2.4863,2.4892,2.4977,2.4408,2.3796,2.3234,2.2537,2.1573,2.0274,2.0217,1.9965,1.9317,1.9811,2.0297,2.0705,2.1342,2.2181,2.3172,2.3577,2.406,2.4677,2.4734,2.4721,2.4721,2.4706,2.4677,2.4677,2.4677,2.4734,2.4806,2.4835,2.492,2.5005,2.5005,2.5005,2.4977,2.465,2.4602,2.446,2.3057,2.2034,2.1236,2.0575,2.0498,2.0598,2.0447,2.0422,2.0397,2.0207,2.0156,2.0463,2.1786,2.2124,2.2405,2.3566,2.3845,2.3813,2.3636,2.3607,2.3607,2.3607,2.3607,2.3607,2.3607,2.3607,2.319,2.1994,2.1977,2.206,2.2019,2.2059,2.2089,2.1956,2.2144,2.2122,2.1666,2.1543,2.1407,2.1272,2.154,2.1528,2.1079,2.1072,2.1029,2.0894,2.0358,2.0194,2.0369,2.0194,2.0172,2.027,2.0151,2.0172]}]]